| time (UTC) | temp F | wind direction | speed knots | gust knots | rain 1hr in | rain 24hr in | rain mn in | humidity % | barometer mb |
| 20260906174004 | 78 | 139 | 5.2 | 11.3 | 0.00 | 0.00 | 0.00 | 73 | 1019.2 |
| 20260906173905 | 78 | 141 | 5.2 | 11.3 | 0.00 | 0.00 | 0.00 | 73 | 1019.2 |
| 20260906173804 | 78 | 144 | 5.2 | 11.3 | 0.00 | 0.00 | 0.00 | 72 | 1019.3 |
| 20260906173704 | 78 | 141 | 5.2 | 11.3 | 0.00 | 0.00 | 0.00 | 72 | 1019.3 |
| 20260906173604 | 78 | 141 | 5.2 | 11.3 | 0.00 | 0.00 | 0.00 | 72 | 1019.3 |
| 20260906173518 | 78 | 145 | 5.2 | 11.3 | 0.00 | 0.00 | 0.00 | 72 | 1019.4 |
| 20260906173404 | 78 | 145 | 6.1 | 11.3 | 0.00 | 0.00 | 0.00 | 72 | 1019.4 |
| 20260906173304 | 78 | 155 | 6.1 | 11.3 | 0.00 | 0.00 | 0.00 | 72 | 1019.5 |
| 20260906173218 | 78 | 160 | 6.1 | 11.3 | 0.00 | 0.00 | 0.00 | 73 | 1019.5 |
| 20260906173104 | 77 | 170 | 5.2 | 11.3 | 0.00 | 0.00 | 0.00 | 74 | 1019.5 |
| 20260906173004 | 77 | 178 | 5.2 | 9.6 | 0.00 | 0.00 | 0.00 | 73 | 1019.5 |
| 20260906172904 | 77 | 185 | 5.2 | 9.6 | 0.00 | 0.00 | 0.00 | 74 | 1019.5 |
| 20260906172804 | 77 | 182 | 5.2 | 9.6 | 0.00 | 0.00 | 0.00 | 74 | 1019.5 |
| 20260906172704 | 77 | 182 | 5.2 | 9.6 | 0.00 | 0.00 | 0.00 | 74 | 1019.5 |
| 20260906172604 | 77 | 187 | 5.2 | 9.6 | 0.00 | 0.00 | 0.00 | 73 | 1019.5 |
| 20260906172504 | 77 | 181 | 5.2 | 9.6 | 0.00 | 0.00 | 0.00 | 73 | 1019.5 |
| 20260906172404 | 77 | 179 | 6.1 | 9.6 | 0.00 | 0.00 | 0.00 | 74 | 1019.5 |
| 20260906172306 | 77 | 168 | 5.2 | 9.6 | 0.00 | 0.00 | 0.00 | 73 | 1019.5 |
| 20260906172204 | 77 | 165 | 5.2 | 9.6 | 0.00 | 0.00 | 0.00 | 73 | 1019.4 |
| 20260906172104 | 77 | 162 | 6.1 | 9.6 | 0.00 | 0.00 | 0.00 | 74 | 1019.4 |
| 20260906172004 | 77 | 155 | 6.1 | 9.6 | 0.00 | 0.00 | 0.00 | 74 | 1019.4 |
| 20260906171904 | 77 | 154 | 6.1 | 9.6 | 0.00 | 0.00 | 0.00 | 74 | 1019.4 |
| 20260906171804 | 77 | 155 | 7.0 | 9.6 | 0.00 | 0.00 | 0.00 | 74 | 1019.4 |
| 20260906171704 | 77 | 153 | 7.0 | 9.6 | 0.00 | 0.00 | 0.00 | 74 | 1019.4 |
| 20260906171604 | 76 | 147 | 7.0 | 9.6 | 0.00 | 0.00 | 0.00 | 75 | 1019.5 |
| 20260906171518 | 76 | 153 | 7.0 | 9.6 | 0.00 | 0.00 | 0.00 | 75 | 1019.5 |
| 20260906171404 | 76 | 154 | 7.0 | 9.6 | 0.00 | 0.00 | 0.00 | 74 | 1019.5 |
| 20260906171318 | 76 | 162 | 6.1 | 9.6 | 0.00 | 0.00 | 0.00 | 75 | 1019.6 |
| 20260906171204 | 76 | 162 | 6.1 | 9.6 | 0.00 | 0.00 | 0.00 | 74 | 1019.7 |
| 20260906171118 | 76 | 160 | 6.1 | 9.6 | 0.00 | 0.00 | 0.00 | 74 | 1019.8 |
| 20260906171019 | 76 | 167 | 5.2 | 9.6 | 0.00 | 0.00 | 0.00 | 75 | 1019.8 |
| 20260906170918 | 76 | 167 | 5.2 | 9.6 | 0.00 | 0.00 | 0.00 | 75 | 1019.8 |
| 20260906170804 | 76 | 171 | 5.2 | 8.7 | 0.00 | 0.00 | 0.00 | 75 | 1019.7 |
| 20260906170704 | 76 | 178 | 4.3 | 8.7 | 0.00 | 0.00 | 0.00 | 75 | 1019.7 |
| 20260906170605 | 76 | 180 | 5.2 | 13.0 | 0.00 | 0.00 | 0.00 | 75 | 1019.7 |
| 20260906170505 | 76 | 175 | 5.2 | 13.0 | 0.00 | 0.00 | 0.00 | 76 | 1019.6 |
| 20260906170404 | 76 | 166 | 5.2 | 13.0 | 0.00 | 0.00 | 0.00 | 76 | 1019.6 |
| 20260906170304 | 76 | 166 | 5.2 | 13.0 | 0.00 | 0.00 | 0.00 | 76 | 1019.6 |
| 20260906170218 | 76 | 171 | 5.2 | 13.0 | 0.00 | 0.00 | 0.00 | 76 | 1019.6 |
| 20260906170118 | 76 | 172 | 5.2 | 13.0 | 0.00 | 0.00 | 0.00 | 76 | 1019.6 |
| 20260906170018 | 76 | 164 | 5.2 | 13.0 | 0.00 | 0.00 | 0.00 | 76 | 1019.6 |
| 20260906165918 | 76 | 156 | 5.2 | 13.0 | 0.00 | 0.00 | 0.00 | 76 | 1019.7 |
| 20260906165804 | 76 | 151 | 6.1 | 13.0 | 0.00 | 0.00 | 0.00 | 76 | 1019.7 |
| 20260906165704 | 76 | 148 | 6.1 | 13.0 | 0.00 | 0.00 | 0.00 | 75 | 1019.8 |
| 20260906165618 | 76 | 150 | 6.1 | 13.0 | 0.00 | 0.00 | 0.00 | 75 | 1019.7 |
| 20260906165518 | 76 | 145 | 6.1 | 10.4 | 0.00 | 0.00 | 0.00 | 76 | 1019.8 |
| 20260906165405 | 76 | 146 | 6.1 | 10.4 | 0.00 | 0.00 | 0.00 | 77 | 1019.8 |
| 20260906165318 | 76 | 140 | 5.2 | 10.4 | 0.00 | 0.00 | 0.00 | 77 | 1019.8 |
| 20260906165204 | 76 | 132 | 6.1 | 10.4 | 0.00 | 0.00 | 0.00 | 77 | 1019.8 |
| 20260906165104 | 76 | 135 | 6.1 | 10.4 | 0.00 | 0.00 | 0.00 | 76 | 1019.8 |
| 20260906165004 | 76 | 140 | 6.1 | 10.4 | 0.00 | 0.00 | 0.00 | 76 | 1019.8 |
| 20260906164904 | 76 | 142 | 5.2 | 10.4 | 0.00 | 0.00 | 0.00 | 76 | 1019.8 |
| 20260906164804 | 76 | 142 | 5.2 | 10.4 | 0.00 | 0.00 | 0.00 | 76 | 1019.7 |
| 20260906164718 | 76 | 143 | 4.3 | 9.6 | 0.00 | 0.00 | 0.00 | 76 | 1019.7 |
| 20260906164604 | 76 | 139 | 3.5 | 8.7 | 0.00 | 0.00 | 0.00 | 77 | 1019.7 |
| 20260906164504 | 76 | 147 | 3.5 | 8.7 | 0.00 | 0.00 | 0.00 | 77 | 1019.7 |
| 20260906164404 | 76 | 153 | 3.5 | 8.7 | 0.00 | 0.00 | 0.00 | 77 | 1019.7 |
| 20260906164318 | 76 | 154 | 4.3 | 8.7 | 0.00 | 0.00 | 0.00 | 76 | 1019.7 |
| 20260906164204 | 76 | 160 | 4.3 | 8.7 | 0.00 | 0.00 | 0.00 | 77 | 1019.8 |
| 20260906164104 | 75 | 163 | 4.3 | 8.7 | 0.00 | 0.00 | 0.00 | 78 | 1019.8 |
| 20260906164019 | 75 | 167 | 4.3 | 8.7 | 0.00 | 0.00 | 0.00 | 78 | 1019.8 |
| 20260906163904 | 75 | 169 | 4.3 | 8.7 | 0.00 | 0.00 | 0.00 | 78 | 1019.9 |
| 20260906163818 | 75 | 174 | 5.2 | 9.6 | 0.00 | 0.00 | 0.00 | 78 | 1019.9 |
| 20260906163704 | 75 | 179 | 4.3 | 9.6 | 0.00 | 0.00 | 0.00 | 78 | 1020.0 |
| 20260906163604 | 75 | 180 | 4.3 | 9.6 | 0.00 | 0.00 | 0.00 | 78 | 1020.0 |
| 20260906163504 | 75 | 178 | 5.2 | 9.6 | 0.00 | 0.00 | 0.00 | 78 | 1020.0 |
| 20260906163404 | 75 | 169 | 5.2 | 9.6 | 0.00 | 0.00 | 0.00 | 77 | 1020.0 |
| 20260906163304 | 75 | 168 | 5.2 | 9.6 | 0.00 | 0.00 | 0.00 | 77 | 1020.0 |
| 20260906163204 | 75 | 162 | 5.2 | 9.6 | 0.00 | 0.00 | 0.00 | 77 | 1020.1 |
| 20260906163118 | 75 | 158 | 5.2 | 9.6 | 0.00 | 0.00 | 0.00 | 77 | 1020.2 |
| 20260906163004 | 75 | 151 | 5.2 | 9.6 | 0.00 | 0.00 | 0.00 | 77 | 1020.2 |
| 20260906162904 | 75 | 150 | 5.2 | 9.6 | 0.00 | 0.00 | 0.00 | 77 | 1020.1 |
| 20260906162805 | 75 | 145 | 5.2 | 9.6 | 0.00 | 0.00 | 0.00 | 78 | 1020.1 |
| 20260906162704 | 75 | 135 | 5.2 | 8.7 | 0.00 | 0.00 | 0.00 | 78 | 1020.1 |
| 20260906162618 | 75 | 132 | 5.2 | 8.7 | 0.00 | 0.00 | 0.00 | 78 | 1020.1 |
| 20260906162504 | 75 | 131 | 5.2 | 8.7 | 0.00 | 0.00 | 0.00 | 78 | 1020.0 |
| 20260906162404 | 75 | 131 | 5.2 | 8.7 | 0.00 | 0.00 | 0.00 | 78 | 1020.0 |
| 20260906162306 | 75 | 127 | 5.2 | 8.7 | 0.00 | 0.00 | 0.00 | 78 | 1020.0 |
| 20260906162218 | 75 | 127 | 5.2 | 8.7 | 0.00 | 0.00 | 0.00 | 78 | 1020.0 |
| 20260906162104 | 75 | 126 | 4.3 | 8.7 | 0.00 | 0.00 | 0.00 | 77 | 1020.0 |
| 20260906162004 | 75 | 126 | 5.2 | 10.4 | 0.00 | 0.00 | 0.00 | 77 | 1020.0 |
| 20260906161905 | 75 | 128 | 5.2 | 10.4 | 0.00 | 0.00 | 0.00 | 77 | 1020.0 |
| 20260906161804 | 75 | 128 | 4.3 | 10.4 | 0.00 | 0.00 | 0.00 | 78 | 1020.0 |
| 20260906161704 | 75 | 131 | 4.3 | 10.4 | 0.00 | 0.00 | 0.00 | 78 | 1020.0 |
| 20260906161604 | 75 | 140 | 4.3 | 10.4 | 0.00 | 0.00 | 0.00 | 78 | 1020.0 |
| 20260906161504 | 75 | 138 | 4.3 | 10.4 | 0.00 | 0.00 | 0.00 | 78 | 1020.0 |
| 20260906161404 | 75 | 143 | 5.2 | 13.9 | 0.00 | 0.00 | 0.00 | 78 | 1020.0 |
| 20260906161304 | 75 | 155 | 5.2 | 13.9 | 0.00 | 0.00 | 0.00 | 78 | 1020.0 |
| 20260906161205 | 75 | 152 | 5.2 | 13.9 | 0.00 | 0.00 | 0.00 | 78 | 1020.0 |
| 20260906161104 | 75 | 152 | 5.2 | 13.9 | 0.00 | 0.00 | 0.00 | 77 | 1020.0 |
| 20260906161018 | 75 | 157 | 5.2 | 13.9 | 0.00 | 0.00 | 0.00 | 78 | 1019.9 |
| 20260906160918 | 75 | 166 | 5.2 | 13.9 | 0.00 | 0.00 | 0.00 | 78 | 1019.9 |
| 20260906160804 | 75 | 171 | 5.2 | 13.9 | 0.00 | 0.00 | 0.00 | 78 | 1019.9 |
| 20260906160718 | 74 | 177 | 5.2 | 13.9 | 0.00 | 0.00 | 0.00 | 79 | 1020.0 |
| 20260906160618 | 74 | 175 | 5.2 | 13.9 | 0.00 | 0.00 | 0.00 | 79 | 1019.9 |
| 20260906160504 | 74 | 173 | 5.2 | 13.9 | 0.00 | 0.00 | 0.00 | 79 | 1019.9 |
| 20260906160404 | 74 | 174 | 4.3 | 13.9 | 0.00 | 0.00 | 0.00 | 80 | 1019.9 |
| 20260906160318 | 74 | 171 | 4.3 | 8.7 | 0.00 | 0.00 | 0.00 | 80 | 1019.9 |
| 20260906160204 | 74 | 174 | 4.3 | 8.7 | 0.00 | 0.00 | 0.00 | 80 | 1019.9 |
| 20260906160104 | 74 | 166 | 4.3 | 8.7 | 0.00 | 0.00 | 0.00 | 79 | 1019.9 |
| 20260906160004 | 74 | 163 | 5.2 | 9.6 | 0.00 | 0.00 | 0.00 | 79 | 1019.9 |
| 20260906155904 | 74 | 152 | 5.2 | 9.6 | 0.00 | 0.00 | 0.00 | 79 | 1019.9 |
| 20260906155804 | 74 | 146 | 6.1 | 11.3 | 0.00 | 0.00 | 0.00 | 80 | 1019.9 |
| 20260906155719 | 74 | 144 | 6.1 | 11.3 | 0.00 | 0.00 | 0.00 | 80 | 1020.0 |
| 20260906155604 | 74 | 144 | 6.1 | 11.3 | 0.00 | 0.00 | 0.00 | 80 | 1020.0 |
| 20260906155504 | 74 | 147 | 6.1 | 11.3 | 0.00 | 0.00 | 0.00 | 80 | 1020.0 |
| 20260906155404 | 74 | 141 | 6.1 | 11.3 | 0.00 | 0.00 | 0.00 | 80 | 1020.0 |
| 20260906155306 | 74 | 137 | 6.1 | 11.3 | 0.00 | 0.00 | 0.00 | 80 | 1020.0 |
| 20260906155218 | 74 | 141 | 7.0 | 12.2 | 0.00 | 0.00 | 0.00 | 80 | 1020.0 |
| 20260906155104 | 74 | 147 | 7.0 | 12.2 | 0.00 | 0.00 | 0.00 | 80 | 1020.0 |
| 20260906155018 | 74 | 149 | 7.0 | 12.2 | 0.00 | 0.00 | 0.00 | 80 | 1020.0 |
| 20260906154904 | 74 | 158 | 7.0 | 12.2 | 0.00 | 0.00 | 0.00 | 80 | 1020.0 |
| 20260906154804 | 74 | 158 | 7.0 | 12.2 | 0.00 | 0.00 | 0.00 | 81 | 1019.9 |
| 20260906154704 | 73 | 154 | 7.0 | 12.2 | 0.00 | 0.00 | 0.00 | 81 | 1019.9 |
| 20260906154618 | 73 | 154 | 7.0 | 12.2 | 0.00 | 0.00 | 0.00 | 81 | 1019.9 |
| 20260906154518 | 73 | 156 | 7.0 | 12.2 | 0.00 | 0.00 | 0.00 | 81 | 1019.9 |
| 20260906154404 | 73 | 162 | 7.0 | 12.2 | 0.00 | 0.00 | 0.00 | 80 | 1019.9 |
| 20260906154304 | 73 | 162 | 7.0 | 12.2 | 0.00 | 0.00 | 0.00 | 80 | 1019.9 |
| 20260906154204 | 73 | 160 | 7.0 | 12.2 | 0.00 | 0.00 | 0.00 | 80 | 1019.9 |
| 20260906154104 | 73 | 160 | 6.1 | 12.2 | 0.00 | 0.00 | 0.00 | 80 | 1019.8 |
| 20260906154018 | 73 | 157 | 6.1 | 12.2 | 0.00 | 0.00 | 0.00 | 80 | 1019.8 |
| 20260906153904 | 73 | 150 | 6.1 | 12.2 | 0.00 | 0.00 | 0.00 | 81 | 1019.8 |
| 20260906153804 | 73 | 147 | 6.1 | 12.2 | 0.00 | 0.00 | 0.00 | 81 | 1019.9 |
| 20260906153704 | 73 | 148 | 6.1 | 12.2 | 0.00 | 0.00 | 0.00 | 81 | 1019.9 |
| 20260906153618 | 73 | 146 | 6.1 | 12.2 | 0.00 | 0.00 | 0.00 | 81 | 1019.9 |
| 20260906153504 | 73 | 148 | 6.1 | 12.2 | 0.00 | 0.00 | 0.00 | 81 | 1019.9 |
| 20260906153404 | 73 | 144 | 6.1 | 12.2 | 0.00 | 0.00 | 0.00 | 81 | 1019.9 |
| 20260906153304 | 73 | 144 | 5.2 | 10.4 | 0.00 | 0.00 | 0.00 | 81 | 1020.0 |
| 20260906153204 | 73 | 143 | 6.1 | 10.4 | 0.00 | 0.00 | 0.00 | 81 | 1020.0 |
| 20260906153104 | 73 | 145 | 6.1 | 10.4 | 0.00 | 0.00 | 0.00 | 82 | 1020.0 |
| 20260906153004 | 73 | 146 | 6.1 | 10.4 | 0.00 | 0.00 | 0.00 | 82 | 1020.0 |
| 20260906152904 | 73 | 152 | 6.1 | 10.4 | 0.00 | 0.00 | 0.00 | 82 | 1020.1 |
| 20260906152818 | 73 | 154 | 6.1 | 10.4 | 0.00 | 0.00 | 0.00 | 82 | 1020.1 |
| 20260906152704 | 72 | 153 | 6.1 | 10.4 | 0.00 | 0.00 | 0.00 | 82 | 1020.1 |
| 20260906152604 | 72 | 155 | 6.1 | 10.4 | 0.00 | 0.00 | 0.00 | 82 | 1020.2 |
| 20260906152504 | 72 | 155 | 6.1 | 10.4 | 0.00 | 0.00 | 0.00 | 82 | 1020.2 |
| 20260906152404 | 72 | 151 | 6.1 | 10.4 | 0.00 | 0.00 | 0.00 | 82 | 1020.2 |
| 20260906152318 | 72 | 152 | 6.1 | 10.4 | 0.00 | 0.00 | 0.00 | 82 | 1020.3 |
| 20260906152218 | 72 | 148 | 7.0 | 12.2 | 0.00 | 0.00 | 0.00 | 82 | 1020.3 |
| 20260906152105 | 72 | 142 | 7.8 | 12.2 | 0.00 | 0.00 | 0.00 | 82 | 1020.3 |
| 20260906152004 | 72 | 143 | 7.8 | 12.2 | 0.00 | 0.00 | 0.00 | 82 | 1020.3 |
| 20260906151918 | 72 | 141 | 7.8 | 12.2 | 0.00 | 0.00 | 0.00 | 82 | 1020.3 |
| 20260906151804 | 72 | 145 | 7.8 | 12.2 | 0.00 | 0.00 | 0.00 | 82 | 1020.3 |
| 20260906151705 | 72 | 149 | 7.8 | 12.2 | 0.00 | 0.00 | 0.00 | 83 | 1020.3 |
| 20260906151604 | 72 | 149 | 7.8 | 12.2 | 0.00 | 0.00 | 0.00 | 83 | 1020.3 |
| 20260906151504 | 72 | 149 | 7.8 | 12.2 | 0.00 | 0.00 | 0.00 | 83 | 1020.4 |
| 20260906151418 | 72 | 154 | 7.8 | 12.2 | 0.00 | 0.00 | 0.00 | 83 | 1020.3 |
| 20260906151304 | 72 | 155 | 7.8 | 12.2 | 0.00 | 0.00 | 0.00 | 83 | 1020.2 |
| 20260906151204 | 72 | 158 | 7.0 | 12.2 | 0.00 | 0.00 | 0.00 | 83 | 1020.2 |
| 20260906151104 | 72 | 161 | 6.1 | 12.2 | 0.00 | 0.00 | 0.00 | 84 | 1020.2 |
| 20260906151004 | 72 | 160 | 5.2 | 10.4 | 0.00 | 0.00 | 0.00 | 84 | 1020.2 |
| 20260906150904 | 72 | 157 | 6.1 | 12.2 | 0.00 | 0.00 | 0.00 | 84 | 1020.1 |
| 20260906150804 | 72 | 151 | 6.1 | 12.2 | 0.00 | 0.00 | 0.00 | 84 | 1020.0 |
| 20260906150704 | 72 | 151 | 6.1 | 12.2 | 0.00 | 0.00 | 0.00 | 84 | 1020.0 |
| 20260906150604 | 72 | 148 | 6.1 | 12.2 | 0.00 | 0.00 | 0.00 | 85 | 1020.0 |
| 20260906150504 | 71 | 147 | 6.1 | 12.2 | 0.00 | 0.00 | 0.00 | 85 | 1020.0 |
| 20260906150404 | 71 | 147 | 6.1 | 12.2 | 0.00 | 0.00 | 0.00 | 85 | 1020.0 |
| 20260906150304 | 71 | 145 | 6.1 | 12.2 | 0.00 | 0.00 | 0.00 | 85 | 1020.0 |
| 20260906150204 | 71 | 149 | 6.1 | 12.2 | 0.00 | 0.00 | 0.00 | 85 | 1020.0 |
| 20260906150104 | 71 | 150 | 6.1 | 12.2 | 0.00 | 0.00 | 0.00 | 85 | 1020.0 |
| 20260906150004 | 71 | 151 | 6.1 | 12.2 | 0.00 | 0.00 | 0.00 | 85 | 1020.0 |
| 20260906145904 | 71 | 154 | 6.1 | 12.2 | 0.00 | 0.00 | 0.00 | 85 | 1020.0 |
| 20260906145804 | 71 | 152 | 6.1 | 11.3 | 0.00 | 0.00 | 0.00 | 85 | 1019.9 |
| 20260906145704 | 71 | 154 | 6.1 | 11.3 | 0.00 | 0.00 | 0.00 | 86 | 1019.9 |
| 20260906145604 | 71 | 158 | 6.1 | 11.3 | 0.00 | 0.00 | 0.00 | 86 | 1019.9 |
| 20260906145504 | 71 | 151 | 5.2 | 11.3 | 0.00 | 0.00 | 0.00 | 86 | 1019.9 |
| 20260906145404 | 71 | 147 | 5.2 | 11.3 | 0.00 | 0.00 | 0.00 | 86 | 1019.9 |
| 20260906145306 | 71 | 151 | 5.2 | 10.4 | 0.00 | 0.00 | 0.00 | 86 | 1020.0 |
| 20260906145204 | 71 | 146 | 5.2 | 10.4 | 0.00 | 0.00 | 0.00 | 86 | 1020.0 |
| 20260906145104 | 71 | 149 | 5.2 | 10.4 | 0.00 | 0.00 | 0.00 | 86 | 1019.9 |
| 20260906145004 | 71 | 153 | 5.2 | 10.4 | 0.00 | 0.00 | 0.00 | 86 | 1019.9 |
| 20260906144904 | 71 | 153 | 4.3 | 10.4 | 0.00 | 0.00 | 0.00 | 87 | 1019.9 |
| 20260906144818 | 71 | 155 | 4.3 | 9.6 | 0.00 | 0.00 | 0.00 | 87 | 1019.9 |
| 20260906144704 | 70 | 155 | 4.3 | 9.6 | 0.00 | 0.00 | 0.00 | 87 | 1019.9 |
| 20260906144604 | 70 | 156 | 4.3 | 9.6 | 0.00 | 0.00 | 0.00 | 87 | 1019.9 |
| 20260906144518 | 70 | 163 | 4.3 | 9.6 | 0.00 | 0.00 | 0.00 | 87 | 1020.0 |
| 20260906144404 | 70 | 164 | 4.3 | 9.6 | 0.00 | 0.00 | 0.00 | 87 | 1019.9 |
| 20260906144318 | 70 | 161 | 4.3 | 9.6 | 0.00 | 0.00 | 0.00 | 87 | 1019.9 |
| 20260906144204 | 70 | 165 | 3.5 | 6.1 | 0.00 | 0.00 | 0.00 | 87 | 1019.9 |
| 20260906144104 | 70 | 166 | 4.3 | 6.1 | 0.00 | 0.00 | 0.00 | 88 | 1019.9 |
| 20260906144004 | 70 | 157 | 5.2 | 10.4 | 0.00 | 0.00 | 0.00 | 88 | 1019.9 |
| 20260906143904 | 70 | 156 | 5.2 | 10.4 | 0.00 | 0.00 | 0.00 | 87 | 1019.9 |
| 20260906143818 | 70 | 157 | 5.2 | 10.4 | 0.00 | 0.00 | 0.00 | 87 | 1019.9 |
| 20260906143718 | 70 | 153 | 5.2 | 10.4 | 0.00 | 0.00 | 0.00 | 88 | 1019.9 |
| 20260906143618 | 70 | 148 | 5.2 | 10.4 | 0.00 | 0.00 | 0.00 | 88 | 1019.9 |
| 20260906143504 | 70 | 148 | 5.2 | 10.4 | 0.00 | 0.00 | 0.00 | 88 | 1020.0 |
| 20260906143405 | 70 | 151 | 5.2 | 10.4 | 0.00 | 0.00 | 0.00 | 88 | 1019.9 |
| 20260906143304 | 70 | 146 | 5.2 | 10.4 | 0.00 | 0.00 | 0.00 | 88 | 1019.9 |
| 20260906143204 | 70 | 142 | 5.2 | 10.4 | 0.00 | 0.00 | 0.00 | 88 | 1019.9 |
| 20260906143104 | 70 | 139 | 5.2 | 10.4 | 0.00 | 0.00 | 0.00 | 88 | 1019.9 |
| 20260906143004 | 70 | 142 | 5.2 | 10.4 | 0.00 | 0.00 | 0.00 | 89 | 1019.8 |
| 20260906142905 | 70 | 139 | 5.2 | 8.7 | 0.00 | 0.00 | 0.00 | 89 | 1019.8 |
| 20260906142804 | 70 | 138 | 5.2 | 8.7 | 0.00 | 0.00 | 0.00 | 89 | 1019.8 |
| 20260906142704 | 70 | 136 | 5.2 | 8.7 | 0.00 | 0.00 | 0.00 | 89 | 1019.8 |
| 20260906142618 | 70 | 136 | 5.2 | 8.7 | 0.00 | 0.00 | 0.00 | 89 | 1019.8 |
| 20260906142504 | 70 | 139 | 4.3 | 8.7 | 0.00 | 0.00 | 0.00 | 89 | 1019.9 |
| 20260906142404 | 70 | 136 | 4.3 | 8.7 | 0.00 | 0.00 | 0.00 | 89 | 1019.9 |
| 20260906142306 | 70 | 139 | 4.3 | 8.7 | 0.00 | 0.00 | 0.00 | 89 | 1019.9 |
| 20260906142204 | 70 | 140 | 4.3 | 8.7 | 0.00 | 0.00 | 0.00 | 90 | 1019.9 |
| 20260906142104 | 70 | 143 | 4.3 | 8.7 | 0.00 | 0.00 | 0.00 | 90 | 1019.9 |
| 20260906142019 | 70 | 139 | 3.5 | 8.7 | 0.00 | 0.00 | 0.00 | 90 | 1019.9 |
| 20260906141918 | 70 | 137 | 3.5 | 7.0 | 0.00 | 0.00 | 0.00 | 91 | 1019.9 |
| 20260906141804 | 70 | 134 | 3.5 | 7.0 | 0.00 | 0.00 | 0.00 | 91 | 1019.9 |
| 20260906141704 | 70 | 138 | 3.5 | 7.0 | 0.00 | 0.00 | 0.00 | 91 | 1019.9 |
| 20260906141604 | 69 | 138 | 4.3 | 7.0 | 0.00 | 0.00 | 0.00 | 92 | 1019.9 |
| 20260906141504 | 69 | 134 | 4.3 | 7.0 | 0.00 | 0.00 | 0.00 | 92 | 1019.9 |
| 20260906141404 | 69 | 139 | 4.3 | 7.0 | 0.00 | 0.00 | 0.00 | 92 | 1019.9 |
| 20260906141304 | 69 | 144 | 4.3 | 7.0 | 0.00 | 0.00 | 0.00 | 92 | 1019.8 |
| 20260906141204 | 69 | 147 | 4.3 | 7.0 | 0.00 | 0.00 | 0.00 | 92 | 1019.9 |
| 20260906141104 | 69 | 146 | 4.3 | 7.0 | 0.00 | 0.00 | 0.00 | 92 | 1019.9 |
| 20260906141004 | 69 | 151 | 3.5 | 6.1 | 0.00 | 0.00 | 0.00 | 92 | 1019.9 |
| 20260906140918 | 69 | 150 | 3.5 | 6.1 | 0.00 | 0.00 | 0.00 | 92 | 1019.8 |
| 20260906140818 | 69 | 151 | 4.3 | 7.8 | 0.00 | 0.00 | 0.00 | 92 | 1019.9 |
| 20260906140704 | 69 | 150 | 4.3 | 7.8 | 0.00 | 0.00 | 0.00 | 92 | 1019.9 |
| 20260906140605 | 69 | 149 | 4.3 | 7.8 | 0.00 | 0.00 | 0.00 | 92 | 1019.9 |
| 20260906140504 | 69 | 153 | 4.3 | 7.8 | 0.00 | 0.00 | 0.00 | 92 | 1019.9 |
| 20260906140404 | 69 | 150 | 4.3 | 7.8 | 0.00 | 0.00 | 0.00 | 92 | 1019.9 |
| 20260906140304 | 69 | 147 | 4.3 | 7.8 | 0.00 | 0.00 | 0.00 | 93 | 1019.9 |
| 20260906140218 | 69 | 141 | 5.2 | 7.8 | 0.00 | 0.00 | 0.00 | 93 | 1019.8 |
| 20260906140118 | 69 | 140 | 5.2 | 7.8 | 0.00 | 0.00 | 0.00 | 93 | 1019.9 |
| 20260906140005 | 68 | 139 | 5.2 | 7.8 | 0.00 | 0.00 | 0.00 | 93 | 1019.9 |
| 20260906135918 | 68 | 141 | 5.2 | 7.8 | 0.00 | 0.00 | 0.00 | 93 | 1019.8 |
| 20260906135804 | 68 | 144 | 4.3 | 7.8 | 0.00 | 0.00 | 0.00 | 93 | 1019.8 |
| 20260906135704 | 68 | 146 | 5.2 | 8.7 | 0.00 | 0.00 | 0.00 | 93 | 1019.8 |
| 20260906135604 | 68 | 147 | 5.2 | 9.6 | 0.00 | 0.00 | 0.00 | 93 | 1019.7 |
| 20260906135504 | 68 | 147 | 5.2 | 9.6 | 0.00 | 0.00 | 0.00 | 93 | 1019.8 |
| 20260906135404 | 68 | 142 | 5.2 | 9.6 | 0.00 | 0.00 | 0.00 | 93 | 1019.8 |
| 20260906135318 | 68 | 141 | 5.2 | 9.6 | 0.00 | 0.00 | 0.00 | 93 | 1019.7 |
| 20260906135204 | 68 | 144 | 5.2 | 9.6 | 0.00 | 0.00 | 0.00 | 93 | 1019.8 |
| 20260906135104 | 68 | 143 | 5.2 | 9.6 | 0.00 | 0.00 | 0.00 | 93 | 1019.8 |
| 20260906135004 | 68 | 141 | 5.2 | 9.6 | 0.00 | 0.00 | 0.00 | 93 | 1019.8 |
| 20260906134904 | 68 | 142 | 5.2 | 9.6 | 0.00 | 0.00 | 0.00 | 93 | 1019.8 |
| 20260906134818 | 68 | 139 | 5.2 | 9.6 | 0.00 | 0.00 | 0.00 | 93 | 1019.7 |
| 20260906134704 | 68 | 139 | 5.2 | 9.6 | 0.00 | 0.00 | 0.00 | 93 | 1019.8 |
| 20260906134604 | 68 | 139 | 4.3 | 9.6 | 0.00 | 0.00 | 0.00 | 93 | 1019.7 |
| 20260906134518 | 68 | 136 | 5.2 | 8.7 | 0.00 | 0.00 | 0.00 | 93 | 1019.7 |
| 20260906134418 | 68 | 140 | 4.3 | 8.7 | 0.00 | 0.00 | 0.00 | 93 | 1019.7 |
| 20260906134304 | 68 | 144 | 4.3 | 8.7 | 0.00 | 0.00 | 0.00 | 93 | 1019.7 |
| 20260906134218 | 68 | 146 | 4.3 | 8.7 | 0.00 | 0.00 | 0.00 | 93 | 1019.7 |
| 20260906134104 | 68 | 146 | 4.3 | 8.7 | 0.00 | 0.00 | 0.00 | 93 | 1019.7 |
| 20260906134004 | 68 | 146 | 5.2 | 8.7 | 0.00 | 0.00 | 0.00 | 93 | 1019.7 |
| 20260906133918 | 68 | 142 | 5.2 | 8.7 | 0.00 | 0.00 | 0.00 | 93 | 1019.7 |
| 20260906133804 | 68 | 145 | 5.2 | 8.7 | 0.00 | 0.00 | 0.00 | 93 | 1019.8 |
| 20260906133718 | 68 | 143 | 5.2 | 8.7 | 0.00 | 0.00 | 0.00 | 93 | 1019.8 |
| 20260906133618 | 68 | 141 | 5.2 | 8.7 | 0.00 | 0.00 | 0.00 | 93 | 1019.8 |
| 20260906133504 | 68 | 142 | 4.3 | 7.8 | 0.00 | 0.00 | 0.00 | 94 | 1019.8 |
| 20260906133404 | 68 | 140 | 4.3 | 7.8 | 0.00 | 0.00 | 0.00 | 93 | 1019.7 |
| 20260906133304 | 68 | 136 | 4.3 | 7.8 | 0.00 | 0.00 | 0.00 | 93 | 1019.8 |
| 20260906133204 | 68 | 135 | 4.3 | 7.8 | 0.00 | 0.00 | 0.00 | 93 | 1019.7 |
| 20260906133104 | 68 | 138 | 4.3 | 7.8 | 0.00 | 0.00 | 0.00 | 93 | 1019.7 |
| 20260906133004 | 68 | 141 | 4.3 | 7.8 | 0.00 | 0.00 | 0.00 | 93 | 1019.7 |
| 20260906132904 | 68 | 151 | 4.3 | 7.8 | 0.00 | 0.00 | 0.00 | 94 | 1019.7 |
| 20260906132804 | 68 | 144 | 3.5 | 7.8 | 0.00 | 0.00 | 0.00 | 94 | 1019.6 |
| 20260906132704 | 68 | 148 | 3.5 | 7.8 | 0.00 | 0.00 | 0.00 | 94 | 1019.6 |
| 20260906132618 | 68 | 149 | 3.5 | 6.1 | 0.00 | 0.00 | 0.00 | 94 | 1019.6 |
| 20260906132504 | 68 | 147 | 3.5 | 6.1 | 0.00 | 0.00 | 0.00 | 94 | 1019.6 |
| 20260906132404 | 68 | 150 | 3.5 | 6.1 | 0.00 | 0.00 | 0.00 | 94 | 1019.6 |
| 20260906132306 | 68 | 149 | 2.6 | 6.1 | 0.00 | 0.00 | 0.00 | 94 | 1019.5 |
| 20260906132218 | 68 | 149 | 2.6 | 6.1 | 0.00 | 0.00 | 0.00 | 94 | 1019.6 |
| 20260906132104 | 68 | 146 | 2.6 | 6.1 | 0.00 | 0.00 | 0.00 | 94 | 1019.5 |
| 20260906132004 | 68 | 144 | 2.6 | 6.1 | 0.00 | 0.00 | 0.00 | 94 | 1019.5 |
| 20260906131904 | 68 | 138 | 2.6 | 7.8 | 0.00 | 0.00 | 0.00 | 94 | 1019.5 |
| 20260906131804 | 68 | 145 | 2.6 | 7.8 | 0.00 | 0.00 | 0.00 | 94 | 1019.5 |
| 20260906131718 | 68 | 143 | 2.6 | 7.8 | 0.00 | 0.00 | 0.00 | 94 | 1019.6 |
| 20260906131604 | 68 | 151 | 2.6 | 7.8 | 0.00 | 0.00 | 0.00 | 94 | 1019.6 |
| 20260906131518 | 68 | 151 | 2.6 | 7.8 | 0.00 | 0.00 | 0.00 | 94 | 1019.5 |
| 20260906131404 | 68 | 149 | 2.6 | 7.8 | 0.00 | 0.00 | 0.00 | 94 | 1019.5 |
| 20260906131304 | 68 | 152 | 2.6 | 7.8 | 0.00 | 0.00 | 0.00 | 94 | 1019.6 |
| 20260906131204 | 68 | 156 | 3.5 | 7.8 | 0.00 | 0.00 | 0.00 | 94 | 1019.6 |
| 20260906131104 | 68 | 155 | 3.5 | 7.8 | 0.00 | 0.00 | 0.00 | 94 | 1019.5 |
| 20260906131004 | 68 | 155 | 3.5 | 7.8 | 0.00 | 0.00 | 0.00 | 94 | 1019.6 |
| 20260906130904 | 68 | 155 | 2.6 | 7.8 | 0.00 | 0.00 | 0.00 | 94 | 1019.6 |
| 20260906130804 | 68 | 155 | 3.5 | 10.4 | 0.00 | 0.00 | 0.00 | 94 | 1019.5 |
| 20260906130704 | 68 | 150 | 4.3 | 10.4 | 0.00 | 0.00 | 0.00 | 94 | 1019.5 |
| 20260906130604 | 68 | 147 | 4.3 | 10.4 | 0.00 | 0.00 | 0.00 | 94 | 1019.5 |
| 20260906130518 | 68 | 148 | 4.3 | 10.4 | 0.00 | 0.00 | 0.00 | 94 | 1019.5 |
| 20260906130418 | 68 | 148 | 4.3 | 10.4 | 0.00 | 0.00 | 0.00 | 94 | 1019.6 |
| 20260906130304 | 68 | 144 | 5.2 | 10.4 | 0.00 | 0.00 | 0.00 | 94 | 1019.6 |
| 20260906130204 | 68 | 137 | 5.2 | 10.4 | 0.00 | 0.00 | 0.00 | 94 | 1019.5 |
| 20260906130104 | 68 | 141 | 5.2 | 10.4 | 0.00 | 0.00 | 0.00 | 94 | 1019.5 |
| 20260906130004 | 68 | 141 | 5.2 | 10.4 | 0.00 | 0.00 | 0.00 | 94 | 1019.5 |
| 20260906125904 | 68 | 143 | 6.1 | 10.4 | 0.00 | 0.00 | 0.00 | 94 | 1019.6 |
| 20260906125804 | 68 | 140 | 5.2 | 10.4 | 0.00 | 0.00 | 0.00 | 94 | 1019.5 |
| 20260906125704 | 68 | 142 | 5.2 | 7.8 | 0.00 | 0.00 | 0.00 | 94 | 1019.5 |
| 20260906125604 | 68 | 141 | 5.2 | 7.8 | 0.00 | 0.00 | 0.00 | 94 | 1019.5 |
| 20260906125504 | 68 | 141 | 5.2 | 7.8 | 0.00 | 0.00 | 0.00 | 94 | 1019.5 |
| 20260906125404 | 68 | 142 | 4.3 | 7.8 | 0.00 | 0.00 | 0.00 | 94 | 1019.4 |
| 20260906125306 | 68 | 143 | 4.3 | 7.8 | 0.00 | 0.00 | 0.00 | 94 | 1019.4 |
| 20260906125218 | 68 | 145 | 4.3 | 7.8 | 0.00 | 0.00 | 0.00 | 94 | 1019.4 |
| 20260906125104 | 68 | 140 | 4.3 | 7.8 | 0.00 | 0.00 | 0.00 | 94 | 1019.4 |
| 20260906125004 | 68 | 135 | 3.5 | 7.0 | 0.00 | 0.00 | 0.00 | 94 | 1019.4 |
| 20260906124904 | 68 | 130 | 3.5 | 7.0 | 0.00 | 0.00 | 0.00 | 94 | 1019.3 |
| 20260906124818 | 68 | 131 | 3.5 | 7.0 | 0.00 | 0.00 | 0.00 | 94 | 1019.3 |
| 20260906124704 | 68 | 127 | 3.5 | 7.0 | 0.00 | 0.00 | 0.00 | 94 | 1019.4 |
| 20260906124604 | 68 | 125 | 2.6 | 6.1 | 0.00 | 0.00 | 0.00 | 94 | 1019.4 |
| 20260906124504 | 68 | 128 | 2.6 | 6.1 | 0.00 | 0.00 | 0.00 | 94 | 1019.4 |
| 20260906124404 | 68 | 125 | 2.6 | 6.1 | 0.00 | 0.00 | 0.00 | 94 | 1019.4 |
| 20260906124304 | 67 | 125 | 2.6 | 6.1 | 0.00 | 0.00 | 0.00 | 94 | 1019.4 |
| 20260906124204 | 67 | 124 | 2.6 | 6.1 | 0.00 | 0.00 | 0.00 | 94 | 1019.4 |
| 20260906124104 | 67 | 128 | 2.6 | 3.5 | 0.00 | 0.00 | 0.00 | 94 | 1019.4 |
| 20260906124004 | 67 | 136 | 1.7 | 3.5 | 0.00 | 0.00 | 0.00 | 94 | 1019.4 |
| 20260906123904 | 67 | 139 | 1.7 | 3.5 | 0.00 | 0.00 | 0.00 | 95 | 1019.4 |
| 20260906123804 | 67 | 141 | 1.7 | 3.5 | 0.00 | 0.00 | 0.00 | 95 | 1019.4 |
| 20260906123704 | 67 | 166 | 1.7 | 3.5 | 0.00 | 0.00 | 0.00 | 95 | 1019.4 |
| 20260906123604 | 67 | 163 | 0.9 | 3.5 | 0.00 | 0.00 | 0.00 | 95 | 1019.4 |
| 20260906123504 | 68 | 127 | 0.9 | 2.6 | 0.00 | 0.00 | 0.00 | 93 | 1019.4 |
| 20260906123404 | 68 | 127 | 0.9 | 2.6 | 0.00 | 0.00 | 0.00 | 93 | 1019.4 |
| 20260906123305 | 68 | 127 | 0.9 | 2.6 | 0.00 | 0.00 | 0.00 | 93 | 1019.4 |
| 20260906123204 | 68 | 127 | 0.9 | 2.6 | 0.00 | 0.00 | 0.00 | 93 | 1019.4 |
| 20260906123104 | 68 | 127 | 0.9 | 2.6 | 0.00 | 0.00 | 0.00 | 93 | 1019.4 |
| 20260906123004 | 68 | 127 | 0.9 | 2.6 | 0.00 | 0.00 | 0.00 | 93 | 1019.4 |
| 20260906122904 | 68 | 127 | 0.9 | 2.6 | 0.00 | 0.00 | 0.00 | 93 | 1019.4 |
| 20260906122804 | 68 | 127 | 0.9 | 2.6 | 0.00 | 0.00 | 0.00 | 93 | 1019.4 |
| 20260906122718 | 68 | 127 | 0.9 | 2.6 | 0.00 | 0.00 | 0.00 | 93 | 1019.4 |
| 20260906122604 | 68 | 127 | 0.9 | 2.6 | 0.00 | 0.00 | 0.00 | 93 | 1019.4 |
| 20260906122504 | 68 | 127 | 0.9 | 2.6 | 0.00 | 0.00 | 0.00 | 93 | 1019.3 |
| 20260906122404 | 68 | 127 | 0.9 | 2.6 | 0.00 | 0.00 | 0.00 | 93 | 1019.3 |
| 20260906122306 | 68 | 127 | 0.9 | 2.6 | 0.00 | 0.00 | 0.00 | 93 | 1019.4 |
| 20260906122204 | 68 | 127 | 0.9 | 2.6 | 0.00 | 0.00 | 0.00 | 93 | 1019.3 |
| 20260906122118 | 68 | 127 | 0.9 | 2.6 | 0.00 | 0.00 | 0.00 | 93 | 1019.3 |
| 20260906122004 | 68 | 127 | 0.9 | 2.6 | 0.00 | 0.00 | 0.00 | 93 | 1019.3 |
| 20260906121904 | 68 | 127 | 0.9 | 2.6 | 0.00 | 0.00 | 0.00 | 93 | 1019.4 |
| 20260906121818 | 68 | 127 | 0.9 | 2.6 | 0.00 | 0.00 | 0.00 | 93 | 1019.3 |
| 20260906121704 | 68 | 127 | 0.9 | 2.6 | 0.00 | 0.00 | 0.00 | 93 | 1019.3 |
| 20260906121605 | 68 | 127 | 0.9 | 2.6 | 0.00 | 0.00 | 0.00 | 93 | 1019.3 |
| 20260906121504 | 68 | 127 | 0.9 | 2.6 | 0.00 | 0.00 | 0.00 | 93 | 1019.3 |
| 20260906121404 | 68 | 127 | 0.9 | 2.6 | 0.00 | 0.00 | 0.00 | 93 | 1019.3 |
| 20260906121318 | 68 | 127 | 0.9 | 2.6 | 0.00 | 0.00 | 0.00 | 93 | 1019.3 |
| 20260906121204 | 68 | 127 | 0.9 | 2.6 | 0.00 | 0.00 | 0.00 | 93 | 1019.3 |
| 20260906121104 | 68 | 127 | 0.9 | 2.6 | 0.00 | 0.00 | 0.00 | 93 | 1019.3 |
| 20260906121004 | 68 | 127 | 0.9 | 2.6 | 0.00 | 0.00 | 0.00 | 93 | 1019.2 |
| 20260906120918 | 68 | 127 | 0.9 | 2.6 | 0.00 | 0.00 | 0.00 | 93 | 1019.2 |
| 20260906120804 | 68 | 127 | 0.9 | 2.6 | 0.00 | 0.00 | 0.00 | 93 | 1019.2 |
| 20260906120704 | 68 | 127 | 0.9 | 2.6 | 0.00 | 0.00 | 0.00 | 93 | 1019.2 |
| 20260906120604 | 68 | 127 | 0.9 | 2.6 | 0.00 | 0.00 | 0.00 | 93 | 1019.2 |
| 20260906120504 | 68 | 127 | 0.9 | 2.6 | 0.00 | 0.00 | 0.00 | 93 | 1019.1 |
| 20260906120404 | 68 | 127 | 0.9 | 2.6 | 0.00 | 0.00 | 0.00 | 93 | 1019.1 |
| 20260906120304 | 68 | 127 | 0.9 | 2.6 | 0.00 | 0.00 | 0.00 | 93 | 1019.1 |
| 20260906120204 | 68 | 127 | 0.9 | 2.6 | 0.00 | 0.00 | 0.00 | 93 | 1019.1 |
| 20260906120104 | 68 | 127 | 0.9 | 2.6 | 0.00 | 0.00 | 0.00 | 93 | 1019.1 |
| 20260906120004 | 68 | 127 | 0.9 | 2.6 | 0.00 | 0.00 | 0.00 | 93 | 1019.1 |
| 20260906115904 | 68 | 127 | 0.9 | 2.6 | 0.00 | 0.00 | 0.00 | 93 | 1019.0 |
| 20260906115804 | 68 | 127 | 0.9 | 2.6 | 0.00 | 0.00 | 0.00 | 93 | 1019.1 |
| 20260906115704 | 68 | 127 | 0.9 | 2.6 | 0.00 | 0.00 | 0.00 | 93 | 1019.1 |
| 20260906115619 | 68 | 127 | 0.9 | 2.6 | 0.00 | 0.00 | 0.00 | 93 | 1019.0 |
| 20260906115504 | 68 | 127 | 0.9 | 2.6 | 0.00 | 0.00 | 0.00 | 93 | 1019.1 |
| 20260906115404 | 68 | 127 | 0.9 | 2.6 | 0.00 | 0.00 | 0.00 | 93 | 1019.1 |
| 20260906115306 | 68 | 127 | 0.9 | 2.6 | 0.00 | 0.00 | 0.00 | 93 | 1019.2 |
| 20260906115218 | 68 | 127 | 0.9 | 2.6 | 0.00 | 0.00 | 0.00 | 93 | 1019.2 |
| 20260906115104 | 68 | 127 | 0.9 | 2.6 | 0.00 | 0.00 | 0.00 | 93 | 1019.2 |
| 20260906115018 | 68 | 127 | 0.9 | 2.6 | 0.00 | 0.00 | 0.00 | 93 | 1019.1 |
| 20260906114904 | 68 | 127 | 0.9 | 2.6 | 0.00 | 0.00 | 0.00 | 93 | 1019.1 |
| 20260906114804 | 68 | 127 | 0.9 | 2.6 | 0.00 | 0.00 | 0.00 | 93 | 1019.1 |
| 20260906114704 | 68 | 127 | 0.9 | 2.6 | 0.00 | 0.00 | 0.00 | 93 | 1019.1 |
| 20260906114604 | 68 | 127 | 0.9 | 2.6 | 0.00 | 0.00 | 0.00 | 93 | 1019.1 |
| 20260906114504 | 68 | 127 | 0.9 | 2.6 | 0.00 | 0.00 | 0.00 | 93 | 1019.1 |
| 20260906114418 | 68 | 127 | 0.9 | 2.6 | 0.00 | 0.00 | 0.00 | 93 | 1019.1 |
| 20260906114304 | 68 | 127 | 0.9 | 2.6 | 0.00 | 0.00 | 0.00 | 93 | 1019.1 |
| 20260906114204 | 68 | 127 | 0.9 | 2.6 | 0.00 | 0.00 | 0.00 | 93 | 1019.0 |
| 20260906114103 | 68 | 127 | 0.9 | 2.6 | 0.00 | 0.00 | 0.00 | 93 | 1019.0 |
| 20260906114004 | 68 | 127 | 0.9 | 2.6 | 0.00 | 0.00 | 0.00 | 93 | 1019.0 |
| 20260906113904 | 68 | 127 | 0.9 | 2.6 | 0.00 | 0.00 | 0.00 | 93 | 1019.1 |
| 20260906113804 | 68 | 127 | 0.9 | 2.6 | 0.00 | 0.00 | 0.00 | 93 | 1019.1 |
| 20260906113718 | 68 | 127 | 0.9 | 2.6 | 0.00 | 0.00 | 0.00 | 93 | 1019.0 |
| 20260906113604 | 68 | 127 | 0.9 | 2.6 | 0.00 | 0.00 | 0.00 | 93 | 1019.1 |
| 20260906113504 | 68 | 127 | 0.9 | 2.6 | 0.00 | 0.00 | 0.00 | 93 | 1019.1 |
| 20260906113418 | 68 | 127 | 0.9 | 2.6 | 0.00 | 0.00 | 0.00 | 93 | 1019.1 |
| 20260906113318 | 68 | 127 | 0.9 | 2.6 | 0.00 | 0.00 | 0.00 | 93 | 1019.1 |
| 20260906113204 | 68 | 127 | 0.9 | 2.6 | 0.00 | 0.00 | 0.00 | 93 | 1019.1 |
| 20260906113104 | 68 | 127 | 0.9 | 2.6 | 0.00 | 0.00 | 0.00 | 93 | 1019.1 |
| 20260906113004 | 68 | 127 | 0.9 | 2.6 | 0.00 | 0.00 | 0.00 | 93 | 1019.1 |
| 20260906112904 | 68 | 127 | 0.9 | 2.6 | 0.00 | 0.00 | 0.00 | 93 | 1019.0 |
| 20260906112804 | 68 | 127 | 0.9 | 2.6 | 0.00 | 0.00 | 0.00 | 93 | 1019.0 |
| 20260906112704 | 68 | 127 | 0.9 | 2.6 | 0.00 | 0.00 | 0.00 | 93 | 1018.9 |
| 20260906112604 | 68 | 127 | 0.9 | 2.6 | 0.00 | 0.00 | 0.00 | 93 | 1019.0 |
| 20260906112517 | 68 | 127 | 0.9 | 2.6 | 0.00 | 0.00 | 0.00 | 93 | 1018.9 |
| 20260906112418 | 68 | 127 | 0.9 | 2.6 | 0.00 | 0.00 | 0.00 | 93 | 1018.9 |
| 20260906112306 | 68 | 127 | 0.9 | 2.6 | 0.00 | 0.00 | 0.00 | 93 | 1018.9 |
| 20260906112204 | 68 | 127 | 0.9 | 2.6 | 0.00 | 0.00 | 0.00 | 93 | 1018.9 |
| 20260906112104 | 68 | 127 | 0.9 | 2.6 | 0.00 | 0.00 | 0.00 | 93 | 1018.9 |
| 20260906112004 | 68 | 127 | 0.9 | 2.6 | 0.00 | 0.00 | 0.00 | 93 | 1018.9 |
| 20260906111903 | 68 | 127 | 0.9 | 2.6 | 0.00 | 0.00 | 0.00 | 93 | 1018.9 |
| 20260906111804 | 68 | 127 | 0.9 | 2.6 | 0.00 | 0.00 | 0.00 | 93 | 1018.9 |
| 20260906111704 | 68 | 127 | 0.9 | 2.6 | 0.00 | 0.00 | 0.00 | 93 | 1018.8 |
| 20260906111604 | 68 | 127 | 0.9 | 2.6 | 0.00 | 0.00 | 0.00 | 93 | 1018.9 |
| 20260906111504 | 68 | 127 | 0.9 | 2.6 | 0.00 | 0.00 | 0.00 | 93 | 1018.8 |
| 20260906111404 | 68 | 127 | 0.9 | 2.6 | 0.00 | 0.00 | 0.00 | 93 | 1018.7 |
| 20260906111304 | 68 | 127 | 0.9 | 2.6 | 0.00 | 0.00 | 0.00 | 93 | 1018.8 |
| 20260906111204 | 68 | 127 | 0.9 | 2.6 | 0.00 | 0.00 | 0.00 | 93 | 1018.8 |
| 20260906111104 | 68 | 127 | 0.9 | 2.6 | 0.00 | 0.00 | 0.00 | 93 | 1018.8 |
| 20260906111018 | 68 | 127 | 0.9 | 2.6 | 0.00 | 0.00 | 0.00 | 93 | 1018.8 |
| 20260906110904 | 68 | 127 | 0.9 | 2.6 | 0.00 | 0.00 | 0.00 | 93 | 1018.8 |
| 20260906110803 | 68 | 127 | 0.9 | 2.6 | 0.00 | 0.00 | 0.00 | 93 | 1018.8 |
| 20260906110704 | 68 | 127 | 0.9 | 2.6 | 0.00 | 0.00 | 0.00 | 93 | 1018.8 |
| 20260906110605 | 68 | 127 | 0.9 | 2.6 | 0.00 | 0.00 | 0.00 | 93 | 1018.8 |
| 20260906110504 | 68 | 127 | 0.9 | 2.6 | 0.00 | 0.00 | 0.00 | 93 | 1018.8 |
| 20260906110418 | 68 | 127 | 0.9 | 2.6 | 0.00 | 0.00 | 0.00 | 93 | 1018.7 |
| 20260906110304 | 68 | 127 | 0.9 | 2.6 | 0.00 | 0.00 | 0.00 | 93 | 1018.7 |
| 20260906110204 | 68 | 127 | 0.9 | 2.6 | 0.00 | 0.00 | 0.00 | 93 | 1018.8 |
| 20260906110104 | 68 | 127 | 0.9 | 2.6 | 0.00 | 0.00 | 0.00 | 93 | 1018.7 |
| 20260906110018 | 68 | 127 | 0.9 | 2.6 | 0.00 | 0.00 | 0.00 | 93 | 1018.8 |
| 20260906105918 | 68 | 127 | 0.9 | 2.6 | 0.00 | 0.00 | 0.00 | 93 | 1018.7 |
| 20260906105804 | 68 | 127 | 0.9 | 2.6 | 0.00 | 0.00 | 0.00 | 93 | 1018.7 |
| 20260906105718 | 68 | 127 | 0.9 | 2.6 | 0.00 | 0.00 | 0.00 | 93 | 1018.7 |
| 20260906105604 | 68 | 127 | 0.9 | 2.6 | 0.00 | 0.00 | 0.00 | 93 | 1018.7 |
| 20260906105518 | 68 | 127 | 0.9 | 2.6 | 0.00 | 0.00 | 0.00 | 93 | 1018.6 |
| 20260906105404 | 68 | 127 | 0.9 | 2.6 | 0.00 | 0.00 | 0.00 | 93 | 1018.6 |
| 20260906105306 | 68 | 127 | 0.9 | 2.6 | 0.00 | 0.00 | 0.00 | 93 | 1018.6 |
| 20260906105204 | 68 | 127 | 0.9 | 2.6 | 0.00 | 0.00 | 0.00 | 93 | 1018.6 |
| 20260906105118 | 68 | 127 | 0.9 | 2.6 | 0.00 | 0.00 | 0.00 | 93 | 1018.6 |
| 20260906105004 | 68 | 127 | 0.9 | 2.6 | 0.00 | 0.00 | 0.00 | 93 | 1018.5 |
| 20260906104904 | 68 | 127 | 0.9 | 2.6 | 0.00 | 0.00 | 0.00 | 93 | 1018.6 |
| 20260906104804 | 68 | 127 | 0.9 | 2.6 | 0.00 | 0.00 | 0.00 | 93 | 1018.5 |
| 20260906104704 | 68 | 127 | 0.9 | 2.6 | 0.00 | 0.00 | 0.00 | 93 | 1018.6 |
| 20260906104604 | 68 | 127 | 0.9 | 2.6 | 0.00 | 0.00 | 0.00 | 93 | 1018.5 |
| 20260906104518 | 68 | 127 | 0.9 | 2.6 | 0.00 | 0.00 | 0.00 | 93 | 1018.6 |
| 20260906104418 | 68 | 127 | 0.9 | 2.6 | 0.00 | 0.00 | 0.00 | 93 | 1018.6 |
| 20260906104304 | 68 | 127 | 0.9 | 2.6 | 0.00 | 0.00 | 0.00 | 93 | 1018.5 |
| 20260906104204 | 68 | 127 | 0.9 | 2.6 | 0.00 | 0.00 | 0.00 | 93 | 1018.6 |
| 20260906104104 | 68 | 127 | 0.9 | 2.6 | 0.00 | 0.00 | 0.00 | 93 | 1018.5 |
| 20260906104004 | 68 | 127 | 0.9 | 2.6 | 0.00 | 0.00 | 0.00 | 93 | 1018.6 |
| 20260906103904 | 68 | 127 | 0.9 | 2.6 | 0.00 | 0.00 | 0.00 | 93 | 1018.6 |
| 20260906103803 | 68 | 127 | 0.9 | 2.6 | 0.00 | 0.00 | 0.00 | 93 | 1018.6 |
| 20260906103718 | 68 | 127 | 0.9 | 2.6 | 0.00 | 0.00 | 0.00 | 93 | 1018.6 |
| 20260906103604 | 68 | 127 | 0.9 | 2.6 | 0.00 | 0.00 | 0.00 | 93 | 1018.6 |
| 20260906103504 | 68 | 127 | 0.9 | 2.6 | 0.00 | 0.00 | 0.00 | 93 | 1018.6 |
| 20260906103404 | 68 | 127 | 0.9 | 2.6 | 0.00 | 0.00 | 0.00 | 93 | 1018.6 |
| 20260906103304 | 68 | 127 | 0.9 | 2.6 | 0.00 | 0.00 | 0.00 | 93 | 1018.6 |
| 20260906103204 | 68 | 127 | 0.9 | 2.6 | 0.00 | 0.00 | 0.00 | 93 | 1018.7 |
| 20260906103105 | 68 | 127 | 0.9 | 2.6 | 0.00 | 0.00 | 0.00 | 93 | 1018.7 |
| 20260906103004 | 68 | 127 | 0.9 | 2.6 | 0.00 | 0.00 | 0.00 | 93 | 1018.7 |
| 20260906102904 | 68 | 127 | 0.9 | 2.6 | 0.00 | 0.00 | 0.00 | 93 | 1018.7 |
| 20260906102804 | 68 | 127 | 0.9 | 2.6 | 0.00 | 0.00 | 0.00 | 93 | 1018.6 |
| 20260906102704 | 68 | 127 | 0.9 | 2.6 | 0.00 | 0.00 | 0.00 | 93 | 1018.6 |
| 20260906102604 | 68 | 127 | 0.9 | 2.6 | 0.00 | 0.00 | 0.00 | 93 | 1018.6 |
| 20260906102504 | 68 | 127 | 0.9 | 2.6 | 0.00 | 0.00 | 0.00 | 93 | 1018.7 |
| 20260906102418 | 68 | 127 | 0.9 | 2.6 | 0.00 | 0.00 | 0.00 | 93 | 1018.6 |
| 20260906102306 | 68 | 127 | 0.9 | 2.6 | 0.00 | 0.00 | 0.00 | 93 | 1018.6 |
| 20260906102204 | 68 | 127 | 0.9 | 2.6 | 0.00 | 0.00 | 0.00 | 93 | 1018.7 |
| 20260906102118 | 68 | 127 | 0.9 | 2.6 | 0.00 | 0.00 | 0.00 | 93 | 1018.6 |
| 20260906102004 | 68 | 127 | 0.9 | 2.6 | 0.00 | 0.00 | 0.00 | 93 | 1018.6 |
| 20260906101918 | 68 | 127 | 0.9 | 2.6 | 0.00 | 0.00 | 0.00 | 93 | 1018.6 |
| 20260906101804 | 68 | 127 | 0.9 | 2.6 | 0.00 | 0.00 | 0.00 | 93 | 1018.6 |
| 20260906101704 | 68 | 127 | 0.9 | 2.6 | 0.00 | 0.00 | 0.00 | 93 | 1018.6 |
| 20260906101618 | 68 | 127 | 0.9 | 2.6 | 0.00 | 0.00 | 0.00 | 93 | 1018.6 |
| 20260906101504 | 68 | 127 | 0.9 | 2.6 | 0.00 | 0.00 | 0.00 | 93 | 1018.6 |
| 20260906101404 | 68 | 127 | 0.9 | 2.6 | 0.00 | 0.00 | 0.00 | 93 | 1018.5 |
| 20260906101304 | 68 | 127 | 0.9 | 2.6 | 0.00 | 0.00 | 0.00 | 93 | 1018.5 |
| 20260906101218 | 68 | 127 | 0.9 | 2.6 | 0.00 | 0.00 | 0.00 | 93 | 1018.6 |
| 20260906101104 | 68 | 127 | 0.9 | 2.6 | 0.00 | 0.00 | 0.00 | 93 | 1018.5 |
| 20260906101004 | 68 | 127 | 0.9 | 2.6 | 0.00 | 0.00 | 0.00 | 93 | 1018.5 |
| 20260906100918 | 68 | 127 | 0.9 | 2.6 | 0.00 | 0.00 | 0.00 | 93 | 1018.4 |
| 20260906100804 | 68 | 127 | 0.9 | 2.6 | 0.00 | 0.00 | 0.00 | 93 | 1018.4 |
| 20260906100704 | 68 | 128 | 0.9 | 2.6 | 0.00 | 0.00 | 0.00 | 93 | 1018.4 |
| 20260906100618 | 68 | 129 | 0.9 | 2.6 | 0.00 | 0.00 | 0.00 | 93 | 1018.4 |
| 20260906100504 | 68 | 126 | 0.9 | 2.6 | 0.00 | 0.00 | 0.00 | 93 | 1018.4 |
| 20260906100404 | 68 | 132 | 0.9 | 2.6 | 0.00 | 0.00 | 0.00 | 93 | 1018.4 |
| 20260906100304 | 68 | 134 | 0.9 | 2.6 | 0.00 | 0.00 | 0.00 | 93 | 1018.3 |
| 20260906100203 | 68 | 139 | 0.9 | 1.7 | 0.00 | 0.00 | 0.00 | 93 | 1018.4 |
| 20260906100104 | 68 | 137 | 0.9 | 3.5 | 0.00 | 0.00 | 0.00 | 93 | 1018.3 |
| 20260906100004 | 68 | 128 | 1.7 | 3.5 | 0.00 | 0.00 | 0.00 | 93 | 1018.2 |
| 20260906095904 | 68 | 125 | 1.7 | 3.5 | 0.00 | 0.00 | 0.00 | 93 | 1018.2 |
| 20260906095804 | 68 | 121 | 1.7 | 3.5 | 0.00 | 0.00 | 0.00 | 93 | 1018.1 |
| 20260906095704 | 68 | 121 | 1.7 | 3.5 | 0.00 | 0.00 | 0.00 | 93 | 1018.1 |
| 20260906095604 | 68 | 121 | 1.7 | 3.5 | 0.00 | 0.00 | 0.00 | 92 | 1018.1 |
| 20260906095504 | 68 | 121 | 1.7 | 3.5 | 0.00 | 0.00 | 0.00 | 93 | 1018.1 |
| 20260906095404 | 68 | 118 | 1.7 | 3.5 | 0.00 | 0.00 | 0.00 | 93 | 1018.0 |
| 20260906095318 | 68 | 114 | 1.7 | 3.5 | 0.00 | 0.00 | 0.00 | 92 | 1018.0 |
| 20260906095204 | 68 | 114 | 1.7 | 3.5 | 0.00 | 0.00 | 0.00 | 92 | 1018.0 |
| 20260906095118 | 68 | 106 | 1.7 | 3.5 | 0.00 | 0.00 | 0.00 | 92 | 1018.0 |
| 20260906095004 | 68 | 110 | 1.7 | 3.5 | 0.00 | 0.00 | 0.00 | 92 | 1018.0 |
| 20260906094904 | 68 | 111 | 1.7 | 2.6 | 0.00 | 0.00 | 0.00 | 92 | 1017.9 |
| 20260906094804 | 68 | 114 | 1.7 | 2.6 | 0.00 | 0.00 | 0.00 | 92 | 1017.9 |
| 20260906094704 | 68 | 117 | 1.7 | 2.6 | 0.00 | 0.00 | 0.00 | 92 | 1017.9 |
| 20260906094618 | 68 | 115 | 1.7 | 5.2 | 0.00 | 0.00 | 0.00 | 92 | 1017.9 |
| 20260906094504 | 68 | 116 | 1.7 | 5.2 | 0.00 | 0.00 | 0.00 | 92 | 1017.8 |
| 20260906094404 | 68 | 117 | 1.7 | 5.2 | 0.00 | 0.00 | 0.00 | 92 | 1017.8 |
| 20260906094304 | 68 | 122 | 1.7 | 5.2 | 0.00 | 0.00 | 0.00 | 92 | 1017.9 |
| 20260906094204 | 68 | 129 | 1.7 | 5.2 | 0.00 | 0.00 | 0.00 | 92 | 1017.9 |
| 20260906094104 | 68 | 139 | 1.7 | 5.2 | 0.00 | 0.00 | 0.00 | 92 | 1017.9 |
| 20260906094004 | 68 | 142 | 1.7 | 5.2 | 0.00 | 0.00 | 0.00 | 92 | 1017.9 |
| 20260906093904 | 68 | 141 | 1.7 | 5.2 | 0.00 | 0.00 | 0.00 | 92 | 1017.8 |
| 20260906093804 | 68 | 138 | 1.7 | 5.2 | 0.00 | 0.00 | 0.00 | 92 | 1017.8 |
| 20260906093704 | 68 | 139 | 1.7 | 5.2 | 0.00 | 0.00 | 0.00 | 92 | 1017.9 |
| 20260906093604 | 68 | 142 | 1.7 | 5.2 | 0.00 | 0.00 | 0.00 | 92 | 1017.8 |
| 20260906093504 | 68 | 141 | 1.7 | 3.5 | 0.00 | 0.00 | 0.00 | 92 | 1017.8 |
| 20260906093404 | 68 | 141 | 1.7 | 3.5 | 0.00 | 0.00 | 0.00 | 92 | 1017.8 |
| 20260906093304 | 68 | 142 | 1.7 | 3.5 | 0.00 | 0.00 | 0.00 | 92 | 1017.9 |
| 20260906093204 | 68 | 142 | 1.7 | 3.5 | 0.00 | 0.00 | 0.00 | 92 | 1017.8 |
| 20260906093104 | 68 | 142 | 1.7 | 3.5 | 0.00 | 0.00 | 0.00 | 92 | 1017.8 |
| 20260906093004 | 68 | 142 | 1.7 | 3.5 | 0.00 | 0.00 | 0.00 | 92 | 1017.9 |
| 20260906092903 | 68 | 144 | 1.7 | 3.5 | 0.00 | 0.00 | 0.00 | 92 | 1017.8 |
| 20260906092804 | 68 | 149 | 1.7 | 3.5 | 0.00 | 0.00 | 0.00 | 92 | 1017.8 |
| 20260906092704 | 68 | 149 | 1.7 | 3.5 | 0.00 | 0.00 | 0.00 | 92 | 1017.7 |
| 20260906092618 | 68 | 146 | 1.7 | 4.3 | 0.00 | 0.00 | 0.00 | 92 | 1017.7 |
| 20260906092518 | 69 | 147 | 1.7 | 4.3 | 0.00 | 0.00 | 0.00 | 92 | 1017.7 |
| 20260906092403 | 69 | 149 | 1.7 | 4.3 | 0.00 | 0.00 | 0.00 | 92 | 1017.6 |
| 20260906092318 | 69 | 142 | 1.7 | 4.3 | 0.00 | 0.00 | 0.00 | 92 | 1017.7 |
| 20260906092204 | 69 | 141 | 1.7 | 4.3 | 0.00 | 0.00 | 0.00 | 92 | 1017.7 |
| 20260906092117 | 68 | 143 | 1.7 | 4.3 | 0.00 | 0.00 | 0.00 | 92 | 1017.6 |
| 20260906092004 | 69 | 138 | 1.7 | 4.3 | 0.00 | 0.00 | 0.00 | 92 | 1017.6 |
| 20260906091904 | 69 | 137 | 1.7 | 4.3 | 0.00 | 0.00 | 0.00 | 92 | 1017.6 |
| 20260906091804 | 69 | 133 | 1.7 | 4.3 | 0.00 | 0.00 | 0.00 | 92 | 1017.6 |
| 20260906091704 | 69 | 133 | 1.7 | 4.3 | 0.00 | 0.00 | 0.00 | 92 | 1017.6 |
| 20260906091618 | 69 | 129 | 1.7 | 4.3 | 0.00 | 0.00 | 0.00 | 92 | 1017.6 |
| 20260906091504 | 69 | 128 | 1.7 | 3.5 | 0.00 | 0.00 | 0.00 | 92 | 1017.6 |
| 20260906091404 | 69 | 120 | 1.7 | 3.5 | 0.00 | 0.00 | 0.00 | 92 | 1017.7 |
| 20260906091304 | 69 | 122 | 1.7 | 3.5 | 0.00 | 0.00 | 0.00 | 92 | 1017.7 |
| 20260906091204 | 69 | 120 | 1.7 | 3.5 | 0.00 | 0.00 | 0.00 | 92 | 1017.7 |
| 20260906091104 | 69 | 122 | 1.7 | 3.5 | 0.00 | 0.00 | 0.00 | 92 | 1017.7 |
| 20260906091003 | 69 | 125 | 1.7 | 3.5 | 0.00 | 0.00 | 0.00 | 92 | 1017.7 |
| 20260906090904 | 69 | 120 | 1.7 | 3.5 | 0.00 | 0.00 | 0.00 | 92 | 1017.8 |
| 20260906090804 | 69 | 119 | 1.7 | 3.5 | 0.00 | 0.00 | 0.00 | 92 | 1017.7 |
| 20260906090704 | 69 | 119 | 1.7 | 3.5 | 0.00 | 0.00 | 0.00 | 92 | 1017.7 |
| 20260906090604 | 69 | 123 | 1.7 | 3.5 | 0.00 | 0.00 | 0.00 | 92 | 1017.7 |
| 20260906090504 | 69 | 119 | 1.7 | 3.5 | 0.00 | 0.00 | 0.00 | 92 | 1017.7 |
| 20260906090418 | 69 | 122 | 1.7 | 3.5 | 0.00 | 0.00 | 0.00 | 92 | 1017.7 |
| 20260906090303 | 69 | 121 | 1.7 | 3.5 | 0.00 | 0.00 | 0.00 | 92 | 1017.7 |
| 20260906090218 | 69 | 113 | 1.7 | 3.5 | 0.00 | 0.00 | 0.00 | 92 | 1017.7 |
| 20260906090104 | 69 | 111 | 1.7 | 3.5 | 0.00 | 0.00 | 0.00 | 92 | 1017.7 |
| 20260906090004 | 69 | 118 | 1.7 | 3.5 | 0.00 | 0.00 | 0.00 | 92 | 1017.7 |
| 20260906085918 | 69 | 120 | 1.7 | 3.5 | 0.00 | 0.00 | 0.00 | 92 | 1017.7 |
| 20260906085804 | 69 | 126 | 1.7 | 3.5 | 0.00 | 0.00 | 0.00 | 92 | 1017.7 |
| 20260906085704 | 69 | 122 | 1.7 | 3.5 | 0.00 | 0.00 | 0.00 | 92 | 1017.7 |
| 20260906085604 | 69 | 120 | 1.7 | 5.2 | 0.00 | 0.00 | 0.00 | 92 | 1017.7 |
| 20260906085504 | 69 | 117 | 2.6 | 5.2 | 0.00 | 0.00 | 0.00 | 92 | 1017.7 |
| 20260906085404 | 69 | 119 | 2.6 | 5.2 | 0.00 | 0.00 | 0.00 | 92 | 1017.8 |
| 20260906085306 | 69 | 119 | 2.6 | 5.2 | 0.00 | 0.00 | 0.00 | 92 | 1017.7 |
| 20260906085204 | 69 | 124 | 2.6 | 5.2 | 0.00 | 0.00 | 0.00 | 92 | 1017.7 |
| 20260906085104 | 69 | 124 | 2.6 | 5.2 | 0.00 | 0.00 | 0.00 | 91 | 1017.8 |
| 20260906085004 | 69 | 120 | 2.6 | 5.2 | 0.00 | 0.00 | 0.00 | 91 | 1017.7 |
| 20260906084904 | 69 | 122 | 2.6 | 5.2 | 0.00 | 0.00 | 0.00 | 91 | 1017.7 |
| 20260906084804 | 69 | 117 | 2.6 | 5.2 | 0.00 | 0.00 | 0.00 | 91 | 1017.7 |
| 20260906084704 | 69 | 119 | 2.6 | 5.2 | 0.00 | 0.00 | 0.00 | 91 | 1017.7 |
| 20260906084604 | 69 | 119 | 2.6 | 5.2 | 0.00 | 0.00 | 0.00 | 91 | 1017.6 |
| 20260906084503 | 69 | 121 | 1.7 | 5.2 | 0.00 | 0.00 | 0.00 | 91 | 1017.6 |
| 20260906084404 | 69 | 119 | 1.7 | 4.3 | 0.00 | 0.00 | 0.00 | 91 | 1017.7 |
| 20260906084303 | 69 | 118 | 1.7 | 4.3 | 0.00 | 0.00 | 0.00 | 91 | 1017.6 |
| 20260906084218 | 69 | 119 | 2.6 | 4.3 | 0.00 | 0.00 | 0.00 | 91 | 1017.6 |
| 20260906084118 | 69 | 118 | 2.6 | 4.3 | 0.00 | 0.00 | 0.00 | 91 | 1017.6 |
| 20260906084004 | 69 | 118 | 2.6 | 4.3 | 0.00 | 0.00 | 0.00 | 91 | 1017.6 |
| 20260906083904 | 69 | 119 | 1.7 | 4.3 | 0.00 | 0.00 | 0.00 | 91 | 1017.6 |
| 20260906083818 | 69 | 122 | 1.7 | 2.6 | 0.00 | 0.00 | 0.00 | 91 | 1017.6 |
| 20260906083704 | 69 | 123 | 1.7 | 2.6 | 0.00 | 0.00 | 0.00 | 91 | 1017.6 |
| 20260906083604 | 69 | 122 | 1.7 | 4.3 | 0.00 | 0.00 | 0.00 | 91 | 1017.6 |
| 20260906083504 | 69 | 126 | 1.7 | 4.3 | 0.00 | 0.00 | 0.00 | 91 | 1017.7 |
| 20260906083404 | 69 | 129 | 1.7 | 4.3 | 0.00 | 0.00 | 0.00 | 91 | 1017.7 |
| 20260906083304 | 69 | 131 | 1.7 | 4.3 | 0.00 | 0.00 | 0.00 | 91 | 1017.8 |
| 20260906083204 | 69 | 132 | 1.7 | 4.3 | 0.00 | 0.00 | 0.00 | 91 | 1017.8 |
| 20260906083118 | 69 | 136 | 1.7 | 4.3 | 0.00 | 0.00 | 0.00 | 91 | 1017.8 |
| 20260906083004 | 69 | 135 | 1.7 | 4.3 | 0.00 | 0.00 | 0.00 | 91 | 1017.8 |
| 20260906082903 | 69 | 134 | 1.7 | 4.3 | 0.00 | 0.00 | 0.00 | 91 | 1017.9 |
| 20260906082818 | 69 | 134 | 1.7 | 4.3 | 0.00 | 0.00 | 0.00 | 91 | 1017.9 |
| 20260906082704 | 69 | 133 | 1.7 | 4.3 | 0.00 | 0.00 | 0.00 | 91 | 1017.9 |
| 20260906082617 | 69 | 135 | 1.7 | 4.3 | 0.00 | 0.00 | 0.00 | 91 | 1017.9 |
| 20260906082504 | 69 | 135 | 0.9 | 2.6 | 0.00 | 0.00 | 0.00 | 91 | 1017.8 |
| 20260906082404 | 69 | 133 | 0.9 | 2.6 | 0.00 | 0.00 | 0.00 | 91 | 1017.8 |
| 20260906082306 | 69 | 138 | 0.9 | 2.6 | 0.00 | 0.00 | 0.00 | 91 | 1017.8 |
| 20260906082204 | 69 | 136 | 0.9 | 1.7 | 0.00 | 0.00 | 0.00 | 91 | 1017.8 |
| 20260906082103 | 69 | 132 | 0.9 | 1.7 | 0.00 | 0.00 | 0.00 | 91 | 1017.8 |
| 20260906082004 | 70 | 134 | 0.9 | 2.6 | 0.00 | 0.00 | 0.00 | 90 | 1017.8 |
| 20260906081904 | 70 | 129 | 1.7 | 4.3 | 0.00 | 0.00 | 0.00 | 90 | 1017.8 |
| 20260906081804 | 70 | 121 | 1.7 | 4.3 | 0.00 | 0.00 | 0.00 | 90 | 1017.7 |
| 20260906081718 | 70 | 121 | 1.7 | 4.3 | 0.00 | 0.00 | 0.00 | 90 | 1017.8 |
| 20260906081604 | 70 | 118 | 1.7 | 4.3 | 0.00 | 0.00 | 0.00 | 90 | 1017.7 |
| 20260906081504 | 70 | 120 | 1.7 | 4.3 | 0.00 | 0.00 | 0.00 | 90 | 1017.7 |
| 20260906081404 | 70 | 119 | 1.7 | 4.3 | 0.00 | 0.00 | 0.00 | 90 | 1017.7 |
| 20260906081304 | 70 | 115 | 1.7 | 4.3 | 0.00 | 0.00 | 0.00 | 90 | 1017.7 |
| 20260906081204 | 70 | 116 | 1.7 | 4.3 | 0.00 | 0.00 | 0.00 | 90 | 1017.6 |
| 20260906081104 | 70 | 116 | 1.7 | 4.3 | 0.00 | 0.00 | 0.00 | 90 | 1017.7 |
| 20260906081004 | 70 | 112 | 1.7 | 4.3 | 0.00 | 0.00 | 0.00 | 90 | 1017.7 |
| 20260906080904 | 70 | 110 | 0.9 | 4.3 | 0.00 | 0.00 | 0.00 | 90 | 1017.7 |
| 20260906080803 | 70 | 122 | 0.9 | 3.5 | 0.00 | 0.00 | 0.00 | 90 | 1017.7 |
| 20260906080704 | 70 | 124 | 1.7 | 5.2 | 0.00 | 0.00 | 0.00 | 90 | 1017.7 |
| 20260906080603 | 70 | 125 | 1.7 | 5.2 | 0.00 | 0.00 | 0.00 | 90 | 1017.7 |
| 20260906080504 | 70 | 124 | 1.7 | 5.2 | 0.00 | 0.00 | 0.00 | 90 | 1017.7 |
| 20260906080404 | 70 | 125 | 1.7 | 5.2 | 0.00 | 0.00 | 0.00 | 90 | 1017.7 |
| 20260906080304 | 70 | 128 | 1.7 | 5.2 | 0.00 | 0.00 | 0.00 | 90 | 1017.8 |
| 20260906080204 | 70 | 127 | 1.7 | 5.2 | 0.00 | 0.00 | 0.00 | 90 | 1017.7 |
| 20260906080104 | 70 | 129 | 1.7 | 5.2 | 0.00 | 0.00 | 0.00 | 90 | 1017.7 |
| 20260906080004 | 70 | 128 | 1.7 | 5.2 | 0.00 | 0.00 | 0.00 | 90 | 1017.7 |
| 20260906075904 | 70 | 132 | 1.7 | 5.2 | 0.00 | 0.00 | 0.00 | 90 | 1017.7 |
| 20260906075804 | 70 | 133 | 1.7 | 5.2 | 0.00 | 0.00 | 0.00 | 90 | 1017.8 |
| 20260906075704 | 70 | 132 | 1.7 | 5.2 | 0.00 | 0.00 | 0.00 | 90 | 1017.7 |
| 20260906075604 | 70 | 131 | 1.7 | 4.3 | 0.00 | 0.00 | 0.00 | 90 | 1017.7 |
| 20260906075504 | 70 | 129 | 1.7 | 4.3 | 0.00 | 0.00 | 0.00 | 90 | 1017.8 |
| 20260906075404 | 70 | 129 | 1.7 | 4.3 | 0.00 | 0.00 | 0.00 | 90 | 1017.8 |
| 20260906075306 | 70 | 122 | 1.7 | 4.3 | 0.00 | 0.00 | 0.00 | 90 | 1017.9 |
| 20260906075204 | 70 | 122 | 1.7 | 4.3 | 0.00 | 0.00 | 0.00 | 90 | 1017.9 |
| 20260906075104 | 70 | 120 | 1.7 | 2.6 | 0.00 | 0.00 | 0.00 | 90 | 1017.9 |
| 20260906075004 | 70 | 119 | 1.7 | 4.3 | 0.00 | 0.00 | 0.00 | 90 | 1017.9 |
| 20260906074903 | 70 | 124 | 1.7 | 4.3 | 0.00 | 0.00 | 0.00 | 90 | 1017.9 |
| 20260906074804 | 70 | 123 | 1.7 | 4.3 | 0.00 | 0.00 | 0.00 | 90 | 1017.9 |
| 20260906074704 | 70 | 122 | 1.7 | 4.3 | 0.00 | 0.00 | 0.00 | 90 | 1017.9 |
| 20260906074604 | 70 | 125 | 1.7 | 4.3 | 0.00 | 0.00 | 0.00 | 90 | 1017.9 |
| 20260906074504 | 70 | 131 | 1.7 | 4.3 | 0.00 | 0.00 | 0.00 | 90 | 1017.9 |
| 20260906074404 | 70 | 134 | 1.7 | 4.3 | 0.00 | 0.00 | 0.00 | 90 | 1017.8 |
| 20260906074304 | 70 | 137 | 1.7 | 4.3 | 0.00 | 0.00 | 0.00 | 90 | 1017.8 |
| 20260906074204 | 70 | 142 | 1.7 | 4.3 | 0.00 | 0.00 | 0.00 | 90 | 1017.8 |
| 20260906074104 | 70 | 140 | 1.7 | 4.3 | 0.00 | 0.00 | 0.00 | 90 | 1017.8 |
| 20260906074003 | 70 | 139 | 1.7 | 4.3 | 0.00 | 0.00 | 0.00 | 90 | 1017.9 |
| 20260906073904 | 70 | 139 | 1.7 | 4.3 | 0.00 | 0.00 | 0.00 | 90 | 1017.8 |
| 20260906073804 | 70 | 139 | 1.7 | 4.3 | 0.00 | 0.00 | 0.00 | 90 | 1017.7 |
| 20260906073704 | 70 | 139 | 1.7 | 4.3 | 0.00 | 0.00 | 0.00 | 90 | 1017.8 |
| 20260906073604 | 70 | 136 | 2.6 | 4.3 | 0.00 | 0.00 | 0.00 | 90 | 1017.8 |
| 20260906073504 | 70 | 133 | 1.7 | 3.5 | 0.00 | 0.00 | 0.00 | 90 | 1017.8 |
| 20260906073404 | 70 | 131 | 2.6 | 3.5 | 0.00 | 0.00 | 0.00 | 90 | 1017.8 |
| 20260906073317 | 70 | 134 | 1.7 | 3.5 | 0.00 | 0.00 | 0.00 | 90 | 1017.8 |
| 20260906073204 | 70 | 131 | 1.7 | 3.5 | 0.00 | 0.00 | 0.00 | 90 | 1017.8 |
| 20260906073104 | 70 | 131 | 1.7 | 3.5 | 0.00 | 0.00 | 0.00 | 90 | 1017.8 |
| 20260906073004 | 70 | 131 | 1.7 | 3.5 | 0.00 | 0.00 | 0.00 | 89 | 1017.9 |
| 20260906072904 | 70 | 129 | 1.7 | 3.5 | 0.00 | 0.00 | 0.00 | 89 | 1017.9 |
| 20260906072804 | 70 | 130 | 1.7 | 3.5 | 0.00 | 0.00 | 0.00 | 89 | 1017.9 |
| 20260906072704 | 70 | 129 | 1.7 | 3.5 | 0.00 | 0.00 | 0.00 | 89 | 1017.9 |
| 20260906072618 | 70 | 131 | 1.7 | 3.5 | 0.00 | 0.00 | 0.00 | 89 | 1017.9 |
| 20260906072504 | 70 | 133 | 1.7 | 3.5 | 0.00 | 0.00 | 0.00 | 89 | 1017.9 |
| 20260906072418 | 70 | 138 | 1.7 | 2.6 | 0.00 | 0.00 | 0.00 | 89 | 1017.9 |
| 20260906072306 | 70 | 140 | 1.7 | 2.6 | 0.00 | 0.00 | 0.00 | 89 | 1018.0 |
| 20260906072218 | 70 | 141 | 1.7 | 2.6 | 0.00 | 0.00 | 0.00 | 89 | 1018.0 |
| 20260906072104 | 70 | 140 | 1.7 | 4.3 | 0.00 | 0.00 | 0.00 | 89 | 1018.0 |
| 20260906072004 | 70 | 141 | 1.7 | 4.3 | 0.00 | 0.00 | 0.00 | 89 | 1018.0 |
| 20260906071903 | 70 | 141 | 1.7 | 4.3 | 0.00 | 0.00 | 0.00 | 89 | 1018.0 |
| 20260906071804 | 70 | 143 | 1.7 | 4.3 | 0.00 | 0.00 | 0.00 | 89 | 1018.0 |
| 20260906071704 | 70 | 145 | 1.7 | 4.3 | 0.00 | 0.00 | 0.00 | 89 | 1018.0 |
| 20260906071603 | 70 | 146 | 1.7 | 4.3 | 0.00 | 0.00 | 0.00 | 89 | 1018.0 |
| 20260906071518 | 70 | 141 | 1.7 | 4.3 | 0.00 | 0.00 | 0.00 | 89 | 1018.0 |
| 20260906071404 | 70 | 138 | 1.7 | 4.3 | 0.00 | 0.00 | 0.00 | 89 | 1018.0 |
| 20260906071303 | 70 | 133 | 1.7 | 4.3 | 0.00 | 0.00 | 0.00 | 89 | 1018.0 |
| 20260906071204 | 70 | 133 | 1.7 | 4.3 | 0.00 | 0.00 | 0.00 | 89 | 1018.0 |
| 20260906071104 | 70 | 134 | 0.9 | 4.3 | 0.00 | 0.00 | 0.00 | 89 | 1018.0 |
| 20260906071004 | 70 | 135 | 0.9 | 2.6 | 0.00 | 0.00 | 0.00 | 89 | 1018.0 |
| 20260906070903 | 70 | 134 | 0.9 | 2.6 | 0.00 | 0.00 | 0.00 | 89 | 1018.0 |
| 20260906070803 | 70 | 130 | 1.7 | 3.5 | 0.00 | 0.00 | 0.00 | 89 | 1018.0 |
| 20260906070704 | 70 | 131 | 1.7 | 3.5 | 0.00 | 0.00 | 0.00 | 89 | 1018.0 |
| 20260906070604 | 70 | 131 | 1.7 | 3.5 | 0.00 | 0.00 | 0.00 | 89 | 1018.0 |
| 20260906070504 | 70 | 135 | 1.7 | 3.5 | 0.00 | 0.00 | 0.00 | 88 | 1018.0 |
| 20260906070404 | 70 | 135 | 1.7 | 3.5 | 0.00 | 0.00 | 0.00 | 88 | 1018.0 |
| 20260906070304 | 70 | 136 | 1.7 | 3.5 | 0.00 | 0.00 | 0.00 | 88 | 1018.0 |
| 20260906070204 | 70 | 135 | 0.9 | 3.5 | 0.00 | 0.00 | 0.00 | 88 | 1018.0 |
| 20260906070104 | 70 | 133 | 0.9 | 3.5 | 0.00 | 0.00 | 0.00 | 88 | 1018.0 |
| 20260906070018 | 70 | 129 | 0.9 | 3.5 | 0.00 | 0.00 | 0.00 | 88 | 1018.0 |
| 20260906065904 | 70 | 128 | 0.9 | 3.5 | 0.00 | 0.00 | 0.00 | 88 | 1018.0 |
| 20260906065803 | 70 | 127 | 0.9 | 3.5 | 0.00 | 0.00 | 0.00 | 88 | 1018.0 |
| 20260906065704 | 70 | 122 | 0.9 | 2.6 | 0.00 | 0.00 | 0.00 | 88 | 1018.1 |
| 20260906065604 | 70 | 120 | 0.9 | 2.6 | 0.00 | 0.00 | 0.00 | 88 | 1018.0 |
| 20260906065503 | 70 | 122 | 0.9 | 2.6 | 0.00 | 0.00 | 0.00 | 88 | 1018.1 |
| 20260906065404 | 70 | 121 | 0.9 | 2.6 | 0.00 | 0.00 | 0.00 | 88 | 1018.1 |
| 20260906065305 | 70 | 118 | 0.9 | 2.6 | 0.00 | 0.00 | 0.00 | 88 | 1018.1 |
| 20260906065204 | 70 | 118 | 0.9 | 2.6 | 0.00 | 0.00 | 0.00 | 88 | 1018.1 |
| 20260906065104 | 70 | 117 | 0.9 | 2.6 | 0.00 | 0.00 | 0.00 | 88 | 1018.1 |
| 20260906065004 | 71 | 117 | 0.9 | 2.6 | 0.00 | 0.00 | 0.00 | 88 | 1018.1 |
| 20260906064903 | 70 | 117 | 1.7 | 3.5 | 0.00 | 0.00 | 0.00 | 88 | 1018.1 |
| 20260906064818 | 71 | 112 | 1.7 | 3.5 | 0.00 | 0.00 | 0.00 | 88 | 1018.1 |
| 20260906064704 | 71 | 112 | 0.9 | 3.5 | 0.00 | 0.00 | 0.00 | 88 | 1018.1 |
| 20260906064617 | 71 | 112 | 0.9 | 3.5 | 0.00 | 0.00 | 0.00 | 88 | 1018.1 |
| 20260906064518 | 71 | 110 | 0.9 | 3.5 | 0.00 | 0.00 | 0.00 | 88 | 1018.1 |
| 20260906064403 | 71 | 110 | 0.9 | 3.5 | 0.00 | 0.00 | 0.00 | 88 | 1018.0 |
| 20260906064304 | 71 | 112 | 0.9 | 3.5 | 0.00 | 0.00 | 0.00 | 88 | 1018.0 |
| 20260906064204 | 71 | 115 | 1.7 | 5.2 | 0.00 | 0.00 | 0.00 | 88 | 1018.0 |
| 20260906064103 | 71 | 118 | 1.7 | 5.2 | 0.00 | 0.00 | 0.00 | 87 | 1018.0 |
| 20260906064004 | 71 | 117 | 1.7 | 5.2 | 0.00 | 0.00 | 0.00 | 87 | 1018.0 |
| 20260906063903 | 71 | 118 | 1.7 | 5.2 | 0.00 | 0.00 | 0.00 | 87 | 1018.0 |
| 20260906063804 | 71 | 128 | 1.7 | 5.2 | 0.00 | 0.00 | 0.00 | 87 | 1018.1 |
| 20260906063704 | 71 | 126 | 1.7 | 5.2 | 0.00 | 0.00 | 0.00 | 87 | 1018.1 |
| 20260906063618 | 71 | 124 | 1.7 | 5.2 | 0.00 | 0.00 | 0.00 | 87 | 1018.1 |
| 20260906063503 | 71 | 124 | 1.7 | 5.2 | 0.00 | 0.00 | 0.00 | 87 | 1018.1 |
| 20260906063404 | 71 | 127 | 1.7 | 5.2 | 0.00 | 0.00 | 0.00 | 87 | 1018.1 |
| 20260906063304 | 71 | 128 | 1.7 | 5.2 | 0.00 | 0.00 | 0.00 | 87 | 1018.1 |
| 20260906063204 | 71 | 128 | 1.7 | 5.2 | 0.00 | 0.00 | 0.00 | 87 | 1018.1 |
| 20260906063104 | 71 | 127 | 1.7 | 3.5 | 0.00 | 0.00 | 0.00 | 87 | 1018.1 |
| 20260906063006 | 71 | 128 | 1.7 | 3.5 | 0.00 | 0.00 | 0.00 | 87 | 1018.1 |
| 20260906062904 | 71 | 129 | 1.7 | 2.6 | 0.00 | 0.00 | 0.00 | 87 | 1018.1 |
| 20260906062804 | 71 | 126 | 1.7 | 2.6 | 0.00 | 0.00 | 0.00 | 87 | 1018.2 |
| 20260906062703 | 71 | 127 | 1.7 | 2.6 | 0.00 | 0.00 | 0.00 | 87 | 1018.2 |
| 20260906062604 | 71 | 129 | 1.7 | 2.6 | 0.00 | 0.00 | 0.00 | 86 | 1018.1 |
| 20260906062504 | 71 | 129 | 1.7 | 2.6 | 0.00 | 0.00 | 0.00 | 86 | 1018.2 |
| 20260906062418 | 71 | 125 | 1.7 | 2.6 | 0.00 | 0.00 | 0.00 | 86 | 1018.2 |
| 20260906062306 | 71 | 124 | 0.9 | 2.6 | 0.00 | 0.00 | 0.00 | 86 | 1018.2 |
| 20260906062203 | 71 | 122 | 0.9 | 2.6 | 0.00 | 0.00 | 0.00 | 86 | 1018.2 |
| 20260906062104 | 71 | 121 | 0.9 | 2.6 | 0.00 | 0.00 | 0.00 | 86 | 1018.3 |
| 20260906062003 | 71 | 119 | 0.9 | 2.6 | 0.00 | 0.00 | 0.00 | 86 | 1018.2 |
| 20260906061904 | 71 | 118 | 0.9 | 2.6 | 0.00 | 0.00 | 0.00 | 86 | 1018.3 |
| 20260906061803 | 71 | 120 | 0.9 | 2.6 | 0.00 | 0.00 | 0.00 | 86 | 1018.3 |
| 20260906061718 | 71 | 119 | 0.9 | 2.6 | 0.00 | 0.00 | 0.00 | 86 | 1018.3 |
| 20260906061603 | 71 | 113 | 0.9 | 2.6 | 0.00 | 0.00 | 0.00 | 86 | 1018.4 |
| 20260906061504 | 71 | 113 | 0.9 | 2.6 | 0.00 | 0.00 | 0.00 | 86 | 1018.4 |
| 20260906061403 | 71 | 106 | 0.9 | 2.6 | 0.00 | 0.00 | 0.00 | 86 | 1018.4 |
| 20260906061304 | 71 | 101 | 0.9 | 2.6 | 0.00 | 0.00 | 0.00 | 86 | 1018.4 |
| 20260906061203 | 72 | 99 | 0.9 | 2.6 | 0.00 | 0.00 | 0.00 | 86 | 1018.3 |
| 20260906061118 | 72 | 98 | 0.9 | 2.6 | 0.00 | 0.00 | 0.00 | 86 | 1018.3 |
| 20260906061003 | 72 | 106 | 0.9 | 2.6 | 0.00 | 0.00 | 0.00 | 86 | 1018.3 |
| 20260906060904 | 72 | 105 | 0.9 | 2.6 | 0.00 | 0.00 | 0.00 | 86 | 1018.3 |
| 20260906060804 | 72 | 105 | 0.9 | 2.6 | 0.00 | 0.00 | 0.00 | 86 | 1018.3 |
| 20260906060703 | 72 | 106 | 0.9 | 2.6 | 0.00 | 0.00 | 0.00 | 86 | 1018.3 |
| 20260906060604 | 72 | 113 | 0.9 | 1.7 | 0.00 | 0.00 | 0.00 | 85 | 1018.3 |
| 20260906060518 | 72 | 116 | 0.9 | 2.6 | 0.00 | 0.00 | 0.00 | 85 | 1018.3 |
| 20260906060404 | 72 | 126 | 0.9 | 2.6 | 0.00 | 0.00 | 0.00 | 85 | 1018.3 |
| 20260906060304 | 72 | 123 | 0.9 | 2.6 | 0.00 | 0.00 | 0.00 | 85 | 1018.3 |
| 20260906060204 | 72 | 122 | 0.9 | 2.6 | 0.00 | 0.00 | 0.00 | 85 | 1018.3 |
| 20260906060103 | 72 | 120 | 0.9 | 2.6 | 0.00 | 0.00 | 0.00 | 85 | 1018.3 |
| 20260906060004 | 72 | 119 | 0.9 | 2.6 | 0.00 | 0.00 | 0.00 | 85 | 1018.3 |
| 20260906055904 | 72 | 120 | 0.9 | 2.6 | 0.00 | 0.00 | 0.00 | 85 | 1018.3 |
| 20260906055804 | 72 | 120 | 0.9 | 2.6 | 0.00 | 0.00 | 0.00 | 85 | 1018.3 |
| 20260906055704 | 72 | 120 | 0.9 | 2.6 | 0.00 | 0.00 | 0.00 | 85 | 1018.3 |
| 20260906055604 | 72 | 120 | 0.9 | 2.6 | 0.00 | 0.00 | 0.00 | 85 | 1018.3 |
| 20260906055503 | 72 | 119 | 0.9 | 2.6 | 0.00 | 0.00 | 0.00 | 85 | 1018.3 |
| 20260906055404 | 72 | 117 | 0.9 | 2.6 | 0.00 | 0.00 | 0.00 | 85 | 1018.3 |
| 20260906055306 | 72 | 124 | 0.9 | 2.6 | 0.00 | 0.00 | 0.00 | 85 | 1018.3 |
| 20260906055204 | 72 | 124 | 0.9 | 2.6 | 0.00 | 0.00 | 0.00 | 85 | 1018.2 |
| 20260906055104 | 72 | 121 | 0.9 | 2.6 | 0.00 | 0.00 | 0.00 | 85 | 1018.4 |
| 20260906055004 | 72 | 121 | 0.9 | 2.6 | 0.00 | 0.00 | 0.00 | 85 | 1018.2 |
| 20260906054917 | 72 | 120 | 0.9 | 2.6 | 0.00 | 0.00 | 0.00 | 85 | 1018.3 |
| 20260906054803 | 72 | 125 | 0.9 | 2.6 | 0.00 | 0.00 | 0.00 | 85 | 1018.2 |
| 20260906054718 | 72 | 122 | 0.9 | 2.6 | 0.00 | 0.00 | 0.00 | 84 | 1018.2 |
| 20260906054603 | 72 | 121 | 0.9 | 2.6 | 0.00 | 0.00 | 0.00 | 84 | 1018.3 |
| 20260906054504 | 72 | 121 | 0.9 | 2.6 | 0.00 | 0.00 | 0.00 | 84 | 1018.2 |
| 20260906054404 | 72 | 120 | 0.9 | 2.6 | 0.00 | 0.00 | 0.00 | 84 | 1018.2 |
| 20260906054304 | 72 | 109 | 0.9 | 2.6 | 0.00 | 0.00 | 0.00 | 84 | 1018.2 |
| 20260906054218 | 72 | 105 | 0.9 | 2.6 | 0.00 | 0.00 | 0.00 | 84 | 1018.2 |
| 20260906054104 | 72 | 103 | 0.9 | 1.7 | 0.00 | 0.00 | 0.00 | 84 | 1018.3 |
| 20260906054017 | 72 | 102 | 0.9 | 1.7 | 0.00 | 0.00 | 0.00 | 84 | 1018.3 |
| 20260906053904 | 72 | 102 | 0.9 | 1.7 | 0.00 | 0.00 | 0.00 | 84 | 1018.3 |
| 20260906053818 | 72 | 94 | 0.9 | 1.7 | 0.00 | 0.00 | 0.00 | 84 | 1018.2 |
| 20260906053704 | 72 | 94 | 0.9 | 2.6 | 0.00 | 0.00 | 0.00 | 84 | 1018.3 |
| 20260906053603 | 72 | 95 | 0.9 | 2.6 | 0.00 | 0.00 | 0.00 | 84 | 1018.3 |
| 20260906053504 | 72 | 95 | 0.9 | 2.6 | 0.00 | 0.00 | 0.00 | 84 | 1018.3 |
| 20260906053404 | 72 | 99 | 0.9 | 2.6 | 0.00 | 0.00 | 0.00 | 84 | 1018.3 |
| 20260906053303 | 72 | 109 | 0.9 | 2.6 | 0.00 | 0.00 | 0.00 | 84 | 1018.3 |
| 20260906053204 | 72 | 112 | 0.9 | 2.6 | 0.00 | 0.00 | 0.00 | 84 | 1018.3 |
| 20260906053104 | 72 | 127 | 0.9 | 2.6 | 0.00 | 0.00 | 0.00 | 84 | 1018.3 |
| 20260906053004 | 72 | 129 | 0.9 | 2.6 | 0.00 | 0.00 | 0.00 | 84 | 1018.2 |
| 20260906052904 | 72 | 131 | 0.9 | 2.6 | 0.00 | 0.00 | 0.00 | 84 | 1018.3 |
| 20260906052804 | 72 | 131 | 0.9 | 2.6 | 0.00 | 0.00 | 0.00 | 84 | 1018.2 |
| 20260906052703 | 72 | 131 | 0.9 | 2.6 | 0.00 | 0.00 | 0.00 | 84 | 1018.2 |
| 20260906052604 | 72 | 135 | 0.9 | 2.6 | 0.00 | 0.00 | 0.00 | 84 | 1018.3 |
| 20260906052503 | 72 | 135 | 0.9 | 2.6 | 0.00 | 0.00 | 0.00 | 84 | 1018.3 |
| 20260906052404 | 72 | 135 | 0.9 | 2.6 | 0.00 | 0.00 | 0.00 | 84 | 1018.3 |
| 20260906052305 | 72 | 135 | 0.9 | 2.6 | 0.00 | 0.00 | 0.00 | 84 | 1018.2 |
| 20260906052203 | 72 | 135 | 0.9 | 2.6 | 0.00 | 0.00 | 0.00 | 84 | 1018.2 |
| 20260906052104 | 72 | 131 | 0.9 | 2.6 | 0.00 | 0.00 | 0.00 | 84 | 1018.2 |
| 20260906052004 | 72 | 132 | 0.9 | 2.6 | 0.00 | 0.00 | 0.00 | 84 | 1018.2 |
| 20260906051904 | 72 | 138 | 0.9 | 1.7 | 0.00 | 0.00 | 0.00 | 84 | 1018.2 |
| 20260906051803 | 72 | 141 | 0.9 | 1.7 | 0.00 | 0.00 | 0.00 | 84 | 1018.2 |
| 20260906051704 | 72 | 144 | 0.9 | 1.7 | 0.00 | 0.00 | 0.00 | 84 | 1018.2 |
| 20260906051604 | 72 | 146 | 0.9 | 1.7 | 0.00 | 0.00 | 0.00 | 84 | 1018.2 |
| 20260906051518 | 72 | 148 | 0.9 | 1.7 | 0.00 | 0.00 | 0.00 | 84 | 1018.2 |
| 20260906051404 | 72 | 151 | 0.9 | 1.7 | 0.00 | 0.00 | 0.00 | 84 | 1018.2 |
| 20260906051304 | 72 | 151 | 0.9 | 1.7 | 0.00 | 0.00 | 0.00 | 84 | 1018.2 |
| 20260906051203 | 72 | 153 | 0.9 | 1.7 | 0.00 | 0.00 | 0.00 | 84 | 1018.3 |
| 20260906051104 | 72 | 149 | 0.9 | 1.7 | 0.00 | 0.00 | 0.00 | 84 | 1018.2 |
| 20260906051004 | 72 | 150 | 0.9 | 1.7 | 0.00 | 0.00 | 0.00 | 84 | 1018.2 |
| 20260906050904 | 72 | 147 | 0.9 | 1.7 | 0.00 | 0.00 | 0.00 | 84 | 1018.3 |
| 20260906050804 | 72 | 145 | 0.9 | 1.7 | 0.00 | 0.00 | 0.00 | 84 | 1018.3 |
| 20260906050703 | 72 | 143 | 0.9 | 1.7 | 0.00 | 0.00 | 0.00 | 84 | 1018.3 |
| 20260906050604 | 72 | 143 | 0.9 | 1.7 | 0.00 | 0.00 | 0.00 | 84 | 1018.3 |
| 20260906050503 | 72 | 142 | 0.9 | 1.7 | 0.00 | 0.00 | 0.00 | 84 | 1018.3 |
| 20260906050418 | 72 | 137 | 0.9 | 1.7 | 0.00 | 0.00 | 0.00 | 84 | 1018.3 |
| 20260906050317 | 72 | 138 | 0.9 | 1.7 | 0.00 | 0.00 | 0.00 | 84 | 1018.4 |
| 20260906050204 | 72 | 138 | 0.9 | 1.7 | 0.00 | 0.00 | 0.00 | 85 | 1018.4 |
| 20260906050104 | 72 | 136 | 0.0 | 1.7 | 0.00 | 0.00 | 0.00 | 85 | 1018.3 |
| 20260906050006 | 72 | 135 | 0.0 | 1.7 | 0.00 | 0.00 | 0.00 | 85 | 1018.3 |
| 20260906045904 | 72 | 129 | 0.0 | 1.7 | 0.00 | 0.00 | 0.00 | 85 | 1018.4 |
| 20260906045803 | 72 | 126 | 0.0 | 1.7 | 0.00 | 0.00 | 0.00 | 85 | 1018.3 |
| 20260906045704 | 72 | 126 | 0.0 | 1.7 | 0.00 | 0.00 | 0.00 | 85 | 1018.4 |
| 20260906045604 | 72 | 126 | 0.0 | 1.7 | 0.00 | 0.00 | 0.00 | 85 | 1018.4 |
| 20260906045504 | 72 | 126 | 0.0 | 1.7 | 0.00 | 0.00 | 0.00 | 85 | 1018.4 |
| 20260906045404 | 72 | 133 | 0.0 | 1.7 | 0.00 | 0.00 | 0.00 | 85 | 1018.4 |
| 20260906045306 | 72 | 0 | 0.0 | 1.7 | 0.00 | 0.00 | 0.00 | 85 | 1018.4 |
| 20260906045217 | 72 | 0 | 0.0 | 1.7 | 0.00 | 0.00 | 0.00 | 85 | 1018.4 |
| 20260906045104 | 72 | 0 | 0.0 | 1.7 | 0.00 | 0.00 | 0.00 | 84 | 1018.5 |
| 20260906045003 | 72 | 117 | 0.0 | 1.7 | 0.00 | 0.00 | 0.00 | 84 | 1018.4 |
| 20260906044903 | 72 | 124 | 0.0 | 1.7 | 0.00 | 0.00 | 0.00 | 84 | 1018.4 |
| 20260906044818 | 72 | 124 | 0.0 | 1.7 | 0.00 | 0.00 | 0.00 | 84 | 1018.4 |
| 20260906044704 | 72 | 124 | 0.0 | 1.7 | 0.00 | 0.00 | 0.00 | 84 | 1018.5 |
| 20260906044604 | 72 | 124 | 0.0 | 1.7 | 0.00 | 0.00 | 0.00 | 84 | 1018.5 |
| 20260906044504 | 72 | 125 | 0.0 | 1.7 | 0.00 | 0.00 | 0.00 | 84 | 1018.4 |
| 20260906044404 | 72 | 127 | 0.0 | 1.7 | 0.00 | 0.00 | 0.00 | 84 | 1018.4 |
| 20260906044304 | 72 | 128 | 0.9 | 1.7 | 0.00 | 0.00 | 0.00 | 84 | 1018.4 |
| 20260906044204 | 72 | 127 | 0.9 | 1.7 | 0.00 | 0.00 | 0.00 | 84 | 1018.5 |
| 20260906044105 | 72 | 127 | 0.0 | 1.7 | 0.00 | 0.00 | 0.00 | 84 | 1018.4 |
| 20260906044003 | 72 | 128 | 0.9 | 1.7 | 0.00 | 0.00 | 0.00 | 84 | 1018.4 |
| 20260906043904 | 72 | 123 | 0.0 | 1.7 | 0.00 | 0.00 | 0.00 | 84 | 1018.4 |
| 20260906043804 | 72 | 123 | 0.0 | 1.7 | 0.00 | 0.00 | 0.00 | 84 | 1018.4 |
| 20260906043704 | 72 | 123 | 0.0 | 1.7 | 0.00 | 0.00 | 0.00 | 84 | 1018.4 |
| 20260906043603 | 72 | 123 | 0.0 | 1.7 | 0.00 | 0.00 | 0.00 | 84 | 1018.4 |
| 20260906043504 | 72 | 123 | 0.0 | 1.7 | 0.00 | 0.00 | 0.00 | 84 | 1018.4 |
| 20260906043404 | 73 | 120 | 0.0 | 1.7 | 0.00 | 0.00 | 0.00 | 84 | 1018.4 |
| 20260906043303 | 72 | 116 | 0.0 | 1.7 | 0.00 | 0.00 | 0.00 | 84 | 1018.4 |
| 20260906043204 | 73 | 116 | 0.0 | 1.7 | 0.00 | 0.00 | 0.00 | 84 | 1018.5 |
| 20260906043104 | 73 | 116 | 0.0 | 1.7 | 0.00 | 0.00 | 0.00 | 84 | 1018.5 |
| 20260906043004 | 73 | 116 | 0.0 | 1.7 | 0.00 | 0.00 | 0.00 | 84 | 1018.5 |
| 20260906042904 | 73 | 0 | 0.0 | 1.7 | 0.00 | 0.00 | 0.00 | 84 | 1018.5 |
| 20260906042803 | 73 | 0 | 0.0 | 1.7 | 0.00 | 0.00 | 0.00 | 84 | 1018.5 |
| 20260906042704 | 73 | 0 | 0.0 | 1.7 | 0.00 | 0.00 | 0.00 | 84 | 1018.5 |
| 20260906042604 | 73 | 0 | 0.0 | 1.7 | 0.00 | 0.00 | 0.00 | 84 | 1018.5 |
| 20260906042518 | 73 | 0 | 0.0 | 1.7 | 0.00 | 0.00 | 0.00 | 84 | 1018.5 |
| 20260906042404 | 73 | 0 | 0.0 | 1.7 | 0.00 | 0.00 | 0.00 | 84 | 1018.4 |
| 20260906042306 | 73 | 90 | 0.0 | 1.7 | 0.00 | 0.00 | 0.00 | 84 | 1018.4 |
| 20260906042204 | 73 | 90 | 0.0 | 1.7 | 0.00 | 0.00 | 0.00 | 84 | 1018.4 |
| 20260906042117 | 73 | 90 | 0.0 | 1.7 | 0.00 | 0.00 | 0.00 | 84 | 1018.5 |
| 20260906042004 | 73 | 90 | 0.0 | 1.7 | 0.00 | 0.00 | 0.00 | 84 | 1018.4 |
| 20260906041904 | 73 | 90 | 0.0 | 1.7 | 0.00 | 0.00 | 0.00 | 84 | 1018.4 |
| 20260906041817 | 73 | 90 | 0.0 | 1.7 | 0.00 | 0.00 | 0.00 | 84 | 1018.4 |
| 20260906041718 | 73 | 90 | 0.0 | 1.7 | 0.00 | 0.00 | 0.00 | 84 | 1018.4 |
| 20260906041604 | 73 | 90 | 0.0 | 1.7 | 0.00 | 0.00 | 0.00 | 84 | 1018.4 |
| 20260906041504 | 73 | 90 | 0.0 | 1.7 | 0.00 | 0.00 | 0.00 | 84 | 1018.3 |
| 20260906041418 | 73 | 90 | 0.0 | 1.7 | 0.00 | 0.00 | 0.00 | 84 | 1018.4 |
| 20260906041303 | 73 | 0 | 0.0 | 1.7 | 0.00 | 0.00 | 0.00 | 84 | 1018.4 |
| 20260906041217 | 73 | 0 | 0.0 | 1.7 | 0.00 | 0.00 | 0.00 | 84 | 1018.4 |
| 20260906041104 | 73 | 0 | 0.0 | 1.7 | 0.00 | 0.00 | 0.00 | 84 | 1018.4 |
| 20260906041003 | 73 | 0 | 0.0 | 1.7 | 0.00 | 0.00 | 0.00 | 84 | 1018.4 |
| 20260906040904 | 73 | 0 | 0.0 | 1.7 | 0.00 | 0.00 | 0.00 | 84 | 1018.5 |
| 20260906040804 | 73 | 0 | 0.0 | 0.0 | 0.00 | 0.00 | 0.00 | 84 | 1018.6 |
| 20260906040703 | 73 | 0 | 0.0 | 0.0 | 0.00 | 0.00 | 0.00 | 84 | 1018.6 |
| 20260906040604 | 73 | 0 | 0.0 | 0.0 | 0.00 | 0.00 | 0.00 | 84 | 1018.6 |
| 20260906040503 | 73 | 0 | 0.0 | 0.0 | 0.00 | 0.00 | 0.00 | 84 | 1018.6 |
| 20260906040403 | 73 | 0 | 0.0 | 0.0 | 0.00 | 0.00 | 0.00 | 84 | 1018.6 |
| 20260906040303 | 73 | 0 | 0.0 | 0.0 | 0.00 | 0.00 | 0.00 | 83 | 1018.6 |
| 20260906040204 | 73 | 0 | 0.0 | 0.0 | 0.00 | 0.00 | 0.00 | 83 | 1018.6 |
| 20260906040117 | 73 | 0 | 0.0 | 0.0 | 0.00 | 0.00 | 0.00 | 83 | 1018.6 |
| 20260906040004 | 73 | 0 | 0.0 | 0.0 | 0.00 | 0.00 | 0.00 | 83 | 1018.6 |
| 20260906035904 | 73 | 0 | 0.0 | 0.0 | 0.00 | 0.00 | 0.00 | 83 | 1018.6 |
| 20260906035817 | 73 | 0 | 0.0 | 0.0 | 0.00 | 0.00 | 0.00 | 83 | 1018.5 |
| 20260906035704 | 73 | 0 | 0.0 | 0.0 | 0.00 | 0.00 | 0.00 | 83 | 1018.5 |
| 20260906035618 | 73 | 0 | 0.0 | 1.7 | 0.00 | 0.00 | 0.00 | 83 | 1018.5 |
| 20260906035504 | 73 | 90 | 0.0 | 1.7 | 0.00 | 0.00 | 0.00 | 83 | 1018.4 |
| 20260906035404 | 73 | 90 | 0.0 | 1.7 | 0.00 | 0.00 | 0.00 | 83 | 1018.5 |
| 20260906035306 | 73 | 90 | 0.0 | 1.7 | 0.00 | 0.00 | 0.00 | 83 | 1018.5 |
| 20260906035204 | 73 | 90 | 0.0 | 1.7 | 0.00 | 0.00 | 0.00 | 83 | 1018.5 |
| 20260906035104 | 73 | 90 | 0.0 | 1.7 | 0.00 | 0.00 | 0.00 | 83 | 1018.5 |
| 20260906035004 | 73 | 90 | 0.0 | 1.7 | 0.00 | 0.00 | 0.00 | 83 | 1018.5 |
| 20260906034903 | 73 | 90 | 0.0 | 1.7 | 0.00 | 0.00 | 0.00 | 82 | 1018.5 |
| 20260906034817 | 73 | 90 | 0.0 | 1.7 | 0.00 | 0.00 | 0.00 | 82 | 1018.5 |
| 20260906034704 | 73 | 90 | 0.0 | 1.7 | 0.00 | 0.00 | 0.00 | 82 | 1018.6 |
| 20260906034604 | 73 | 90 | 0.0 | 1.7 | 0.00 | 0.00 | 0.00 | 82 | 1018.6 |
| 20260906034503 | 73 | 0 | 0.0 | 0.9 | 0.00 | 0.00 | 0.00 | 82 | 1018.5 |
| 20260906034404 | 73 | 0 | 0.0 | 0.9 | 0.00 | 0.00 | 0.00 | 82 | 1018.6 |
| 20260906034304 | 73 | 0 | 0.0 | 0.9 | 0.00 | 0.00 | 0.00 | 82 | 1018.5 |
| 20260906034204 | 73 | 0 | 0.0 | 0.9 | 0.00 | 0.00 | 0.00 | 82 | 1018.5 |
| 20260906034104 | 73 | 0 | 0.0 | 0.9 | 0.00 | 0.00 | 0.00 | 82 | 1018.6 |
| 20260906034018 | 73 | 0 | 0.0 | 0.9 | 0.00 | 0.00 | 0.00 | 82 | 1018.5 |
| 20260906033903 | 73 | 0 | 0.0 | 0.9 | 0.00 | 0.00 | 0.00 | 82 | 1018.5 |
| 20260906033803 | 73 | 0 | 0.0 | 0.0 | 0.00 | 0.00 | 0.00 | 82 | 1018.6 |
| 20260906033703 | 73 | 0 | 0.0 | 0.0 | 0.00 | 0.00 | 0.00 | 82 | 1018.5 |
| 20260906033618 | 73 | 0 | 0.0 | 0.0 | 0.00 | 0.00 | 0.00 | 82 | 1018.5 |
| 20260906033503 | 73 | 0 | 0.0 | 0.0 | 0.00 | 0.00 | 0.00 | 81 | 1018.6 |
| 20260906033404 | 73 | 0 | 0.0 | 0.0 | 0.00 | 0.00 | 0.00 | 81 | 1018.6 |
| 20260906033304 | 73 | 0 | 0.0 | 0.0 | 0.00 | 0.00 | 0.00 | 81 | 1018.6 |
| 20260906033218 | 73 | 0 | 0.0 | 0.0 | 0.00 | 0.00 | 0.00 | 81 | 1018.6 |
| 20260906033103 | 73 | 0 | 0.0 | 0.0 | 0.00 | 0.00 | 0.00 | 81 | 1018.6 |
| 20260906033017 | 73 | 0 | 0.0 | 0.0 | 0.00 | 0.00 | 0.00 | 81 | 1018.6 |
| 20260906032903 | 73 | 0 | 0.0 | 0.0 | 0.00 | 0.00 | 0.00 | 81 | 1018.6 |
| 20260906032803 | 73 | 0 | 0.0 | 0.0 | 0.00 | 0.00 | 0.00 | 81 | 1018.6 |
| 20260906032704 | 74 | 0 | 0.0 | 0.0 | 0.00 | 0.00 | 0.00 | 81 | 1018.6 |
| 20260906032618 | 74 | 0 | 0.0 | 0.0 | 0.00 | 0.00 | 0.00 | 81 | 1018.6 |
| 20260906032503 | 74 | 0 | 0.0 | 0.0 | 0.00 | 0.00 | 0.00 | 81 | 1018.6 |
| 20260906032403 | 74 | 0 | 0.0 | 0.0 | 0.00 | 0.00 | 0.00 | 81 | 1018.7 |
| 20260906032318 | 74 | 80 | 0.0 | 0.0 | 0.00 | 0.00 | 0.00 | 81 | 1018.7 |
| 20260906032204 | 74 | 80 | 0.0 | 0.0 | 0.00 | 0.00 | 0.00 | 81 | 1018.6 |
| 20260906032103 | 74 | 80 | 0.0 | 0.9 | 0.00 | 0.00 | 0.00 | 80 | 1018.6 |
| 20260906032004 | 74 | 79 | 0.0 | 0.9 | 0.00 | 0.00 | 0.00 | 80 | 1018.6 |
| 20260906031904 | 74 | 86 | 0.0 | 0.9 | 0.00 | 0.00 | 0.00 | 80 | 1018.6 |
| 20260906031803 | 74 | 86 | 0.0 | 1.7 | 0.00 | 0.00 | 0.00 | 80 | 1018.6 |
| 20260906031717 | 74 | 86 | 0.0 | 1.7 | 0.00 | 0.00 | 0.00 | 80 | 1018.6 |
| 20260906031604 | 74 | 86 | 0.0 | 1.7 | 0.00 | 0.00 | 0.00 | 80 | 1018.6 |
| 20260906031503 | 74 | 88 | 0.0 | 1.7 | 0.00 | 0.00 | 0.00 | 80 | 1018.6 |
| 20260906031418 | 74 | 88 | 0.0 | 1.7 | 0.00 | 0.00 | 0.00 | 80 | 1018.7 |
| 20260906031303 | 74 | 92 | 0.0 | 1.7 | 0.00 | 0.00 | 0.00 | 80 | 1018.6 |
| 20260906031204 | 74 | 92 | 0.0 | 1.7 | 0.00 | 0.00 | 0.00 | 80 | 1018.7 |
| 20260906031104 | 74 | 92 | 0.0 | 1.7 | 0.00 | 0.00 | 0.00 | 80 | 1018.7 |
| 20260906031004 | 74 | 98 | 0.0 | 1.7 | 0.00 | 0.00 | 0.00 | 80 | 1018.7 |
| 20260906030904 | 74 | 98 | 0.0 | 1.7 | 0.00 | 0.00 | 0.00 | 80 | 1018.7 |
| 20260906030803 | 74 | 98 | 0.0 | 1.7 | 0.00 | 0.00 | 0.00 | 80 | 1018.8 |
| 20260906030703 | 74 | 98 | 0.0 | 0.9 | 0.00 | 0.00 | 0.00 | 80 | 1018.8 |
| 20260906030604 | 74 | 98 | 0.0 | 0.9 | 0.00 | 0.00 | 0.00 | 80 | 1018.8 |
| 20260906030504 | 74 | 98 | 0.0 | 0.9 | 0.00 | 0.00 | 0.00 | 80 | 1018.8 |
| 20260906030404 | 74 | 98 | 0.0 | 0.9 | 0.00 | 0.00 | 0.00 | 80 | 1018.8 |
| 20260906030303 | 74 | 0 | 0.0 | 0.0 | 0.00 | 0.00 | 0.00 | 80 | 1018.9 |
| 20260906030203 | 74 | 0 | 0.0 | 0.0 | 0.00 | 0.00 | 0.00 | 79 | 1018.8 |
| 20260906030104 | 74 | 0 | 0.0 | 0.0 | 0.00 | 0.00 | 0.00 | 79 | 1018.9 |
| 20260906030004 | 74 | 0 | 0.0 | 0.0 | 0.00 | 0.00 | 0.00 | 79 | 1018.8 |
| 20260906025904 | 74 | 0 | 0.0 | 0.0 | 0.00 | 0.00 | 0.00 | 79 | 1018.8 |
| 20260906025803 | 74 | 0 | 0.0 | 0.0 | 0.00 | 0.00 | 0.00 | 79 | 1018.8 |
| 20260906025704 | 74 | 0 | 0.0 | 0.0 | 0.00 | 0.00 | 0.00 | 79 | 1018.8 |
| 20260906025604 | 74 | 0 | 0.0 | 0.0 | 0.00 | 0.00 | 0.00 | 79 | 1018.8 |
| 20260906025503 | 74 | 0 | 0.0 | 0.0 | 0.00 | 0.00 | 0.00 | 79 | 1018.8 |
| 20260906025403 | 74 | 0 | 0.0 | 0.0 | 0.00 | 0.00 | 0.00 | 79 | 1018.8 |
| 20260906025317 | 74 | 0 | 0.0 | 0.0 | 0.00 | 0.00 | 0.00 | 79 | 1018.8 |
| 20260906025203 | 74 | 0 | 0.0 | 0.0 | 0.00 | 0.00 | 0.00 | 79 | 1018.7 |
| 20260906025104 | 75 | 0 | 0.0 | 0.0 | 0.00 | 0.00 | 0.00 | 79 | 1018.7 |
| 20260906025003 | 75 | 0 | 0.0 | 0.0 | 0.00 | 0.00 | 0.00 | 79 | 1018.7 |
| 20260906024904 | 75 | 0 | 0.0 | 0.0 | 0.00 | 0.00 | 0.00 | 79 | 1018.6 |
| 20260906024804 | 75 | 0 | 0.0 | 0.0 | 0.00 | 0.00 | 0.00 | 79 | 1018.6 |
| 20260906024704 | 75 | 0 | 0.0 | 0.0 | 0.00 | 0.00 | 0.00 | 78 | 1018.7 |
| 20260906024603 | 75 | 0 | 0.0 | 0.0 | 0.00 | 0.00 | 0.00 | 78 | 1018.6 |
| 20260906024518 | 75 | 0 | 0.0 | 0.0 | 0.00 | 0.00 | 0.00 | 78 | 1018.6 |
| 20260906024418 | 75 | 0 | 0.0 | 0.0 | 0.00 | 0.00 | 0.00 | 78 | 1018.6 |
| 20260906024303 | 75 | 0 | 0.0 | 0.0 | 0.00 | 0.00 | 0.00 | 78 | 1018.6 |
| 20260906024203 | 75 | 0 | 0.0 | 0.0 | 0.00 | 0.00 | 0.00 | 78 | 1018.6 |
| 20260906024104 | 75 | 0 | 0.0 | 0.0 | 0.00 | 0.00 | 0.00 | 78 | 1018.6 |
| 20260906024003 | 75 | 0 | 0.0 | 1.7 | 0.00 | 0.00 | 0.00 | 78 | 1018.6 |
| 20260906023904 | 75 | 180 | 0.0 | 1.7 | 0.00 | 0.00 | 0.00 | 78 | 1018.5 |
| 20260906023818 | 75 | 180 | 0.0 | 1.7 | 0.00 | 0.00 | 0.00 | 78 | 1018.5 |
| 20260906023717 | 75 | 180 | 0.0 | 1.7 | 0.00 | 0.00 | 0.00 | 78 | 1018.5 |
| 20260906023604 | 75 | 180 | 0.0 | 1.7 | 0.00 | 0.00 | 0.00 | 78 | 1018.4 |
| 20260906023503 | 75 | 180 | 0.0 | 1.7 | 0.00 | 0.00 | 0.00 | 78 | 1018.3 |
| 20260906023403 | 75 | 180 | 0.0 | 1.7 | 0.00 | 0.00 | 0.00 | 78 | 1018.4 |
| 20260906023304 | 75 | 180 | 0.0 | 1.7 | 0.00 | 0.00 | 0.00 | 78 | 1018.3 |
| 20260906023204 | 75 | 180 | 0.0 | 1.7 | 0.00 | 0.00 | 0.00 | 78 | 1018.3 |
| 20260906023104 | 75 | 180 | 0.0 | 1.7 | 0.00 | 0.00 | 0.00 | 78 | 1018.2 |
| 20260906023003 | 75 | 180 | 0.0 | 1.7 | 0.00 | 0.00 | 0.00 | 78 | 1018.3 |
| 20260906022904 | 75 | 0 | 0.0 | 1.7 | 0.00 | 0.00 | 0.00 | 77 | 1018.2 |
| 20260906022804 | 75 | 0 | 0.0 | 1.7 | 0.00 | 0.00 | 0.00 | 77 | 1018.3 |
| 20260906022704 | 75 | 0 | 0.0 | 0.0 | 0.00 | 0.00 | 0.00 | 77 | 1018.3 |
| 20260906022603 | 75 | 0 | 0.0 | 0.0 | 0.00 | 0.00 | 0.00 | 77 | 1018.3 |
| 20260906022503 | 75 | 0 | 0.0 | 0.0 | 0.00 | 0.00 | 0.00 | 77 | 1018.2 |
| 20260906022404 | 75 | 0 | 0.0 | 0.0 | 0.00 | 0.00 | 0.00 | 77 | 1018.2 |
| 20260906022306 | 75 | 0 | 0.0 | 0.0 | 0.00 | 0.00 | 0.00 | 77 | 1018.2 |
| 20260906022203 | 75 | 0 | 0.0 | 0.0 | 0.00 | 0.00 | 0.00 | 77 | 1018.2 |
| 20260906022104 | 75 | 0 | 0.0 | 0.0 | 0.00 | 0.00 | 0.00 | 77 | 1018.2 |
| 20260906022004 | 76 | 0 | 0.0 | 0.0 | 0.00 | 0.00 | 0.00 | 77 | 1018.2 |
| 20260906021903 | 76 | 0 | 0.0 | 0.0 | 0.00 | 0.00 | 0.00 | 77 | 1018.2 |
| 20260906021803 | 76 | 0 | 0.0 | 0.0 | 0.00 | 0.00 | 0.00 | 77 | 1018.1 |
| 20260906021704 | 76 | 0 | 0.0 | 0.0 | 0.00 | 0.00 | 0.00 | 77 | 1018.1 |
| 20260906021603 | 76 | 0 | 0.0 | 0.0 | 0.00 | 0.00 | 0.00 | 76 | 1018.1 |
| 20260906021504 | 76 | 0 | 0.0 | 0.0 | 0.00 | 0.00 | 0.00 | 76 | 1018.0 |
| 20260906021403 | 76 | 0 | 0.0 | 0.9 | 0.00 | 0.00 | 0.00 | 76 | 1017.9 |
| 20260906021304 | 76 | 187 | 0.0 | 1.7 | 0.00 | 0.00 | 0.00 | 76 | 1017.9 |
| 20260906021218 | 76 | 187 | 0.0 | 1.7 | 0.00 | 0.00 | 0.00 | 76 | 1017.8 |
| 20260906021103 | 76 | 187 | 0.0 | 1.7 | 0.00 | 0.00 | 0.00 | 76 | 1017.8 |
| 20260906021004 | 76 | 182 | 0.0 | 1.7 | 0.00 | 0.00 | 0.00 | 76 | 1017.7 |
| 20260906020903 | 76 | 182 | 0.0 | 1.7 | 0.00 | 0.00 | 0.00 | 76 | 1017.6 |
| 20260906020804 | 76 | 182 | 0.0 | 1.7 | 0.00 | 0.00 | 0.00 | 76 | 1017.6 |
| 20260906020704 | 76 | 180 | 0.0 | 1.7 | 0.00 | 0.00 | 0.00 | 76 | 1017.5 |
| 20260906020603 | 76 | 180 | 0.0 | 1.7 | 0.00 | 0.00 | 0.00 | 76 | 1017.5 |
| 20260906020503 | 76 | 180 | 0.9 | 1.7 | 0.00 | 0.00 | 0.00 | 76 | 1017.4 |
| 20260906020418 | 76 | 180 | 0.9 | 1.7 | 0.00 | 0.00 | 0.00 | 76 | 1017.4 |
| 20260906020304 | 76 | 177 | 0.9 | 1.7 | 0.00 | 0.00 | 0.00 | 76 | 1017.3 |
| 20260906020218 | 76 | 171 | 0.9 | 3.5 | 0.00 | 0.00 | 0.00 | 76 | 1017.3 |
| 20260906020103 | 76 | 171 | 0.9 | 3.5 | 0.00 | 0.00 | 0.00 | 76 | 1017.3 |
| 20260906020004 | 76 | 173 | 0.9 | 3.5 | 0.00 | 0.00 | 0.00 | 76 | 1017.3 |
| 20260906015903 | 76 | 174 | 0.9 | 3.5 | 0.00 | 0.00 | 0.00 | 76 | 1017.3 |
| 20260906015817 | 76 | 172 | 0.9 | 3.5 | 0.00 | 0.00 | 0.00 | 75 | 1017.2 |
| 20260906015704 | 76 | 174 | 0.9 | 3.5 | 0.00 | 0.00 | 0.00 | 75 | 1017.2 |
| 20260906015604 | 76 | 173 | 0.9 | 3.5 | 0.00 | 0.00 | 0.00 | 75 | 1017.2 |
| 20260906015504 | 76 | 173 | 1.7 | 3.5 | 0.00 | 0.00 | 0.00 | 75 | 1017.2 |
| 20260906015403 | 76 | 173 | 1.7 | 3.5 | 0.00 | 0.00 | 0.00 | 75 | 1017.1 |
| 20260906015317 | 76 | 174 | 1.7 | 3.5 | 0.00 | 0.00 | 0.00 | 75 | 1017.1 |
| 20260906015203 | 76 | 176 | 0.9 | 3.5 | 0.00 | 0.00 | 0.00 | 75 | 1017.1 |
| 20260906015104 | 76 | 175 | 1.7 | 7.0 | 0.00 | 0.00 | 0.00 | 75 | 1017.1 |
| 20260906015004 | 76 | 175 | 1.7 | 7.0 | 0.00 | 0.00 | 0.00 | 75 | 1017.1 |
| 20260906014903 | 76 | 174 | 1.7 | 7.0 | 0.00 | 0.00 | 0.00 | 75 | 1017.0 |
| 20260906014803 | 76 | 174 | 1.7 | 7.0 | 0.00 | 0.00 | 0.00 | 75 | 1017.0 |
| 20260906014704 | 76 | 169 | 1.7 | 7.0 | 0.00 | 0.00 | 0.00 | 75 | 1016.9 |
| 20260906014604 | 77 | 166 | 2.6 | 7.0 | 0.00 | 0.00 | 0.00 | 75 | 1016.9 |
| 20260906014503 | 77 | 164 | 2.6 | 7.0 | 0.00 | 0.00 | 0.00 | 75 | 1016.9 |
| 20260906014403 | 77 | 161 | 2.6 | 7.0 | 0.00 | 0.00 | 0.00 | 75 | 1016.9 |
| 20260906014304 | 77 | 158 | 2.6 | 7.0 | 0.00 | 0.00 | 0.00 | 75 | 1016.8 |
| 20260906014204 | 77 | 158 | 2.6 | 7.0 | 0.00 | 0.00 | 0.00 | 75 | 1016.8 |
| 20260906014103 | 77 | 159 | 2.6 | 7.0 | 0.00 | 0.00 | 0.00 | 75 | 1016.8 |
| 20260906014018 | 77 | 157 | 2.6 | 6.1 | 0.00 | 0.00 | 0.00 | 75 | 1016.8 |
| 20260906013903 | 77 | 153 | 1.7 | 6.1 | 0.00 | 0.00 | 0.00 | 75 | 1016.8 |
| 20260906013804 | 77 | 151 | 2.6 | 6.1 | 0.00 | 0.00 | 0.00 | 75 | 1016.7 |
| 20260906013703 | 77 | 151 | 2.6 | 6.1 | 0.00 | 0.00 | 0.00 | 75 | 1016.7 |
| 20260906013604 | 77 | 150 | 2.6 | 6.1 | 0.00 | 0.00 | 0.00 | 75 | 1016.7 |
| 20260906013504 | 77 | 153 | 1.7 | 6.1 | 0.00 | 0.00 | 0.00 | 75 | 1016.6 |
| 20260906013417 | 77 | 157 | 1.7 | 5.2 | 0.00 | 0.00 | 0.00 | 74 | 1016.7 |
| 20260906013303 | 77 | 160 | 2.6 | 7.0 | 0.00 | 0.00 | 0.00 | 74 | 1016.7 |
| 20260906013203 | 77 | 154 | 3.5 | 7.0 | 0.00 | 0.00 | 0.00 | 74 | 1016.6 |
| 20260906013118 | 77 | 153 | 3.5 | 7.0 | 0.00 | 0.00 | 0.00 | 74 | 1016.6 |
| 20260906013017 | 77 | 151 | 3.5 | 7.0 | 0.00 | 0.00 | 0.00 | 74 | 1016.6 |
| 20260906012904 | 77 | 151 | 3.5 | 7.0 | 0.00 | 0.00 | 0.00 | 74 | 1016.6 |
| 20260906012804 | 77 | 151 | 3.5 | 7.0 | 0.00 | 0.00 | 0.00 | 74 | 1016.6 |
| 20260906012703 | 77 | 155 | 3.5 | 7.0 | 0.00 | 0.00 | 0.00 | 74 | 1016.6 |
| 20260906012603 | 77 | 157 | 3.5 | 7.0 | 0.00 | 0.00 | 0.00 | 74 | 1016.6 |
| 20260906012517 | 77 | 154 | 3.5 | 7.0 | 0.00 | 0.00 | 0.00 | 74 | 1016.5 |
| 20260906012418 | 77 | 155 | 3.5 | 7.0 | 0.00 | 0.00 | 0.00 | 74 | 1016.6 |
| 20260906012306 | 77 | 157 | 3.5 | 7.0 | 0.00 | 0.00 | 0.00 | 74 | 1016.6 |
| 20260906012203 | 77 | 165 | 2.6 | 7.0 | 0.00 | 0.00 | 0.00 | 74 | 1016.6 |
| 20260906012103 | 77 | 169 | 2.6 | 6.1 | 0.00 | 0.00 | 0.00 | 74 | 1016.5 |
| 20260906012004 | 78 | 172 | 2.6 | 6.1 | 0.00 | 0.00 | 0.00 | 74 | 1016.6 |
| 20260906011903 | 78 | 176 | 2.6 | 6.1 | 0.00 | 0.00 | 0.00 | 74 | 1016.6 |
| 20260906011803 | 78 | 182 | 2.6 | 6.1 | 0.00 | 0.00 | 0.00 | 74 | 1016.6 |
| 20260906011704 | 78 | 180 | 2.6 | 6.1 | 0.00 | 0.00 | 0.00 | 74 | 1016.6 |
| 20260906011618 | 78 | 178 | 1.7 | 6.1 | 0.00 | 0.00 | 0.00 | 74 | 1016.5 |
| 20260906011503 | 78 | 183 | 1.7 | 6.1 | 0.00 | 0.00 | 0.00 | 74 | 1016.6 |
| 20260906011403 | 78 | 180 | 1.7 | 6.1 | 0.00 | 0.00 | 0.00 | 74 | 1016.5 |
| 20260906011304 | 78 | 174 | 1.7 | 6.1 | 0.00 | 0.00 | 0.00 | 74 | 1016.5 |
| 20260906011203 | 78 | 169 | 1.7 | 5.2 | 0.00 | 0.00 | 0.00 | 73 | 1016.5 |
| 20260906011118 | 78 | 165 | 1.7 | 5.2 | 0.00 | 0.00 | 0.00 | 73 | 1016.4 |
| 20260906011004 | 78 | 164 | 1.7 | 5.2 | 0.00 | 0.00 | 0.00 | 73 | 1016.4 |
| 20260906010917 | 78 | 161 | 1.7 | 5.2 | 0.00 | 0.00 | 0.00 | 73 | 1016.4 |
| 20260906010803 | 78 | 160 | 1.7 | 5.2 | 0.00 | 0.00 | 0.00 | 73 | 1016.4 |
| 20260906010703 | 78 | 158 | 1.7 | 5.2 | 0.00 | 0.00 | 0.00 | 73 | 1016.3 |
| 20260906010604 | 78 | 158 | 1.7 | 5.2 | 0.00 | 0.00 | 0.00 | 73 | 1016.3 |
| 20260906010503 | 78 | 161 | 2.6 | 5.2 | 0.00 | 0.00 | 0.00 | 73 | 1016.2 |
| 20260906010404 | 78 | 158 | 2.6 | 5.2 | 0.00 | 0.00 | 0.00 | 73 | 1016.2 |
| 20260906010303 | 78 | 156 | 2.6 | 5.2 | 0.00 | 0.00 | 0.00 | 72 | 1016.2 |
| 20260906010204 | 78 | 154 | 1.7 | 4.3 | 0.00 | 0.00 | 0.00 | 72 | 1016.1 |
| 20260906010118 | 78 | 154 | 1.7 | 4.3 | 0.00 | 0.00 | 0.00 | 72 | 1016.1 |
| 20260906010004 | 78 | 153 | 1.7 | 4.3 | 0.00 | 0.00 | 0.00 | 72 | 1016.1 |
| 20260906005918 | 78 | 151 | 1.7 | 4.3 | 0.00 | 0.00 | 0.00 | 72 | 1016.1 |
| 20260906005803 | 78 | 146 | 1.7 | 4.3 | 0.00 | 0.00 | 0.00 | 72 | 1016.1 |
| 20260906005704 | 78 | 143 | 1.7 | 4.3 | 0.00 | 0.00 | 0.00 | 71 | 1016.1 |
| 20260906005603 | 78 | 142 | 1.7 | 4.3 | 0.00 | 0.00 | 0.00 | 71 | 1016.1 |
| 20260906005503 | 78 | 130 | 1.7 | 5.2 | 0.00 | 0.00 | 0.00 | 71 | 1016.0 |
| 20260906005403 | 78 | 130 | 1.7 | 5.2 | 0.00 | 0.00 | 0.00 | 71 | 1016.0 |
| 20260906005306 | 78 | 132 | 1.7 | 5.2 | 0.00 | 0.00 | 0.00 | 71 | 1016.0 |
| 20260906005203 | 78 | 128 | 1.7 | 5.2 | 0.00 | 0.00 | 0.00 | 71 | 1016.0 |
| 20260906005103 | 78 | 130 | 1.7 | 5.2 | 0.00 | 0.00 | 0.00 | 71 | 1016.0 |
| 20260906005004 | 78 | 126 | 1.7 | 5.2 | 0.00 | 0.00 | 0.00 | 71 | 1016.0 |
| 20260906004904 | 78 | 122 | 1.7 | 5.2 | 0.00 | 0.00 | 0.00 | 70 | 1015.9 |
| 20260906004803 | 78 | 123 | 1.7 | 5.2 | 0.00 | 0.00 | 0.00 | 70 | 1016.0 |
| 20260906004717 | 79 | 122 | 1.7 | 5.2 | 0.00 | 0.00 | 0.00 | 70 | 1015.9 |
| 20260906004604 | 79 | 120 | 2.6 | 7.0 | 0.00 | 0.00 | 0.00 | 70 | 1015.9 |
| 20260906004504 | 79 | 124 | 3.5 | 8.7 | 0.00 | 0.00 | 0.00 | 70 | 1015.9 |
| 20260906004404 | 79 | 119 | 3.5 | 8.7 | 0.00 | 0.00 | 0.00 | 70 | 1015.8 |
| 20260906004304 | 79 | 118 | 3.5 | 8.7 | 0.00 | 0.00 | 0.00 | 70 | 1015.8 |
| 20260906004204 | 79 | 117 | 3.5 | 8.7 | 0.00 | 0.00 | 0.00 | 70 | 1015.8 |
| 20260906004105 | 79 | 114 | 3.5 | 8.7 | 0.00 | 0.00 | 0.00 | 70 | 1015.8 |
| 20260906004004 | 79 | 114 | 3.5 | 8.7 | 0.00 | 0.00 | 0.00 | 70 | 1015.8 |
| 20260906003918 | 79 | 117 | 3.5 | 8.7 | 0.00 | 0.00 | 0.00 | 70 | 1015.9 |
| 20260906003804 | 79 | 117 | 3.5 | 8.7 | 0.00 | 0.00 | 0.00 | 70 | 1015.9 |
| 20260906003704 | 79 | 119 | 3.5 | 8.7 | 0.00 | 0.00 | 0.00 | 69 | 1015.9 |
| 20260906003604 | 79 | 124 | 3.5 | 8.7 | 0.00 | 0.00 | 0.00 | 69 | 1015.9 |
| 20260906003504 | 79 | 119 | 2.6 | 8.7 | 0.00 | 0.00 | 0.00 | 69 | 1015.9 |
| 20260906003403 | 79 | 120 | 2.6 | 9.6 | 0.00 | 0.00 | 0.00 | 69 | 1015.9 |
| 20260906003304 | 79 | 123 | 3.5 | 9.6 | 0.00 | 0.00 | 0.00 | 69 | 1015.9 |
| 20260906003204 | 79 | 119 | 3.5 | 9.6 | 0.00 | 0.00 | 0.00 | 69 | 1015.9 |
| 20260906003104 | 79 | 126 | 3.5 | 9.6 | 0.00 | 0.00 | 0.00 | 69 | 1015.9 |
| 20260906003003 | 80 | 125 | 3.5 | 9.6 | 0.00 | 0.00 | 0.00 | 69 | 1015.9 |
| 20260906002917 | 80 | 124 | 3.5 | 9.6 | 0.00 | 0.00 | 0.00 | 69 | 1015.9 |
| 20260906002803 | 80 | 123 | 3.5 | 9.6 | 0.00 | 0.00 | 0.00 | 69 | 1015.9 |
| 20260906002704 | 80 | 121 | 3.5 | 9.6 | 0.00 | 0.00 | 0.00 | 68 | 1015.9 |
| 20260906002603 | 80 | 115 | 3.5 | 9.6 | 0.00 | 0.00 | 0.00 | 68 | 1015.9 |
| 20260906002504 | 80 | 116 | 3.5 | 9.6 | 0.00 | 0.00 | 0.00 | 68 | 1015.9 |
| 20260906002403 | 80 | 116 | 3.5 | 9.6 | 0.00 | 0.00 | 0.00 | 68 | 1015.9 |
| 20260906002306 | 80 | 112 | 3.5 | 8.7 | 0.00 | 0.00 | 0.00 | 68 | 1015.9 |
| 20260906002204 | 80 | 111 | 2.6 | 8.7 | 0.00 | 0.00 | 0.00 | 68 | 1015.9 |
| 20260906002104 | 80 | 98 | 2.6 | 7.8 | 0.00 | 0.00 | 0.00 | 68 | 1015.9 |
| 20260906002004 | 80 | 98 | 2.6 | 7.8 | 0.00 | 0.00 | 0.00 | 68 | 1015.9 |
| 20260906001904 | 80 | 87 | 2.6 | 7.8 | 0.00 | 0.00 | 0.00 | 68 | 1015.9 |
| 20260906001804 | 80 | 87 | 2.6 | 7.8 | 0.00 | 0.00 | 0.00 | 68 | 1015.9 |
| 20260906001718 | 80 | 89 | 2.6 | 7.8 | 0.00 | 0.00 | 0.00 | 68 | 1016.0 |
| 20260906001604 | 80 | 86 | 2.6 | 7.8 | 0.00 | 0.00 | 0.00 | 68 | 1016.0 |
| 20260906001504 | 80 | 82 | 2.6 | 7.8 | 0.00 | 0.00 | 0.00 | 67 | 1016.0 |
| 20260906001403 | 80 | 83 | 3.5 | 7.8 | 0.00 | 0.00 | 0.00 | 67 | 1016.0 |
| 20260906001303 | 80 | 82 | 3.5 | 7.8 | 0.00 | 0.00 | 0.00 | 67 | 1016.1 |
| 20260906001204 | 80 | 80 | 2.6 | 7.8 | 0.00 | 0.00 | 0.00 | 67 | 1016.1 |
| 20260906001104 | 80 | 80 | 2.6 | 5.2 | 0.00 | 0.00 | 0.00 | 67 | 1016.1 |
| 20260906001018 | 81 | 78 | 2.6 | 5.2 | 0.00 | 0.00 | 0.00 | 67 | 1016.2 |
| 20260906000905 | 81 | 79 | 3.5 | 7.0 | 0.00 | 0.00 | 0.00 | 67 | 1016.2 |
| 20260906000819 | 81 | 78 | 3.5 | 7.0 | 0.00 | 0.00 | 0.00 | 67 | 1016.2 |
| 20260906000705 | 81 | 73 | 3.5 | 7.0 | 0.00 | 0.00 | 0.00 | 67 | 1016.2 |
| 20260906000605 | 81 | 76 | 3.5 | 7.0 | 0.00 | 0.00 | 0.00 | 67 | 1016.2 |
| 20260906000503 | 81 | 77 | 2.6 | 7.0 | 0.00 | 0.00 | 0.00 | 67 | 1016.2 |
| 20260906000405 | 81 | 77 | 2.6 | 7.0 | 0.00 | 0.00 | 0.00 | 67 | 1016.2 |
| 20260906000305 | 81 | 76 | 2.6 | 7.0 | 0.00 | 0.00 | 0.00 | 67 | 1016.2 |
| 20260906000205 | 81 | 80 | 2.6 | 7.0 | 0.00 | 0.00 | 0.00 | 66 | 1016.1 |
| 20260906000104 | 81 | 76 | 3.5 | 7.0 | 0.00 | 0.00 | 0.00 | 66 | 1016.1 |
| 20260906000004 | 81 | 78 | 3.5 | 7.0 | 0.00 | 0.00 | 0.00 | 66 | 1016.1 |
| 20260905235904 | 81 | 79 | 2.6 | 7.0 | 0.00 | 0.00 | 0.00 | 66 | 1016.1 |
| 20260905235817 | 81 | 78 | 2.6 | 6.1 | 0.00 | 0.00 | 0.00 | 66 | 1016.0 |
| 20260905235703 | 81 | 80 | 2.6 | 6.1 | 0.00 | 0.00 | 0.00 | 66 | 1016.0 |
| 20260905235603 | 81 | 81 | 2.6 | 6.1 | 0.00 | 0.00 | 0.00 | 66 | 1016.0 |
| 20260905235504 | 81 | 85 | 2.6 | 6.1 | 0.00 | 0.00 | 0.00 | 66 | 1015.9 |
| 20260905235403 | 81 | 82 | 2.6 | 6.1 | 0.00 | 0.00 | 0.00 | 66 | 1015.9 |
| 20260905235306 | 81 | 84 | 2.6 | 6.1 | 0.00 | 0.00 | 0.00 | 66 | 1015.8 |
| 20260905235204 | 81 | 84 | 2.6 | 6.1 | 0.00 | 0.00 | 0.00 | 66 | 1015.8 |
| 20260905235118 | 81 | 88 | 2.6 | 6.1 | 0.00 | 0.00 | 0.00 | 66 | 1015.8 |
| 20260905235004 | 81 | 93 | 2.6 | 5.2 | 0.00 | 0.00 | 0.00 | 66 | 1015.7 |
| 20260905234904 | 82 | 99 | 2.6 | 5.2 | 0.00 | 0.00 | 0.00 | 66 | 1015.7 |
| 20260905234803 | 82 | 97 | 2.6 | 5.2 | 0.00 | 0.00 | 0.00 | 66 | 1015.7 |
| 20260905234704 | 82 | 91 | 2.6 | 5.2 | 0.00 | 0.00 | 0.00 | 66 | 1015.7 |
| 20260905234618 | 82 | 95 | 1.7 | 3.5 | 0.00 | 0.00 | 0.00 | 66 | 1015.6 |
| 20260905234503 | 82 | 95 | 1.7 | 3.5 | 0.00 | 0.00 | 0.00 | 65 | 1015.6 |
| 20260905234404 | 82 | 100 | 2.6 | 10.4 | 0.00 | 0.00 | 0.00 | 65 | 1015.6 |
| 20260905234303 | 82 | 95 | 2.6 | 10.4 | 0.00 | 0.00 | 0.00 | 65 | 1015.6 |
| 20260905234203 | 82 | 105 | 2.6 | 10.4 | 0.00 | 0.00 | 0.00 | 65 | 1015.6 |
| 20260905234103 | 82 | 111 | 2.6 | 10.4 | 0.00 | 0.00 | 0.00 | 65 | 1015.6 |
| 20260905234003 | 82 | 109 | 2.6 | 10.4 | 0.00 | 0.00 | 0.00 | 65 | 1015.6 |
| 20260905233903 | 82 | 112 | 2.6 | 10.4 | 0.00 | 0.00 | 0.00 | 65 | 1015.7 |
| 20260905233803 | 82 | 111 | 3.5 | 10.4 | 0.00 | 0.00 | 0.00 | 64 | 1015.6 |
| 20260905233703 | 82 | 105 | 3.5 | 10.4 | 0.00 | 0.00 | 0.00 | 64 | 1015.6 |
| 20260905233603 | 82 | 95 | 3.5 | 10.4 | 0.00 | 0.00 | 0.00 | 64 | 1015.6 |
| 20260905233517 | 82 | 89 | 3.5 | 10.4 | 0.00 | 0.00 | 0.00 | 64 | 1015.6 |
| 20260905233403 | 82 | 88 | 3.5 | 10.4 | 0.00 | 0.00 | 0.00 | 64 | 1015.5 |
| 20260905233303 | 82 | 91 | 4.3 | 11.3 | 0.00 | 0.00 | 0.00 | 64 | 1015.5 |
| 20260905233204 | 83 | 71 | 3.5 | 11.3 | 0.00 | 0.00 | 0.00 | 64 | 1015.5 |
| 20260905233104 | 83 | 70 | 3.5 | 11.3 | 0.00 | 0.00 | 0.00 | 64 | 1015.4 |
| 20260905233018 | 83 | 71 | 4.3 | 11.3 | 0.00 | 0.00 | 0.00 | 64 | 1015.4 |
| 20260905232904 | 83 | 67 | 4.3 | 11.3 | 0.00 | 0.00 | 0.00 | 64 | 1015.4 |
| 20260905232817 | 83 | 67 | 4.3 | 11.3 | 0.00 | 0.00 | 0.00 | 63 | 1015.4 |
| 20260905232703 | 83 | 71 | 3.5 | 11.3 | 0.00 | 0.00 | 0.00 | 63 | 1015.4 |
| 20260905232617 | 83 | 73 | 3.5 | 11.3 | 0.00 | 0.00 | 0.00 | 63 | 1015.3 |
| 20260905232518 | 83 | 79 | 3.5 | 11.3 | 0.00 | 0.00 | 0.00 | 63 | 1015.4 |
| 20260905232418 | 83 | 79 | 3.5 | 11.3 | 0.00 | 0.00 | 0.00 | 63 | 1015.3 |
| 20260905232306 | 83 | 80 | 4.3 | 11.3 | 0.00 | 0.00 | 0.00 | 63 | 1015.4 |
| 20260905232203 | 83 | 89 | 3.5 | 11.3 | 0.00 | 0.00 | 0.00 | 63 | 1015.3 |
| 20260905232117 | 83 | 88 | 3.5 | 11.3 | 0.00 | 0.00 | 0.00 | 63 | 1015.4 |
| 20260905232003 | 83 | 84 | 3.5 | 11.3 | 0.00 | 0.00 | 0.00 | 63 | 1015.3 |
| 20260905231903 | 83 | 90 | 3.5 | 11.3 | 0.00 | 0.00 | 0.00 | 63 | 1015.4 |
| 20260905231803 | 83 | 88 | 4.3 | 11.3 | 0.00 | 0.00 | 0.00 | 63 | 1015.3 |
| 20260905231703 | 83 | 98 | 4.3 | 11.3 | 0.00 | 0.00 | 0.00 | 63 | 1015.3 |
| 20260905231603 | 83 | 99 | 4.3 | 11.3 | 0.00 | 0.00 | 0.00 | 62 | 1015.3 |
| 20260905231503 | 83 | 100 | 4.3 | 11.3 | 0.00 | 0.00 | 0.00 | 62 | 1015.2 |
| 20260905231403 | 83 | 103 | 4.3 | 11.3 | 0.00 | 0.00 | 0.00 | 62 | 1015.3 |
| 20260905231304 | 83 | 106 | 4.3 | 11.3 | 0.00 | 0.00 | 0.00 | 62 | 1015.3 |
| 20260905231203 | 83 | 123 | 4.3 | 10.4 | 0.00 | 0.00 | 0.00 | 62 | 1015.3 |
| 20260905231103 | 83 | 123 | 4.3 | 10.4 | 0.00 | 0.00 | 0.00 | 62 | 1015.3 |
| 20260905231004 | 83 | 130 | 4.3 | 10.4 | 0.00 | 0.00 | 0.00 | 62 | 1015.3 |
| 20260905230918 | 83 | 128 | 4.3 | 10.4 | 0.00 | 0.00 | 0.00 | 62 | 1015.3 |
| 20260905230804 | 83 | 133 | 4.3 | 10.4 | 0.00 | 0.00 | 0.00 | 62 | 1015.3 |
| 20260905230703 | 83 | 131 | 4.3 | 10.4 | 0.00 | 0.00 | 0.00 | 61 | 1015.4 |
| 20260905230603 | 84 | 133 | 4.3 | 10.4 | 0.00 | 0.00 | 0.00 | 61 | 1015.4 |
| 20260905230504 | 84 | 132 | 4.3 | 10.4 | 0.00 | 0.00 | 0.00 | 61 | 1015.4 |
| 20260905230403 | 84 | 134 | 4.3 | 10.4 | 0.00 | 0.00 | 0.00 | 61 | 1015.5 |
| 20260905230303 | 84 | 134 | 4.3 | 10.4 | 0.00 | 0.00 | 0.00 | 61 | 1015.4 |
| 20260905230203 | 84 | 126 | 3.5 | 10.4 | 0.00 | 0.00 | 0.00 | 61 | 1015.5 |
| 20260905230103 | 84 | 125 | 3.5 | 9.6 | 0.00 | 0.00 | 0.00 | 61 | 1015.5 |
| 20260905230017 | 84 | 119 | 3.5 | 9.6 | 0.00 | 0.00 | 0.00 | 61 | 1015.5 |
| 20260905225903 | 84 | 117 | 3.5 | 9.6 | 0.00 | 0.00 | 0.00 | 61 | 1015.5 |
| 20260905225803 | 84 | 116 | 4.3 | 9.6 | 0.00 | 0.00 | 0.00 | 60 | 1015.5 |
| 20260905225704 | 84 | 118 | 4.3 | 9.6 | 0.00 | 0.00 | 0.00 | 60 | 1015.5 |
| 20260905225603 | 84 | 117 | 3.5 | 9.6 | 0.00 | 0.00 | 0.00 | 60 | 1015.4 |
| 20260905225517 | 84 | 121 | 4.3 | 9.6 | 0.00 | 0.00 | 0.00 | 60 | 1015.5 |
| 20260905225403 | 84 | 102 | 4.3 | 9.6 | 0.00 | 0.00 | 0.00 | 60 | 1015.5 |
| 20260905225305 | 84 | 91 | 3.5 | 8.7 | 0.00 | 0.00 | 0.00 | 60 | 1015.4 |
| 20260905225204 | 84 | 89 | 3.5 | 8.7 | 0.00 | 0.00 | 0.00 | 60 | 1015.5 |
| 20260905225103 | 84 | 97 | 4.3 | 8.7 | 0.00 | 0.00 | 0.00 | 60 | 1015.5 |
| 20260905225004 | 84 | 98 | 4.3 | 8.7 | 0.00 | 0.00 | 0.00 | 59 | 1015.5 |
| 20260905224903 | 84 | 105 | 4.3 | 8.7 | 0.00 | 0.00 | 0.00 | 60 | 1015.5 |
| 20260905224803 | 84 | 94 | 4.3 | 8.7 | 0.00 | 0.00 | 0.00 | 60 | 1015.6 |
| 20260905224703 | 84 | 93 | 4.3 | 8.7 | 0.00 | 0.00 | 0.00 | 60 | 1015.5 |
| 20260905224618 | 84 | 90 | 4.3 | 8.7 | 0.00 | 0.00 | 0.00 | 61 | 1015.5 |
| 20260905224504 | 84 | 94 | 4.3 | 8.7 | 0.00 | 0.00 | 0.00 | 60 | 1015.5 |
| 20260905224404 | 84 | 115 | 3.5 | 8.7 | 0.00 | 0.00 | 0.00 | 60 | 1015.6 |
| 20260905224304 | 84 | 115 | 3.5 | 7.0 | 0.00 | 0.00 | 0.00 | 60 | 1015.6 |
| 20260905224203 | 84 | 111 | 3.5 | 7.0 | 0.00 | 0.00 | 0.00 | 60 | 1015.5 |
| 20260905224104 | 84 | 107 | 3.5 | 7.0 | 0.00 | 0.00 | 0.00 | 60 | 1015.6 |
| 20260905224003 | 84 | 113 | 3.5 | 8.7 | 0.00 | 0.00 | 0.00 | 61 | 1015.5 |
| 20260905223903 | 84 | 103 | 3.5 | 8.7 | 0.00 | 0.00 | 0.00 | 61 | 1015.5 |
| 20260905223803 | 84 | 108 | 4.3 | 8.7 | 0.00 | 0.00 | 0.00 | 61 | 1015.5 |
| 20260905223703 | 84 | 92 | 4.3 | 8.7 | 0.00 | 0.00 | 0.00 | 61 | 1015.5 |
| 20260905223604 | 84 | 86 | 4.3 | 8.7 | 0.00 | 0.00 | 0.00 | 61 | 1015.5 |
| 20260905223503 | 84 | 80 | 4.3 | 8.7 | 0.00 | 0.00 | 0.00 | 61 | 1015.6 |
| 20260905223403 | 84 | 69 | 4.3 | 8.7 | 0.00 | 0.00 | 0.00 | 61 | 1015.5 |
| 20260905223317 | 84 | 63 | 4.3 | 8.7 | 0.00 | 0.00 | 0.00 | 61 | 1015.5 |
| 20260905223204 | 84 | 57 | 4.3 | 8.7 | 0.00 | 0.00 | 0.00 | 61 | 1015.4 |
| 20260905223103 | 84 | 54 | 3.5 | 8.7 | 0.00 | 0.00 | 0.00 | 61 | 1015.4 |
| 20260905223003 | 84 | 47 | 3.5 | 8.7 | 0.00 | 0.00 | 0.00 | 61 | 1015.5 |
| 20260905222917 | 84 | 48 | 3.5 | 7.8 | 0.00 | 0.00 | 0.00 | 61 | 1015.5 |
| 20260905222803 | 84 | 42 | 3.5 | 7.8 | 0.00 | 0.00 | 0.00 | 62 | 1015.5 |
| 20260905222703 | 84 | 50 | 3.5 | 5.2 | 0.00 | 0.00 | 0.00 | 62 | 1015.5 |
| 20260905222604 | 84 | 55 | 2.6 | 5.2 | 0.00 | 0.00 | 0.00 | 62 | 1015.5 |
| 20260905222518 | 84 | 55 | 3.5 | 9.6 | 0.00 | 0.00 | 0.00 | 62 | 1015.4 |
| 20260905222403 | 84 | 59 | 4.3 | 9.6 | 0.00 | 0.00 | 0.00 | 62 | 1015.4 |
| 20260905222306 | 84 | 62 | 4.3 | 9.6 | 0.00 | 0.00 | 0.00 | 62 | 1015.4 |
| 20260905222203 | 84 | 72 | 4.3 | 9.6 | 0.00 | 0.00 | 0.00 | 63 | 1015.4 |
| 20260905222103 | 84 | 85 | 5.2 | 9.6 | 0.00 | 0.00 | 0.00 | 63 | 1015.4 |
| 20260905222004 | 84 | 94 | 6.1 | 9.6 | 0.00 | 0.00 | 0.00 | 63 | 1015.4 |
| 20260905221903 | 84 | 97 | 6.1 | 9.6 | 0.00 | 0.00 | 0.00 | 63 | 1015.4 |
| 20260905221804 | 84 | 105 | 6.1 | 9.6 | 0.00 | 0.00 | 0.00 | 63 | 1015.4 |
| 20260905221703 | 84 | 109 | 6.1 | 9.6 | 0.00 | 0.00 | 0.00 | 63 | 1015.4 |
| 20260905221603 | 84 | 111 | 6.1 | 9.6 | 0.00 | 0.00 | 0.00 | 63 | 1015.4 |
| 20260905221504 | 84 | 109 | 6.1 | 9.6 | 0.00 | 0.00 | 0.00 | 63 | 1015.4 |
| 20260905221404 | 84 | 117 | 5.2 | 8.7 | 0.00 | 0.00 | 0.00 | 63 | 1015.4 |
| 20260905221304 | 84 | 118 | 5.2 | 8.7 | 0.00 | 0.00 | 0.00 | 63 | 1015.4 |
| 20260905221204 | 84 | 116 | 5.2 | 8.7 | 0.00 | 0.00 | 0.00 | 63 | 1015.4 |
| 20260905221103 | 84 | 108 | 5.2 | 8.7 | 0.00 | 0.00 | 0.00 | 62 | 1015.4 |
| 20260905221003 | 84 | 103 | 4.3 | 8.7 | 0.00 | 0.00 | 0.00 | 62 | 1015.4 |
| 20260905220903 | 84 | 99 | 4.3 | 7.8 | 0.00 | 0.00 | 0.00 | 62 | 1015.4 |
| 20260905220804 | 84 | 95 | 3.5 | 7.8 | 0.00 | 0.00 | 0.00 | 63 | 1015.4 |
| 20260905220703 | 84 | 89 | 3.5 | 10.4 | 0.00 | 0.00 | 0.00 | 64 | 1015.4 |
| 20260905220617 | 84 | 84 | 3.5 | 10.4 | 0.00 | 0.00 | 0.00 | 64 | 1015.4 |
| 20260905220504 | 84 | 83 | 3.5 | 10.4 | 0.00 | 0.00 | 0.00 | 64 | 1015.5 |
| 20260905220404 | 84 | 71 | 3.5 | 10.4 | 0.00 | 0.00 | 0.00 | 63 | 1015.5 |
| 20260905220303 | 84 | 72 | 3.5 | 10.4 | 0.00 | 0.00 | 0.00 | 64 | 1015.6 |
| 20260905220203 | 84 | 69 | 3.5 | 10.4 | 0.00 | 0.00 | 0.00 | 64 | 1015.5 |
| 20260905220103 | 84 | 70 | 4.3 | 10.4 | 0.00 | 0.00 | 0.00 | 64 | 1015.5 |
| 20260905220003 | 84 | 74 | 4.3 | 10.4 | 0.00 | 0.00 | 0.00 | 64 | 1015.6 |
| 20260905215903 | 84 | 75 | 4.3 | 10.4 | 0.00 | 0.00 | 0.00 | 64 | 1015.5 |
| 20260905215803 | 84 | 71 | 4.3 | 10.4 | 0.00 | 0.00 | 0.00 | 64 | 1015.5 |
| 20260905215703 | 84 | 78 | 3.5 | 10.4 | 0.00 | 0.00 | 0.00 | 64 | 1015.5 |
| 20260905215618 | 84 | 81 | 3.5 | 7.0 | 0.00 | 0.00 | 0.00 | 64 | 1015.4 |
| 20260905215503 | 84 | 88 | 4.3 | 12.2 | 0.00 | 0.00 | 0.00 | 64 | 1015.5 |
| 20260905215403 | 84 | 86 | 5.2 | 12.2 | 0.00 | 0.00 | 0.00 | 64 | 1015.4 |
| 20260905215306 | 84 | 81 | 4.3 | 12.2 | 0.00 | 0.00 | 0.00 | 64 | 1015.5 |
| 20260905215204 | 84 | 85 | 5.2 | 12.2 | 0.00 | 0.00 | 0.00 | 63 | 1015.5 |
| 20260905215117 | 84 | 81 | 4.3 | 12.2 | 0.00 | 0.00 | 0.00 | 63 | 1015.6 |
| 20260905215003 | 84 | 74 | 4.3 | 12.2 | 0.00 | 0.00 | 0.00 | 63 | 1015.5 |
| 20260905214903 | 84 | 71 | 4.3 | 12.2 | 0.00 | 0.00 | 0.00 | 63 | 1015.5 |
| 20260905214817 | 84 | 70 | 4.3 | 12.2 | 0.00 | 0.00 | 0.00 | 63 | 1015.5 |
| 20260905214703 | 84 | 64 | 4.3 | 12.2 | 0.00 | 0.00 | 0.00 | 63 | 1015.5 |
| 20260905214603 | 84 | 59 | 4.3 | 12.2 | 0.00 | 0.00 | 0.00 | 63 | 1015.5 |
| 20260905214517 | 84 | 52 | 3.5 | 12.2 | 0.00 | 0.00 | 0.00 | 64 | 1015.5 |
| 20260905214417 | 84 | 42 | 4.3 | 12.2 | 0.00 | 0.00 | 0.00 | 64 | 1015.4 |
| 20260905214304 | 84 | 39 | 4.3 | 12.2 | 0.00 | 0.00 | 0.00 | 64 | 1015.4 |
| 20260905214205 | 84 | 38 | 4.3 | 12.2 | 0.00 | 0.00 | 0.00 | 64 | 1015.3 |
| 20260905214103 | 84 | 33 | 5.2 | 12.2 | 0.00 | 0.00 | 0.00 | 65 | 1015.3 |
| 20260905214003 | 84 | 30 | 5.2 | 12.2 | 0.00 | 0.00 | 0.00 | 64 | 1015.3 |
| 20260905213904 | 83 | 29 | 5.2 | 12.2 | 0.00 | 0.00 | 0.00 | 64 | 1015.3 |
| 20260905213803 | 83 | 32 | 5.2 | 12.2 | 0.00 | 0.00 | 0.00 | 64 | 1015.3 |
| 20260905213703 | 83 | 30 | 5.2 | 12.2 | 0.00 | 0.00 | 0.00 | 64 | 1015.3 |
| 20260905213618 | 83 | 29 | 6.1 | 12.2 | 0.00 | 0.00 | 0.00 | 64 | 1015.3 |
| 20260905213504 | 83 | 33 | 6.1 | 12.2 | 0.00 | 0.00 | 0.00 | 64 | 1015.4 |
| 20260905213403 | 83 | 40 | 6.1 | 12.2 | 0.00 | 0.00 | 0.00 | 64 | 1015.3 |
| 20260905213304 | 83 | 42 | 7.0 | 11.3 | 0.00 | 0.00 | 0.00 | 64 | 1015.4 |
| 20260905213218 | 83 | 41 | 7.0 | 11.3 | 0.00 | 0.00 | 0.00 | 64 | 1015.4 |
| 20260905213103 | 83 | 49 | 7.0 | 11.3 | 0.00 | 0.00 | 0.00 | 64 | 1015.4 |
| 20260905213018 | 83 | 48 | 7.0 | 11.3 | 0.00 | 0.00 | 0.00 | 65 | 1015.5 |
| 20260905212903 | 83 | 51 | 7.0 | 11.3 | 0.00 | 0.00 | 0.00 | 65 | 1015.5 |
| 20260905212803 | 83 | 51 | 7.0 | 11.3 | 0.00 | 0.00 | 0.00 | 65 | 1015.6 |
| 20260905212717 | 83 | 52 | 7.0 | 11.3 | 0.00 | 0.00 | 0.00 | 65 | 1015.6 |
| 20260905212605 | 83 | 54 | 7.0 | 11.3 | 0.00 | 0.00 | 0.00 | 65 | 1015.7 |
| 20260905212504 | 83 | 53 | 7.0 | 11.3 | 0.00 | 0.00 | 0.00 | 65 | 1015.7 |
| 20260905212403 | 83 | 53 | 6.1 | 11.3 | 0.00 | 0.00 | 0.00 | 65 | 1015.7 |
| 20260905212306 | 83 | 56 | 6.1 | 9.6 | 0.00 | 0.00 | 0.00 | 65 | 1015.8 |
| 20260905212204 | 83 | 66 | 5.2 | 9.6 | 0.00 | 0.00 | 0.00 | 65 | 1015.9 |
| 20260905212104 | 83 | 60 | 5.2 | 9.6 | 0.00 | 0.00 | 0.00 | 65 | 1015.9 |
| 20260905212018 | 83 | 76 | 4.3 | 9.6 | 0.00 | 0.00 | 0.00 | 65 | 1015.9 |
| 20260905211905 | 83 | 80 | 3.5 | 7.8 | 0.00 | 0.00 | 0.00 | 66 | 1015.9 |
| 20260905211804 | 83 | 81 | 3.5 | 7.8 | 0.00 | 0.00 | 0.00 | 66 | 1016.0 |
| 20260905211703 | 83 | 81 | 3.5 | 7.0 | 0.00 | 0.00 | 0.00 | 66 | 1015.9 |
| 20260905211603 | 83 | 72 | 4.3 | 9.6 | 0.00 | 0.00 | 0.00 | 66 | 1016.1 |
| 20260905211503 | 83 | 72 | 4.3 | 9.6 | 0.00 | 0.00 | 0.00 | 66 | 1016.0 |
| 20260905211403 | 83 | 63 | 4.3 | 9.6 | 0.00 | 0.00 | 0.00 | 66 | 1016.1 |
| 20260905211303 | 83 | 60 | 4.3 | 9.6 | 0.00 | 0.00 | 0.00 | 66 | 1016.1 |
| 20260905211205 | 83 | 51 | 4.3 | 9.6 | 0.00 | 0.00 | 0.00 | 66 | 1016.1 |
| 20260905211103 | 83 | 51 | 4.3 | 9.6 | 0.00 | 0.00 | 0.00 | 66 | 1016.2 |
| 20260905211003 | 83 | 45 | 4.3 | 9.6 | 0.00 | 0.00 | 0.00 | 66 | 1016.3 |
| 20260905210903 | 83 | 44 | 5.2 | 9.6 | 0.00 | 0.00 | 0.00 | 66 | 1016.3 |
| 20260905210803 | 83 | 50 | 5.2 | 9.6 | 0.00 | 0.00 | 0.00 | 66 | 1016.4 |
| 20260905210704 | 83 | 52 | 5.2 | 9.6 | 0.00 | 0.00 | 0.00 | 66 | 1016.5 |
| 20260905210603 | 83 | 62 | 4.3 | 9.6 | 0.00 | 0.00 | 0.00 | 66 | 1016.5 |
| 20260905210517 | 83 | 68 | 4.3 | 8.7 | 0.00 | 0.00 | 0.00 | 65 | 1016.5 |
| 20260905210403 | 83 | 72 | 4.3 | 8.7 | 0.00 | 0.00 | 0.00 | 65 | 1016.6 |
| 20260905210303 | 83 | 67 | 4.3 | 8.7 | 0.00 | 0.00 | 0.00 | 66 | 1016.5 |
| 20260905210203 | 83 | 73 | 3.5 | 8.7 | 0.00 | 0.00 | 0.00 | 66 | 1016.6 |
| 20260905210103 | 83 | 71 | 3.5 | 8.7 | 0.00 | 0.00 | 0.00 | 66 | 1016.6 |
| 20260905210003 | 83 | 68 | 3.5 | 8.7 | 0.00 | 0.00 | 0.00 | 65 | 1016.7 |
| 20260905205903 | 83 | 69 | 3.5 | 8.7 | 0.00 | 0.00 | 0.00 | 65 | 1016.7 |
| 20260905205804 | 83 | 65 | 2.6 | 6.1 | 0.00 | 0.00 | 0.00 | 65 | 1016.7 |
| 20260905205704 | 83 | 65 | 2.6 | 5.2 | 0.00 | 0.00 | 0.00 | 65 | 1016.7 |
| 20260905205603 | 83 | 66 | 2.6 | 5.2 | 0.00 | 0.00 | 0.00 | 65 | 1016.7 |
| 20260905205503 | 83 | 51 | 3.5 | 7.8 | 0.00 | 0.00 | 0.00 | 65 | 1016.7 |
| 20260905205403 | 83 | 47 | 3.5 | 7.8 | 0.00 | 0.00 | 0.00 | 65 | 1016.7 |
| 20260905205306 | 83 | 41 | 3.5 | 7.8 | 0.00 | 0.00 | 0.00 | 65 | 1016.7 |
| 20260905205217 | 83 | 39 | 3.5 | 7.8 | 0.00 | 0.00 | 0.00 | 66 | 1016.7 |
| 20260905205103 | 83 | 41 | 3.5 | 7.8 | 0.00 | 0.00 | 0.00 | 66 | 1016.7 |
| 20260905205003 | 83 | 52 | 3.5 | 7.8 | 0.00 | 0.00 | 0.00 | 66 | 1016.8 |
| 20260905204917 | 83 | 50 | 3.5 | 7.8 | 0.00 | 0.00 | 0.00 | 66 | 1016.7 |
| 20260905204817 | 83 | 53 | 3.5 | 7.8 | 0.00 | 0.00 | 0.00 | 66 | 1016.7 |
| 20260905204703 | 83 | 45 | 3.5 | 7.8 | 0.00 | 0.00 | 0.00 | 66 | 1016.7 |
| 20260905204617 | 83 | 39 | 4.3 | 7.8 | 0.00 | 0.00 | 0.00 | 66 | 1016.7 |
| 20260905204503 | 83 | 37 | 3.5 | 7.8 | 0.00 | 0.00 | 0.00 | 66 | 1016.7 |
| 20260905204417 | 83 | 37 | 3.5 | 7.0 | 0.00 | 0.00 | 0.00 | 66 | 1016.8 |
| 20260905204317 | 83 | 44 | 3.5 | 7.0 | 0.00 | 0.00 | 0.00 | 66 | 1016.7 |
| 20260905204217 | 83 | 43 | 3.5 | 7.0 | 0.00 | 0.00 | 0.00 | 66 | 1016.8 |
| 20260905204103 | 83 | 41 | 3.5 | 7.0 | 0.00 | 0.00 | 0.00 | 66 | 1016.8 |
| 20260905204004 | 83 | 39 | 3.5 | 7.0 | 0.00 | 0.00 | 0.00 | 66 | 1016.8 |
| 20260905203903 | 83 | 36 | 2.6 | 7.0 | 0.00 | 0.00 | 0.00 | 66 | 1016.9 |
| 20260905203803 | 83 | 34 | 2.6 | 7.0 | 0.00 | 0.00 | 0.00 | 66 | 1016.9 |
| 20260905203703 | 83 | 42 | 2.6 | 7.0 | 0.00 | 0.00 | 0.00 | 66 | 1016.9 |
| 20260905203604 | 83 | 42 | 2.6 | 7.0 | 0.00 | 0.00 | 0.00 | 66 | 1016.9 |
| 20260905203503 | 83 | 51 | 1.7 | 7.0 | 0.00 | 0.00 | 0.00 | 66 | 1016.9 |
| 20260905203404 | 82 | 63 | 1.7 | 3.5 | 0.00 | 0.00 | 0.00 | 66 | 1016.9 |
| 20260905203303 | 82 | 66 | 2.6 | 7.0 | 0.00 | 0.00 | 0.00 | 66 | 1017.0 |
| 20260905203203 | 82 | 63 | 2.6 | 7.0 | 0.00 | 0.00 | 0.00 | 66 | 1016.9 |
| 20260905203103 | 82 | 62 | 2.6 | 7.0 | 0.00 | 0.00 | 0.00 | 65 | 1016.9 |
| 20260905203017 | 82 | 60 | 2.6 | 7.0 | 0.00 | 0.00 | 0.00 | 65 | 1016.9 |
| 20260905202903 | 82 | 62 | 2.6 | 7.0 | 0.00 | 0.00 | 0.00 | 65 | 1016.9 |
| 20260905202803 | 82 | 63 | 2.6 | 7.0 | 0.00 | 0.00 | 0.00 | 65 | 1017.0 |
| 20260905202717 | 82 | 64 | 2.6 | 7.0 | 0.00 | 0.00 | 0.00 | 65 | 1017.0 |
| 20260905202618 | 82 | 79 | 1.7 | 7.0 | 0.00 | 0.00 | 0.00 | 66 | 1016.9 |
| 20260905202517 | 82 | 81 | 2.6 | 7.0 | 0.00 | 0.00 | 0.00 | 65 | 1017.1 |
| 20260905202403 | 82 | 88 | 1.7 | 7.0 | 0.00 | 0.00 | 0.00 | 65 | 1017.0 |
| 20260905202306 | 82 | 87 | 1.7 | 7.0 | 0.00 | 0.00 | 0.00 | 66 | 1017.1 |
| 20260905202204 | 82 | 111 | 1.7 | 6.1 | 0.00 | 0.00 | 0.00 | 66 | 1017.1 |
| 20260905202103 | 82 | 135 | 2.6 | 6.1 | 0.00 | 0.00 | 0.00 | 66 | 1017.1 |
| 20260905202003 | 82 | 132 | 2.6 | 6.1 | 0.00 | 0.00 | 0.00 | 66 | 1017.1 |
| 20260905201903 | 82 | 125 | 2.6 | 6.1 | 0.00 | 0.00 | 0.00 | 66 | 1017.1 |
| 20260905201803 | 82 | 118 | 2.6 | 6.1 | 0.00 | 0.00 | 0.00 | 66 | 1017.1 |
| 20260905201703 | 82 | 118 | 2.6 | 6.1 | 0.00 | 0.00 | 0.00 | 66 | 1017.1 |
| 20260905201603 | 82 | 105 | 2.6 | 6.1 | 0.00 | 0.00 | 0.00 | 67 | 1017.1 |
| 20260905201504 | 82 | 96 | 2.6 | 6.1 | 0.00 | 0.00 | 0.00 | 67 | 1017.1 |
| 20260905201403 | 82 | 78 | 2.6 | 6.1 | 0.00 | 0.00 | 0.00 | 66 | 1017.1 |
| 20260905201303 | 82 | 75 | 3.5 | 6.1 | 0.00 | 0.00 | 0.00 | 66 | 1017.1 |
| 20260905201203 | 82 | 58 | 2.6 | 6.1 | 0.00 | 0.00 | 0.00 | 66 | 1017.2 |
| 20260905201103 | 82 | 50 | 2.6 | 6.1 | 0.00 | 0.00 | 0.00 | 66 | 1017.2 |
| 20260905201003 | 82 | 46 | 2.6 | 5.2 | 0.00 | 0.00 | 0.00 | 66 | 1017.1 |
| 20260905200917 | 82 | 56 | 2.6 | 5.2 | 0.00 | 0.00 | 0.00 | 66 | 1017.2 |
| 20260905200803 | 82 | 57 | 2.6 | 5.2 | 0.00 | 0.00 | 0.00 | 66 | 1017.2 |
| 20260905200703 | 82 | 57 | 1.7 | 5.2 | 0.00 | 0.00 | 0.00 | 67 | 1017.2 |
| 20260905200603 | 82 | 72 | 2.6 | 7.0 | 0.00 | 0.00 | 0.00 | 67 | 1017.2 |
| 20260905200503 | 82 | 92 | 2.6 | 7.0 | 0.00 | 0.00 | 0.00 | 67 | 1017.2 |
| 20260905200417 | 82 | 113 | 2.6 | 7.0 | 0.00 | 0.00 | 0.00 | 66 | 1017.3 |
| 20260905200317 | 82 | 116 | 2.6 | 7.0 | 0.00 | 0.00 | 0.00 | 66 | 1017.3 |
| 20260905200203 | 82 | 135 | 1.7 | 7.0 | 0.00 | 0.00 | 0.00 | 66 | 1017.3 |
| 20260905200103 | 82 | 130 | 2.6 | 7.0 | 0.00 | 0.00 | 0.00 | 67 | 1017.4 |
| 20260905200004 | 82 | 125 | 1.7 | 7.0 | 0.00 | 0.00 | 0.00 | 66 | 1017.4 |
| 20260905195903 | 82 | 127 | 1.7 | 7.0 | 0.00 | 0.00 | 0.00 | 66 | 1017.4 |
| 20260905195803 | 82 | 120 | 1.7 | 7.0 | 0.00 | 0.00 | 0.00 | 66 | 1017.4 |
| 20260905195704 | 82 | 118 | 2.6 | 7.0 | 0.00 | 0.00 | 0.00 | 66 | 1017.4 |
| 20260905195603 | 82 | 126 | 1.7 | 7.0 | 0.00 | 0.00 | 0.00 | 66 | 1017.4 |
| 20260905195503 | 82 | 119 | 2.6 | 7.8 | 0.00 | 0.00 | 0.00 | 68 | 1017.4 |
| 20260905195417 | 82 | 96 | 2.6 | 7.8 | 0.00 | 0.00 | 0.00 | 67 | 1017.4 |
| 20260905195317 | 82 | 98 | 2.6 | 7.8 | 0.00 | 0.00 | 0.00 | 67 | 1017.4 |
| 20260905195203 | 82 | 95 | 2.6 | 7.8 | 0.00 | 0.00 | 0.00 | 67 | 1017.4 |
| 20260905195103 | 82 | 103 | 2.6 | 7.8 | 0.00 | 0.00 | 0.00 | 68 | 1017.4 |
| 20260905195004 | 82 | 105 | 2.6 | 7.8 | 0.00 | 0.00 | 0.00 | 68 | 1017.4 |
| 20260905194903 | 82 | 107 | 3.5 | 7.8 | 0.00 | 0.00 | 0.00 | 68 | 1017.4 |
| 20260905194804 | 82 | 109 | 3.5 | 7.8 | 0.00 | 0.00 | 0.00 | 68 | 1017.4 |
| 20260905194703 | 82 | 112 | 3.5 | 7.8 | 0.00 | 0.00 | 0.00 | 68 | 1017.4 |
| 20260905194604 | 82 | 102 | 2.6 | 7.8 | 0.00 | 0.00 | 0.00 | 67 | 1017.4 |
| 20260905194503 | 82 | 96 | 2.6 | 7.8 | 0.00 | 0.00 | 0.00 | 68 | 1017.5 |
| 20260905194405 | 82 | 105 | 1.7 | 5.2 | 0.00 | 0.00 | 0.00 | 68 | 1017.5 |
| 20260905194303 | 82 | 98 | 2.6 | 5.2 | 0.00 | 0.00 | 0.00 | 68 | 1017.5 |
| 20260905194217 | 82 | 84 | 2.6 | 5.2 | 0.00 | 0.00 | 0.00 | 68 | 1017.5 |
| 20260905194103 | 82 | 75 | 2.6 | 5.2 | 0.00 | 0.00 | 0.00 | 68 | 1017.4 |
| 20260905194003 | 82 | 68 | 3.5 | 5.2 | 0.00 | 0.00 | 0.00 | 68 | 1017.4 |
| 20260905193903 | 82 | 53 | 3.5 | 5.2 | 0.00 | 0.00 | 0.00 | 69 | 1017.4 |
| 20260905193803 | 82 | 48 | 2.6 | 5.2 | 0.00 | 0.00 | 0.00 | 68 | 1017.4 |
| 20260905193703 | 82 | 48 | 2.6 | 5.2 | 0.00 | 0.00 | 0.00 | 68 | 1017.4 |
| 20260905193617 | 82 | 49 | 2.6 | 5.2 | 0.00 | 0.00 | 0.00 | 67 | 1017.4 |
| 20260905193517 | 82 | 52 | 2.6 | 5.2 | 0.00 | 0.00 | 0.00 | 67 | 1017.4 |
| 20260905193403 | 82 | 62 | 2.6 | 5.2 | 0.00 | 0.00 | 0.00 | 68 | 1017.5 |
| 20260905193304 | 82 | 65 | 2.6 | 5.2 | 0.00 | 0.00 | 0.00 | 68 | 1017.4 |
| 20260905193203 | 82 | 73 | 2.6 | 5.2 | 0.00 | 0.00 | 0.00 | 68 | 1017.4 |
| 20260905193103 | 82 | 79 | 2.6 | 5.2 | 0.00 | 0.00 | 0.00 | 68 | 1017.4 |
| 20260905193003 | 82 | 84 | 1.7 | 4.3 | 0.00 | 0.00 | 0.00 | 68 | 1017.4 |
| 20260905192903 | 82 | 101 | 1.7 | 3.5 | 0.00 | 0.00 | 0.00 | 68 | 1017.4 |
| 20260905192817 | 82 | 98 | 1.7 | 4.3 | 0.00 | 0.00 | 0.00 | 69 | 1017.4 |
| 20260905192703 | 82 | 110 | 1.7 | 4.3 | 0.00 | 0.00 | 0.00 | 69 | 1017.5 |
| 20260905192603 | 82 | 111 | 2.6 | 4.3 | 0.00 | 0.00 | 0.00 | 69 | 1017.4 |
| 20260905192517 | 81 | 107 | 2.6 | 4.3 | 0.00 | 0.00 | 0.00 | 69 | 1017.5 |
| 20260905192403 | 81 | 107 | 2.6 | 6.1 | 0.00 | 0.00 | 0.00 | 69 | 1017.5 |
| 20260905192306 | 81 | 97 | 2.6 | 6.1 | 0.00 | 0.00 | 0.00 | 69 | 1017.5 |
| 20260905192218 | 81 | 88 | 2.6 | 6.1 | 0.00 | 0.00 | 0.00 | 70 | 1017.5 |
| 20260905192104 | 81 | 92 | 2.6 | 6.1 | 0.00 | 0.00 | 0.00 | 70 | 1017.5 |
| 20260905192018 | 81 | 100 | 2.6 | 6.1 | 0.00 | 0.00 | 0.00 | 71 | 1017.5 |
| 20260905191903 | 81 | 92 | 2.6 | 6.1 | 0.00 | 0.00 | 0.00 | 71 | 1017.5 |
| 20260905191803 | 81 | 80 | 2.6 | 6.1 | 0.00 | 0.00 | 0.00 | 71 | 1017.6 |
| 20260905191703 | 81 | 60 | 2.6 | 6.1 | 0.00 | 0.00 | 0.00 | 71 | 1017.6 |
| 20260905191603 | 81 | 53 | 2.6 | 6.1 | 0.00 | 0.00 | 0.00 | 70 | 1017.5 |
| 20260905191504 | 80 | 45 | 2.6 | 6.1 | 0.00 | 0.00 | 0.00 | 70 | 1017.6 |
| 20260905191403 | 80 | 43 | 2.6 | 6.1 | 0.00 | 0.00 | 0.00 | 71 | 1017.6 |
| 20260905191303 | 80 | 43 | 2.6 | 5.2 | 0.00 | 0.00 | 0.00 | 71 | 1017.6 |
| 20260905191203 | 80 | 41 | 2.6 | 5.2 | 0.00 | 0.00 | 0.00 | 72 | 1017.6 |
| 20260905191103 | 80 | 40 | 2.6 | 5.2 | 0.00 | 0.00 | 0.00 | 72 | 1017.6 |
| 20260905191004 | 80 | 39 | 2.6 | 5.2 | 0.00 | 0.00 | 0.00 | 71 | 1017.6 |
| 20260905190903 | 80 | 41 | 2.6 | 5.2 | 0.00 | 0.00 | 0.00 | 72 | 1017.5 |
| 20260905190803 | 80 | 52 | 2.6 | 5.2 | 0.00 | 0.00 | 0.00 | 71 | 1017.6 |
| 20260905190718 | 80 | 52 | 2.6 | 5.2 | 0.00 | 0.00 | 0.00 | 71 | 1017.6 |
| 20260905190605 | 80 | 57 | 2.6 | 7.0 | 0.00 | 0.00 | 0.00 | 71 | 1017.6 |
| 20260905190503 | 80 | 82 | 3.5 | 7.0 | 0.00 | 0.00 | 0.00 | 72 | 1017.6 |
| 20260905190405 | 80 | 104 | 2.6 | 7.0 | 0.00 | 0.00 | 0.00 | 72 | 1017.6 |
| 20260905190304 | 80 | 113 | 2.6 | 7.0 | 0.00 | 0.00 | 0.00 | 72 | 1017.6 |
| 20260905190203 | 80 | 116 | 2.6 | 7.0 | 0.00 | 0.00 | 0.00 | 72 | 1017.7 |
| 20260905190104 | 80 | 118 | 2.6 | 7.0 | 0.00 | 0.00 | 0.00 | 72 | 1017.6 |
| 20260905190018 | 80 | 118 | 2.6 | 7.0 | 0.00 | 0.00 | 0.00 | 72 | 1017.6 |
| 20260905185904 | 80 | 122 | 2.6 | 7.0 | 0.00 | 0.00 | 0.00 | 72 | 1017.6 |
| 20260905185803 | 80 | 121 | 2.6 | 7.0 | 0.00 | 0.00 | 0.00 | 72 | 1017.6 |
| 20260905185717 | 80 | 120 | 2.6 | 7.0 | 0.00 | 0.00 | 0.00 | 72 | 1017.6 |
| 20260905185603 | 80 | 113 | 2.6 | 7.0 | 0.00 | 0.00 | 0.00 | 72 | 1017.5 |
| 20260905185503 | 80 | 103 | 1.7 | 7.0 | 0.00 | 0.00 | 0.00 | 73 | 1017.5 |
| 20260905185403 | 80 | 84 | 2.6 | 6.1 | 0.00 | 0.00 | 0.00 | 73 | 1017.5 |
| 20260905185305 | 80 | 75 | 2.6 | 6.1 | 0.00 | 0.00 | 0.00 | 73 | 1017.5 |
| 20260905185203 | 80 | 78 | 2.6 | 6.1 | 0.00 | 0.00 | 0.00 | 73 | 1017.4 |
| 20260905185103 | 80 | 66 | 3.5 | 6.1 | 0.00 | 0.00 | 0.00 | 73 | 1017.5 |
| 20260905185018 | 80 | 56 | 3.5 | 6.1 | 0.00 | 0.00 | 0.00 | 73 | 1017.5 |
| 20260905184903 | 80 | 48 | 3.5 | 6.1 | 0.00 | 0.00 | 0.00 | 73 | 1017.5 |
| 20260905184803 | 80 | 39 | 3.5 | 6.1 | 0.00 | 0.00 | 0.00 | 73 | 1017.5 |
| 20260905184703 | 80 | 45 | 3.5 | 6.1 | 0.00 | 0.00 | 0.00 | 74 | 1017.5 |
| 20260905184603 | 79 | 52 | 3.5 | 6.1 | 0.00 | 0.00 | 0.00 | 74 | 1017.5 |
| 20260905184503 | 80 | 57 | 3.5 | 6.1 | 0.00 | 0.00 | 0.00 | 74 | 1017.5 |
| 20260905184418 | 80 | 64 | 3.5 | 6.1 | 0.00 | 0.00 | 0.00 | 74 | 1017.5 |
| 20260905184303 | 79 | 69 | 2.6 | 6.1 | 0.00 | 0.00 | 0.00 | 73 | 1017.5 |
| 20260905184204 | 79 | 69 | 2.6 | 6.1 | 0.00 | 0.00 | 0.00 | 73 | 1017.4 |
| 20260905184103 | 79 | 82 | 2.6 | 4.3 | 0.00 | 0.00 | 0.00 | 74 | 1017.5 |
| 20260905184003 | 79 | 89 | 1.7 | 4.3 | 0.00 | 0.00 | 0.00 | 74 | 1017.4 |
| 20260905183903 | 79 | 102 | 2.6 | 4.3 | 0.00 | 0.00 | 0.00 | 74 | 1017.4 |
| 20260905183803 | 79 | 94 | 2.6 | 4.3 | 0.00 | 0.00 | 0.00 | 74 | 1017.5 |
| 20260905183703 | 79 | 72 | 1.7 | 4.3 | 0.00 | 0.00 | 0.00 | 74 | 1017.5 |
| 20260905183603 | 79 | 59 | 1.7 | 4.3 | 0.00 | 0.00 | 0.00 | 74 | 1017.4 |
| 20260905183505 | 79 | 60 | 2.6 | 4.3 | 0.00 | 0.00 | 0.00 | 74 | 1017.5 |
| 20260905183405 | 79 | 55 | 2.6 | 5.2 | 0.00 | 0.00 | 0.00 | 74 | 1017.5 |
| 20260905183304 | 79 | 59 | 2.6 | 5.2 | 0.00 | 0.00 | 0.00 | 74 | 1017.5 |
| 20260905183204 | 79 | 64 | 2.6 | 5.2 | 0.00 | 0.00 | 0.00 | 74 | 1017.5 |
| 20260905183104 | 79 | 68 | 2.6 | 5.2 | 0.00 | 0.00 | 0.00 | 74 | 1017.5 |
| 20260905183006 | 79 | 69 | 2.6 | 5.2 | 0.00 | 0.00 | 0.00 | 74 | 1017.5 |
| 20260905182903 | 79 | 68 | 2.6 | 5.2 | 0.00 | 0.00 | 0.00 | 74 | 1017.5 |
| 20260905182803 | 79 | 82 | 1.7 | 5.2 | 0.00 | 0.00 | 0.00 | 74 | 1017.5 |
| 20260905182705 | 79 | 102 | 1.7 | 5.2 | 0.00 | 0.00 | 0.00 | 74 | 1017.5 |
| 20260905182603 | 79 | 129 | 2.6 | 5.2 | 0.00 | 0.00 | 0.00 | 74 | 1017.5 |
| 20260905182504 | 79 | 140 | 2.6 | 5.2 | 0.00 | 0.00 | 0.00 | 75 | 1017.5 |
| 20260905182417 | 79 | 146 | 2.6 | 5.2 | 0.00 | 0.00 | 0.00 | 75 | 1017.5 |
| 20260905182305 | 79 | 157 | 1.7 | 4.3 | 0.00 | 0.00 | 0.00 | 76 | 1017.5 |
| 20260905182203 | 79 | 172 | 1.7 | 4.3 | 0.00 | 0.00 | 0.00 | 75 | 1017.6 |
| 20260905182117 | 79 | 177 | 1.7 | 4.3 | 0.00 | 0.00 | 0.00 | 75 | 1017.7 |
| 20260905182003 | 78 | 180 | 2.6 | 6.1 | 0.00 | 0.00 | 0.00 | 76 | 1017.6 |
| 20260905181903 | 78 | 183 | 2.6 | 6.1 | 0.00 | 0.00 | 0.00 | 75 | 1017.7 |
| 20260905181803 | 78 | 180 | 2.6 | 6.1 | 0.00 | 0.00 | 0.00 | 75 | 1017.7 |
| 20260905181703 | 78 | 178 | 2.6 | 6.1 | 0.00 | 0.00 | 0.00 | 76 | 1017.6 |
| 20260905181603 | 78 | 172 | 2.6 | 6.1 | 0.00 | 0.00 | 0.00 | 76 | 1017.7 |
| 20260905181503 | 78 | 172 | 2.6 | 6.1 | 0.00 | 0.00 | 0.00 | 76 | 1017.7 |
| 20260905181403 | 78 | 175 | 2.6 | 6.1 | 0.00 | 0.00 | 0.00 | 76 | 1017.7 |
| 20260905181303 | 78 | 173 | 2.6 | 6.1 | 0.00 | 0.00 | 0.00 | 76 | 1017.7 |
| 20260905181203 | 78 | 171 | 2.6 | 6.1 | 0.00 | 0.00 | 0.00 | 76 | 1017.7 |
| 20260905181118 | 78 | 165 | 2.6 | 6.1 | 0.00 | 0.00 | 0.00 | 77 | 1017.7 |
| 20260905181004 | 78 | 156 | 1.7 | 6.1 | 0.00 | 0.00 | 0.00 | 78 | 1017.8 |
| 20260905180903 | 78 | 142 | 1.7 | 5.2 | 0.00 | 0.00 | 0.00 | 77 | 1017.8 |
| 20260905180803 | 77 | 140 | 1.7 | 5.2 | 0.00 | 0.00 | 0.00 | 77 | 1017.9 |
| 20260905180717 | 77 | 133 | 1.7 | 5.2 | 0.00 | 0.00 | 0.00 | 77 | 1017.9 |
| 20260905180603 | 77 | 129 | 1.7 | 5.2 | 0.00 | 0.00 | 0.00 | 78 | 1017.9 |
| 20260905180517 | 77 | 119 | 1.7 | 5.2 | 0.00 | 0.00 | 0.00 | 78 | 1017.9 |
| 20260905180404 | 77 | 110 | 2.6 | 5.2 | 0.00 | 0.00 | 0.00 | 79 | 1017.9 |
| 20260905180303 | 77 | 77 | 1.7 | 5.2 | 0.00 | 0.00 | 0.00 | 79 | 1017.9 |
| 20260905180203 | 77 | 63 | 1.7 | 3.5 | 0.00 | 0.00 | 0.00 | 80 | 1018.0 |
| 20260905180103 | 76 | 59 | 1.7 | 3.5 | 0.00 | 0.00 | 0.00 | 80 | 1018.0 |
| 20260905180004 | 76 | 58 | 1.7 | 3.5 | 0.00 | 0.00 | 0.00 | 79 | 1018.0 |
| 20260905175903 | 76 | 59 | 1.7 | 3.5 | 0.00 | 0.00 | 0.00 | 79 | 1018.0 |
| 20260905175803 | 76 | 66 | 2.6 | 4.3 | 0.00 | 0.00 | 0.00 | 79 | 1018.0 |
| 20260905175703 | 76 | 79 | 2.6 | 4.3 | 0.00 | 0.00 | 0.00 | 79 | 1018.0 |
| 20260905175617 | 76 | 93 | 3.5 | 7.8 | 0.00 | 0.00 | 0.00 | 79 | 1018.0 |
| 20260905175503 | 76 | 107 | 3.5 | 7.8 | 0.00 | 0.00 | 0.00 | 79 | 1018.0 |
| 20260905175417 | 76 | 122 | 4.3 | 7.8 | 0.00 | 0.00 | 0.00 | 79 | 1018.0 |
| 20260905175306 | 76 | 132 | 4.3 | 7.8 | 0.00 | 0.00 | 0.00 | 79 | 1017.9 |
| 20260905175203 | 76 | 141 | 4.3 | 7.8 | 0.00 | 0.00 | 0.00 | 80 | 1018.0 |
| 20260905175117 | 76 | 139 | 4.3 | 7.8 | 0.00 | 0.00 | 0.00 | 80 | 1017.9 |
| 20260905175003 | 76 | 142 | 4.3 | 7.8 | 0.00 | 0.00 | 0.00 | 80 | 1017.9 |
| 20260905174903 | 76 | 141 | 4.3 | 7.8 | 0.00 | 0.00 | 0.00 | 80 | 1017.9 |
| 20260905174803 | 76 | 140 | 4.3 | 7.8 | 0.00 | 0.00 | 0.00 | 80 | 1017.9 |
| 20260905174717 | 76 | 144 | 4.3 | 7.8 | 0.00 | 0.00 | 0.00 | 80 | 1017.9 |
| 20260905174603 | 76 | 144 | 3.5 | 7.8 | 0.00 | 0.00 | 0.00 | 80 | 1018.0 |
| 20260905174505 | 76 | 142 | 3.5 | 7.8 | 0.00 | 0.00 | 0.00 | 80 | 1018.0 |
| 20260905174418 | 76 | 140 | 2.6 | 5.2 | 0.00 | 0.00 | 0.00 | 80 | 1018.0 |
| 20260905174303 | 76 | 137 | 2.6 | 5.2 | 0.00 | 0.00 | 0.00 | 80 | 1018.0 |
| 20260905174205 | 76 | 129 | 1.7 | 5.2 | 0.00 | 0.00 | 0.00 | 81 | 1018.0 |
| 20260905174103 | 76 | 135 | 2.6 | 7.8 | 0.00 | 0.00 | 0.00 | 81 | 1018.1 |